GFSGBSN_500_spd_000.txt.gz
Wind_Speed
27 30 31 32 33 32 34 34 35 30 31 34 29 31 35 36 41 43 41 38 44 44 37 44 49 44 53 65 69 72 70 63 63 60 58 55 54 45 39 34 35 31 30 33 33 31 26
27 29 31 32 32 33 35 38 35 29 32 30 33 34 33 35 40 41 37 40 37 34 34 40 39 42 47 57 61 72 72 66 66 61 58 57 52 41 41 39 35 32 35 37 31 29 28
28 29 31 32 31 33 34 38 31 28 32 33 36 31 33 35 39 38 37 35 32 31 33 37 39 44 44 41 64 71 73 68 68 62 57 52 47 47 42 39 35 37 36 33 29 29 31
29 30 31 32 31 32 32 36 30 29 33 31 31 34 32 37 36 37 35 31 30 29 31 34 37 40 37 45 59 67 72 69 68 63 57 53 51 47 43 42 38 37 33 30 29 34 31
29 30 31 32 32 32 31 34 32 30 34 30 30 30 34 38 36 34 32 27 25 30 25 27 33 35 40 40 51 61 69 70 69 64 58 54 52 51 48 43 40 39 32 30 31 34 28
29 30 31 32 32 32 30 32 34 30 32 27 30 31 35 40 35 31 28 26 23 27 22 25 28 36 32 37 47 59 69 71 69 64 61 57 51 53 50 46 46 32 31 29 32 31 28
29 30 31 33 33 33 30 30 35 30 30 29 30 31 40 42 36 28 27 25 22 21 18 17 18 24 29 37 47 58 68 70 68 66 63 58 56 58 49 37 33 34 37 31 33 34 26
31 30 30 34 33 33 30 29 35 29 28 29 29 31 39 42 36 24 19 18 19 22 19 11 19 25 30 31 48 59 67 68 66 65 63 60 57 44 40 40 39 36 34 30 31 30 25
32 30 31 34 34 33 32 28 31 28 26 27 31 28 35 28 34 26 14 13 19 17 17 7 11 19 26 30 46 58 64 68 66 65 63 60 53 46 43 41 37 32 30 27 29 29 24
32 32 32 33 35 32 32 28 28 29 23 25 30 33 36 35 32 21 18 11 19 16 16 14 9 17 26 32 47 58 62 65 63 62 59 57 50 45 43 39 35 31 24 28 29 27 22
33 33 33 33 34 32 32 28 26 29 21 24 32 29 25 30 36 27 23 15 14 16 25 18 18 13 31 30 46 58 60 62 57 58 62 59 49 49 47 37 32 22 26 26 29 26 24
34 34 34 33 33 31 30 28 24 28 19 20 28 24 25 32 36 31 26 22 19 13 20 12 16 20 34 38 49 56 61 62 57 59 57 56 51 45 39 34 27 30 30 26 29 28 28
36 34 34 33 32 30 27 27 23 26 16 16 23 24 21 27 33 29 23 19 20 19 14 12 11 28 33 44 53 56 61 62 55 60 59 53 50 45 39 38 33 33 32 27 27 25 21
37 34 34 34 30 29 27 25 23 24 14 14 19 23 22 21 24 26 20 17 19 13 7 10 23 34 41 51 53 56 61 59 54 52 53 55 54 49 45 37 35 30 29 23 24 23 23
40 34 34 34 30 28 27 22 21 23 14 11 16 22 22 19 20 26 17 11 11 5 7 8 31 38 48 34 44 51 54 57 54 51 52 52 48 42 38 34 34 30 34 28 25 25 24
42 37 34 34 30 27 27 23 18 22 17 11 13 21 22 18 18 25 17 2 5 6 15 14 26 51 53 51 48 46 51 50 50 49 46 44 44 43 37 36 39 38 30 30 29 27 25
44 39 34 33 32 26 27 24 18 20 19 10 10 19 18 16 12 17 24 3 5 11 15 14 32 41 43 51 45 50 50 47 41 44 44 41 39 39 37 38 36 34 32 29 28 28 25
45 41 36 34 33 26 26 24 19 18 18 11 8 13 11 11 11 18 22 8 6 10 13 17 28 32 29 46 45 40 34 34 33 34 36 38 35 36 38 38 38 37 32 30 31 28 24
45 43 38 34 34 27 26 23 20 17 18 12 6 13 9 6 7 7 12 10 11 11 12 14 23 25 31 42 39 34 25 29 28 27 31 34 39 37 37 38 39 33 30 30 28 27 23
43 43 40 35 34 28 26 24 22 17 17 12 8 9 8 3 2 5 6 10 2 7 6 16 22 24 36 42 31 24 32 28 28 24 26 34 37 37 35 26 27 28 25 25 27 27 24
45 43 41 37 34 30 26 23 22 17 16 12 11 9 10 4 3 5 5 9 3 3 7 14 22 23 25 38 29 29 30 30 28 27 26 25 33 31 32 33 33 30 28 30 29 24 26
43 43 42 39 36 30 26 22 22 20 15 13 15 12 14 7 2 5 8 10 6 9 11 16 19 21 20 25 30 29 24 30 25 29 28 26 34 31 29 31 30 31 32 30 29 26 25
48 44 43 39 35 32 26 21 23 22 16 13 18 13 17 13 5 2 6 4 11 13 15 16 21 19 20 19 24 34 31 28 22 28 24 23 30 31 32 31 30 32 31 28 27 27 27
51 47 43 40 36 33 25 21 23 21 17 15 22 16 17 18 11 7 6 7 11 14 15 13 15 14 16 17 19 27 31 28 27 31 28 27 31 34 29 29 33 27 27 27 27 26 26
48 46 42 39 35 31 26 21 22 20 18 17 25 20 16 16 15 13 9 8 12 10 14 12 12 17 11 11 24 24 26 29 32 33 32 28 28 27 26 26 25 25 27 27 27 26 27
51 47 42 38 34 31 27 22 23 20 18 19 28 25 19 14 18 16 12 10 15 17 15 13 15 16 15 13 16 18 20 26 33 33 31 27 28 29 31 30 29 25 26 26 29 30 24
57 49 44 38 34 32 28 24 24 21 19 20 30 29 24 19 19 18 16 15 18 20 19 20 20 20 19 17 16 25 21 16 17 18 21 32 36 33 31 33 34 29 25 29 30 25 22
57 50 45 40 36 35 30 27 26 23 21 22 30 32 29 24 19 22 20 21 22 21 19 19 17 18 17 17 18 21 20 16 19 19 21 19 22 23 22 21 23 19 21 26 25 25 26
52 53 48 46 41 36 32 29 29 26 24 25 28 33 33 30 25 21 20 21 25 22 19 18 16 15 14 15 15 16 17 16 16 18 21 22 23 21 23 22 22 21 21 23 23 24 25

GFSGBSN_500_spd_003.txt.gz
Wind_Speed
27 26 25 26 27 28 31 33 32 32 33 29 31 31 29 33 31 33 35 36 38 42 44 45 48 52 60 64 56 63 64 67 68 69 64 60 60 57 52 41 38 35 34 36 33 29 29
27 26 27 27 28 29 30 35 33 32 33 28 32 29 29 31 31 32 34 38 41 42 43 43 44 48 51 51 52 59 62 65 71 69 66 62 60 56 50 45 42 34 38 37 35 33 32
28 27 27 29 29 30 30 35 33 31 33 31 33 31 28 28 29 32 39 40 43 40 39 38 42 45 46 50 52 54 57 63 72 71 67 63 58 57 52 46 40 40 40 38 32 36 33
31 29 28 29 30 30 32 35 35 32 31 31 32 30 28 28 30 37 37 38 38 35 38 40 38 43 42 38 41 43 50 60 67 72 68 65 60 56 53 50 44 42 39 35 33 35 36
34 32 30 30 31 31 32 36 36 33 33 30 30 28 27 31 33 37 36 40 33 33 37 40 33 35 39 29 35 42 40 53 63 69 67 66 61 56 55 51 46 44 37 33 37 36 36
37 33 32 31 31 32 34 35 37 33 33 30 28 28 28 29 37 39 39 39 28 31 34 32 30 34 26 28 34 40 37 52 59 65 68 66 60 58 55 53 52 46 32 33 33 36 36
37 36 33 32 32 32 34 35 36 33 32 31 26 27 29 34 43 39 37 37 30 29 28 31 32 30 26 28 34 38 39 52 58 64 67 66 61 61 53 52 43 35 35 34 34 38 34
38 37 34 33 32 32 34 36 36 33 31 32 26 25 30 33 35 38 32 33 29 27 28 29 28 22 23 28 33 40 42 52 58 62 66 64 62 54 47 46 42 38 37 35 35 34 32
40 38 35 34 33 32 34 35 36 31 29 31 26 26 28 28 34 37 34 31 29 28 26 28 25 18 23 31 31 38 43 51 57 62 64 64 57 50 46 47 44 39 36 32 34 35 32
40 40 37 34 34 32 34 35 35 31 28 31 25 26 27 27 34 37 40 29 28 25 30 28 22 15 21 31 27 36 43 51 56 62 61 61 47 52 45 44 41 37 31 33 34 35 30
42 41 39 36 35 33 34 35 33 30 26 29 25 25 28 28 32 33 38 32 25 25 31 29 25 19 16 28 30 38 43 51 55 60 59 55 50 48 47 37 37 33 33 35 33 31 28
44 43 41 38 36 34 33 34 33 28 24 26 25 23 26 30 30 33 36 31 28 28 33 24 22 18 20 29 29 36 45 50 52 59 52 47 46 46 41 38 36 35 35 33 28 29 27
45 43 42 39 38 37 33 33 33 26 24 24 23 20 23 29 32 31 34 28 25 23 24 19 16 19 28 33 33 40 46 52 43 58 53 45 50 43 40 39 38 38 35 31 27 27 22
47 44 41 41 40 38 34 32 32 26 26 23 22 21 21 29 29 24 31 18 16 22 21 10 8 26 35 37 36 44 45 52 54 55 51 54 48 47 46 44 44 40 34 30 27 24 24
49 44 44 43 40 38 34 31 31 26 27 22 22 22 20 26 27 25 26 13 15 24 24 10 20 33 32 38 39 47 48 52 55 54 49 52 49 49 45 36 38 37 36 31 26 23 23
51 46 45 44 41 39 35 30 29 26 26 23 23 20 17 22 17 20 29 16 10 15 16 15 22 34 37 38 42 49 51 55 54 50 51 48 47 49 47 41 37 41 32 33 30 25 19
48 46 47 45 42 38 34 29 28 26 24 23 22 18 15 18 15 18 25 11 6 12 11 14 21 27 36 38 49 51 53 54 51 45 47 46 44 44 43 42 35 32 34 31 28 27 22
50 46 48 44 41 38 34 29 26 26 23 24 22 16 12 14 10 16 19 13 2 9 13 22 30 18 28 35 43 47 49 50 48 42 40 40 43 44 40 37 34 34 32 32 30 28 25
52 51 52 44 41 38 34 28 26 25 22 24 21 15 9 9 7 8 13 18 6 6 11 25 23 12 23 29 39 40 44 45 41 37 35 35 37 41 43 44 40 37 35 35 29 26 27
56 50 48 43 40 37 34 29 26 25 22 24 18 15 9 5 5 4 7 13 6 11 14 19 21 19 20 30 31 37 39 38 31 27 30 33 35 33 33 32 31 31 29 28 29 30 26
58 62 56 45 40 36 34 30 26 24 22 21 18 16 11 4 3 1 3 11 6 11 15 14 23 23 25 30 31 29 29 33 28 26 27 31 34 35 35 33 35 36 36 34 32 26 27
61 58 56 48 42 37 34 31 25 23 21 18 20 16 16 11 8 6 6 9 5 6 9 13 16 19 32 33 25 19 21 22 21 23 23 25 27 31 34 36 34 33 34 35 33 31 27
59 59 55 48 39 35 33 30 24 22 21 17 20 16 18 15 11 8 4 3 7 11 10 13 23 19 23 37 29 23 23 20 22 17 19 19 19 22 28 30 33 36 31 32 30 27 26
57 52 43 45 44 37 32 29 25 22 22 17 19 16 18 18 15 10 9 3 11 10 13 15 19 22 21 32 33 28 28 25 27 23 24 21 19 20 29 29 31 27 26 27 27 27 26
49 56 52 44 40 37 32 28 25 22 22 18 20 17 19 19 19 13 9 7 14 16 14 15 15 19 23 24 30 31 30 28 28 25 25 28 27 25 30 29 25 24 22 23 24 25 26
43 52 55 55 44 37 32 30 24 23 23 20 21 19 22 20 20 18 13 10 15 17 16 19 17 15 18 15 18 21 27 27 29 27 30 31 24 25 26 30 28 21 19 19 22 24 24
40 50 52 49 43 37 33 28 25 25 23 21 22 21 26 23 22 22 17 15 19 19 17 17 16 16 15 12 13 21 23 20 21 21 24 26 23 23 30 28 25 24 22 24 23 23 29
38 46 51 45 40 38 31 29 27 26 24 23 23 23 30 26 24 24 21 20 21 20 20 20 19 18 18 14 17 17 14 11 13 14 19 21 21 19 21 24 25 24 28 29 30 27 25
42 46 52 47 42 37 32 30 28 27 26 25 25 24 32 30 26 26 25 23 25 23 21 21 22 20 17 16 15 18 15 14 16 15 16 19 21 20 27 26 21 18 21 21 23 27 26

GFSGBSN_500_spd_006.txt.gz
Wind_Speed
30 28 26 26 26 24 25 27 28 29 29 32 32 35 32 28 26 30 30 32 30 34 38 41 44 45 47 48 46 49 51 53 58 61 60 58 61 62 57 55 51 45 38 38 39 40 34
32 31 28 28 27 26 27 28 29 29 30 32 35 36 33 29 27 31 31 31 31 37 39 41 44 49 48 46 43 49 53 57 59 63 63 62 58 63 59 57 52 44 41 41 45 41 36
38 35 32 30 29 29 29 29 30 30 31 32 35 37 34 31 28 31 29 31 35 37 42 44 48 43 41 38 42 47 53 60 59 60 61 62 61 65 62 58 54 49 46 46 45 41 36
43 41 38 34 32 31 31 31 32 31 31 32 35 38 34 32 30 29 32 34 41 42 43 45 41 36 33 39 45 45 50 53 55 58 64 65 64 66 65 60 54 52 50 50 41 38 35
45 44 44 40 35 33 33 32 33 32 32 33 36 38 32 31 31 32 36 40 43 42 40 39 37 34 35 40 44 49 47 59 61 63 57 66 68 67 65 62 58 57 53 46 42 36 40
46 45 45 44 40 36 35 34 35 31 32 34 36 36 31 30 31 31 34 38 38 39 37 37 38 37 34 38 42 46 48 44 50 57 63 66 68 68 66 63 64 60 54 43 38 39 39
48 46 45 45 44 40 37 35 35 32 32 34 37 36 32 29 29 31 35 37 38 41 37 39 38 37 35 38 42 42 36 36 44 50 60 64 68 71 66 61 58 55 44 41 37 40 40
54 47 43 45 46 42 39 36 34 33 32 33 36 36 33 29 30 32 34 37 40 43 39 37 37 37 34 35 36 32 34 35 37 40 51 57 66 64 59 56 55 52 47 41 41 39 37
54 54 45 45 45 43 40 37 35 33 31 33 36 35 33 29 32 32 34 34 39 39 35 35 35 33 34 34 28 27 30 35 31 38 50 50 63 64 52 56 50 53 46 43 37 35 36
58 56 48 44 45 43 41 38 36 33 30 32 35 34 33 28 30 31 35 35 37 29 37 40 37 36 35 28 21 28 29 35 36 40 43 49 59 60 59 53 48 48 45 43 36 35 36
55 51 53 44 45 44 40 39 35 34 30 30 35 33 32 28 28 32 38 33 34 24 40 38 35 31 30 25 17 24 28 35 41 33 52 47 59 52 52 50 43 45 46 40 36 37 34
56 57 57 43 43 44 40 39 36 34 30 29 33 32 31 27 29 33 36 32 34 27 37 35 33 26 19 20 22 26 27 32 42 48 53 51 53 50 50 42 42 49 45 40 36 35 31
58 57 55 45 43 43 41 39 36 34 31 28 32 29 30 28 29 31 29 32 31 25 31 28 22 25 19 20 26 23 27 42 41 50 51 57 42 53 50 42 44 49 43 37 35 35 27
51 58 55 46 42 44 42 39 36 33 30 27 31 27 31 28 26 29 26 32 29 25 25 26 24 22 23 27 26 25 36 42 30 56 50 50 41 51 59 44 45 48 43 39 35 29 27
46 53 56 49 42 42 41 38 34 32 30 26 29 25 29 24 21 22 24 28 18 20 22 32 17 16 23 28 26 30 43 33 39 60 44 45 54 33 51 51 41 42 42 40 34 28 28
47 54 49 49 41 41 40 37 32 31 29 25 26 22 26 20 17 16 19 18 13 17 15 14 6 14 25 27 29 40 46 31 52 56 47 30 41 46 47 46 41 39 37 38 33 28 26
49 51 56 48 43 41 39 34 32 30 27 24 24 20 23 18 15 10 16 14 10 15 9 6 11 17 25 28 35 41 45 43 52 48 46 37 48 49 40 41 46 45 42 38 32 31 29
53 50 55 50 47 41 39 33 32 29 26 24 22 19 20 15 13 10 12 12 9 14 4 9 9 19 23 28 36 39 42 43 45 47 40 38 36 46 46 41 34 38 40 31 36 33 28
49 49 56 46 49 41 38 32 31 29 25 23 20 18 18 12 10 7 7 14 10 6 6 12 12 17 17 28 36 37 41 44 45 43 41 39 42 42 42 45 46 45 30 28 27 27 30
52 50 51 44 45 42 36 32 30 28 24 22 19 17 16 12 10 8 8 13 12 5 6 9 10 9 14 23 31 36 41 39 35 33 38 40 38 39 38 36 36 29 31 29 29 32 27
53 51 52 52 45 42 36 32 30 28 24 21 18 17 14 11 11 8 6 11 11 14 6 6 9 9 11 17 32 33 37 39 37 32 27 32 34 34 35 35 37 38 37 38 35 32 31
51 53 53 48 48 42 37 34 31 27 24 21 17 17 15 14 15 12 5 7 9 12 16 11 11 11 10 14 16 23 33 36 35 35 33 29 29 30 30 34 37 40 40 39 37 36 31
51 55 52 48 48 44 35 33 31 28 22 20 18 17 14 14 18 13 9 5 7 8 14 17 14 14 15 23 29 24 26 29 23 20 19 25 29 32 33 34 36 37 40 38 37 35 32
48 46 55 53 52 47 44 38 31 26 24 21 19 17 14 14 19 15 12 4 6 11 12 14 20 15 23 32 37 30 32 31 29 24 21 19 23 29 31 36 38 33 34 36 38 36 34
53 43 47 55 53 54 48 38 33 28 25 22 21 18 15 16 20 16 14 3 10 13 14 15 22 17 27 33 36 32 29 33 28 30 23 23 19 18 20 25 27 28 29 30 28 24 26
52 46 43 47 54 54 46 36 32 29 27 24 22 19 17 18 21 19 17 10 13 12 17 17 21 23 29 40 33 29 25 24 29 31 25 25 24 19 26 16 18 19 22 25 26 21 22
54 50 42 47 51 50 45 42 32 30 28 25 22 21 19 21 22 21 21 16 19 16 21 19 20 25 26 31 34 34 29 29 26 27 27 25 32 24 21 20 21 26 23 24 25 20 19
55 51 43 50 46 41 40 37 34 32 30 28 23 23 22 24 24 25 24 19 21 23 20 18 17 21 28 15 17 19 24 31 27 25 23 22 26 24 22 24 23 26 29 26 25 25 26
54 50 43 50 54 47 44 36 36 33 32 27 25 25 23 26 27 26 27 22 21 29 20 18 17 19 17 24 17 17 22 22 22 24 24 28 25 22 23 24 21 17 19 20 26 29 31

GFSGBSN_500_spd_009.txt.gz
Wind_Speed
38 37 34 33 32 30 30 28 27 27 29 29 30 31 30 31 33 36 36 34 34 32 36 37 39 39 40 41 43 45 48 46 49 51 52 51 54 53 51 55 56 54 46 44 43 43 43
40 41 39 36 35 34 32 31 30 29 28 32 31 32 32 33 33 36 36 35 36 34 35 37 37 39 41 43 46 47 51 53 52 53 55 55 55 56 55 55 59 55 47 47 46 47 46
39 43 45 42 40 37 35 34 33 32 31 32 34 33 33 33 34 36 37 35 37 37 35 35 38 43 47 44 47 51 52 52 52 52 53 56 56 59 58 57 57 57 52 49 50 50 46
43 44 45 47 46 43 40 38 37 36 34 34 34 34 32 34 34 36 37 34 36 38 38 41 47 49 47 45 48 49 50 53 52 49 50 54 57 59 61 61 59 60 57 52 50 50 46
48 48 48 47 48 49 44 42 41 39 38 35 36 35 32 33 35 37 38 33 36 38 39 43 44 46 47 42 45 48 50 49 49 51 54 56 58 60 60 58 57 62 60 53 54 51 45
54 56 54 51 48 49 50 43 44 42 40 38 38 36 33 31 34 38 39 35 34 37 40 42 44 47 45 42 45 46 47 46 47 46 53 54 58 64 65 61 63 54 59 56 53 53 46
49 54 59 55 54 48 50 48 44 45 42 40 39 37 34 31 32 37 41 35 39 40 43 42 43 47 42 41 43 45 45 45 48 47 49 55 61 60 67 60 60 54 57 57 52 49 47
56 54 57 60 55 52 49 50 46 46 44 41 39 37 34 31 32 36 38 38 38 42 44 43 47 44 41 41 42 44 45 44 45 49 55 60 69 68 58 61 61 56 58 52 49 52 45
66 62 58 61 58 54 51 49 46 45 44 42 39 36 33 32 32 36 35 36 39 45 45 45 46 45 40 41 43 42 41 40 40 45 41 45 45 49 64 64 58 57 58 52 51 52 43
70 69 65 63 60 55 56 47 45 44 43 41 38 34 33 31 33 35 34 36 43 50 49 49 45 40 41 40 41 43 39 34 34 33 37 42 39 51 57 63 57 56 53 47 54 50 42
59 62 69 65 60 55 53 48 45 44 42 39 37 32 32 30 32 33 35 37 41 48 46 48 41 36 40 35 33 37 30 27 28 31 36 34 39 49 56 56 53 47 37 50 53 47 44
46 64 66 62 58 54 52 49 44 44 40 37 34 31 30 30 31 33 35 38 45 41 47 45 40 36 37 36 23 31 28 28 31 34 28 36 36 43 56 56 56 51 48 48 48 50 44
57 50 55 55 56 54 50 49 43 41 38 35 32 29 29 29 30 32 32 36 38 39 38 32 34 28 30 26 22 25 19 30 31 34 40 25 40 52 56 54 54 48 51 52 48 48 40
56 52 49 51 56 56 52 50 42 40 36 33 30 28 27 28 28 29 29 32 32 34 26 27 32 33 28 21 24 22 24 28 32 34 11 34 51 52 55 64 48 53 55 45 48 46 38
49 49 48 47 53 61 56 50 42 39 35 32 27 25 24 25 27 25 28 28 29 30 26 26 32 26 19 18 19 23 22 26 31 30 23 45 48 50 48 52 44 54 36 46 45 41 35
50 51 43 46 50 54 54 50 41 37 33 28 24 23 23 22 24 24 26 27 27 24 23 23 24 7 2 9 20 19 27 37 32 34 39 49 44 48 41 51 51 47 46 43 42 37 30
43 47 52 41 42 49 48 47 38 35 31 26 23 22 23 21 22 20 25 22 24 20 22 19 7 4 6 14 15 22 44 31 36 43 38 26 43 49 31 58 46 48 44 41 39 37 28
40 54 46 44 41 48 49 45 37 34 30 25 22 21 21 20 19 17 21 16 18 19 19 9 2 4 6 13 23 26 24 30 49 42 30 25 16 35 51 50 50 26 40 38 35 34 32
62 42 47 48 42 49 47 41 37 33 29 25 21 21 19 18 17 15 19 13 16 18 15 6 7 9 13 21 35 27 26 44 49 37 30 18 22 31 43 40 39 44 32 33 34 33 33
58 50 48 51 47 48 48 38 36 33 30 26 22 21 18 16 16 16 18 15 13 14 6 4 9 8 13 20 30 32 32 38 45 28 24 27 26 29 36 30 32 31 34 34 33 34 35
51 59 45 46 44 50 43 39 36 34 30 27 21 20 18 14 14 15 18 14 13 16 10 2 6 12 11 16 27 32 35 35 42 30 28 29 33 36 35 33 36 33 29 32 37 25 26
44 55 49 47 47 50 49 40 36 35 32 26 21 20 19 15 14 16 20 10 9 11 18 6 3 9 12 14 18 25 35 35 33 35 28 25 24 26 27 27 29 34 35 33 31 28 28
47 51 51 45 53 51 47 46 37 34 29 25 23 21 19 16 16 16 19 15 9 16 13 15 8 8 10 20 23 24 28 26 25 28 23 25 27 28 29 29 31 34 34 36 31 31 31
49 54 57 53 53 46 41 41 37 34 30 27 23 21 18 17 16 15 18 18 14 15 14 18 18 11 16 21 28 28 33 35 33 26 27 20 23 25 30 30 30 31 31 33 34 35 35
48 60 55 53 54 52 45 43 38 34 32 27 25 22 18 17 16 15 19 15 15 11 16 17 19 21 24 24 29 28 28 29 29 29 26 21 21 22 28 29 29 28 28 31 33 33 38
52 57 55 51 54 51 50 44 36 36 32 28 26 23 19 17 15 17 20 14 10 10 15 14 19 24 24 29 38 33 31 30 33 30 28 26 23 21 22 23 22 22 24 29 31 26 27
58 61 53 52 48 50 44 44 44 38 32 30 27 24 20 18 17 17 22 17 8 10 14 18 23 23 19 31 39 35 28 31 30 26 24 24 21 19 21 17 15 16 20 23 25 22 24
60 55 53 43 49 52 49 44 40 35 33 34 29 26 21 19 18 20 22 18 11 13 13 17 21 21 18 34 34 32 27 19 22 23 24 24 22 21 22 23 19 18 22 22 20 24 26
57 57 54 51 44 46 51 46 44 39 38 34 31 27 23 20 19 23 24 21 17 23 19 14 13 19 22 26 31 32 31 28 29 27 24 31 29 23 26 19 19 18 21 25 25 26 27

GFSGBSN_500_spd_012.txt.gz
Wind_Speed
35 33 36 38 37 37 35 34 32 33 31 31 29 29 30 30 30 29 30 31 32 33 35 36 37 35 33 33 31 39 42 41 42 43 46 46 46 46 46 47 48 48 46 47 43 45 47
38 36 36 38 40 39 39 37 36 36 34 34 32 32 32 32 31 31 32 30 32 32 36 38 39 37 37 34 36 39 38 41 43 45 47 47 48 49 49 51 52 50 50 48 47 45 49
42 40 39 38 41 44 44 40 39 38 37 35 36 35 35 33 34 32 33 31 32 30 35 38 39 37 38 33 38 41 44 45 47 47 49 52 55 56 56 55 55 54 53 51 49 49 49
40 44 43 43 42 43 46 47 45 43 41 38 38 39 38 37 36 35 34 32 32 30 35 36 37 40 39 40 44 46 49 51 51 51 53 56 58 59 58 59 57 57 58 52 46 53 49
36 37 43 47 48 47 46 48 50 48 47 45 40 41 41 40 39 37 36 33 32 30 35 36 37 39 41 42 45 52 50 50 52 52 52 54 57 57 55 56 55 57 58 52 48 52 52
46 47 46 47 48 50 52 50 49 50 50 48 46 42 43 41 40 39 37 36 32 30 34 36 40 41 43 45 47 47 49 50 51 51 52 53 54 53 55 56 58 56 56 55 51 47 53
56 56 55 54 53 51 51 56 54 50 50 50 50 43 43 42 41 39 37 37 35 34 35 39 41 39 45 46 44 47 50 50 48 47 48 50 53 53 50 48 46 48 51 51 50 51 51
62 64 65 65 64 61 55 52 55 53 50 49 50 45 43 43 41 39 37 36 37 36 40 40 41 41 45 43 43 46 46 45 43 43 46 52 54 46 46 47 48 47 50 49 48 48 51
70 72 75 76 76 69 62 55 53 54 51 48 48 48 44 41 40 38 35 37 35 38 44 43 42 46 44 44 43 41 40 40 41 43 45 51 45 49 50 47 48 51 49 46 48 38 48
76 77 82 84 83 78 69 61 55 51 50 53 45 47 46 41 39 37 35 35 35 39 46 46 47 41 40 42 38 34 39 42 43 40 44 49 46 50 54 57 55 53 47 49 39 41 50
75 72 71 74 77 75 68 63 59 53 52 52 42 45 44 39 35 34 34 35 37 42 47 44 47 44 38 31 32 30 37 44 41 41 45 42 41 45 52 55 61 61 47 47 55 36 45
67 67 60 62 63 55 58 62 59 54 51 49 45 44 41 36 34 32 32 34 37 42 46 46 41 35 32 33 35 35 34 35 37 38 38 34 34 38 36 39 51 59 56 46 51 47 49
55 53 49 55 48 48 54 52 54 50 50 47 46 42 40 34 31 31 31 33 37 37 40 41 38 34 34 36 37 33 35 27 28 33 36 29 28 29 36 38 49 58 52 53 39 43 48
46 45 46 49 52 42 51 39 45 48 50 45 43 42 39 33 28 29 31 33 35 33 38 39 34 33 35 40 23 19 26 26 29 27 24 25 30 33 34 45 53 59 57 51 56 59 56
37 38 41 50 57 36 45 48 50 47 48 46 42 42 33 30 25 28 29 30 31 32 34 35 31 35 32 24 15 17 23 22 19 21 22 13 15 28 36 42 56 63 64 24 25 28 43
33 34 35 44 40 43 44 45 50 45 46 46 42 39 30 28 25 26 26 27 29 29 32 32 30 27 20 12 9 15 21 15 17 24 22 9 12 18 35 51 58 55 41 36 36 39 31
29 27 39 52 32 45 47 44 48 48 45 42 40 36 29 26 24 23 20 24 23 22 27 27 22 17 12 5 3 9 11 16 19 26 10 15 19 29 41 49 44 29 48 47 29 33 32
21 27 41 48 43 53 42 42 47 46 48 41 39 35 28 25 22 19 20 20 16 17 22 23 11 9 7 7 2 6 10 14 18 14 16 21 31 33 42 55 40 31 40 45 47 29 30
23 33 55 34 46 43 39 42 42 42 44 40 38 34 28 22 19 18 19 17 13 14 19 13 2 11 14 15 14 19 17 16 15 15 24 26 19 32 32 40 35 34 38 43 32 32 28
27 43 46 42 37 33 33 33 35 38 39 40 38 33 24 18 19 19 19 16 13 13 16 6 5 12 14 19 16 15 15 10 16 21 21 7 23 10 25 24 35 40 37 30 32 31 29
31 45 47 47 45 47 37 36 26 44 38 41 36 29 21 19 21 19 19 12 11 10 17 2 6 14 11 13 15 19 15 20 31 23 14 17 7 12 14 32 29 23 20 26 32 27 28
36 47 46 49 54 48 40 37 35 46 43 39 34 28 21 21 21 20 16 12 10 6 15 12 10 13 17 15 17 16 20 24 26 20 13 16 21 20 22 29 27 25 26 28 30 30 29
34 54 44 48 46 45 38 35 25 47 42 38 31 26 24 23 21 19 15 13 9 9 14 13 11 13 20 19 20 16 19 17 17 17 11 7 12 17 20 18 16 19 21 22 21 20 27
34 54 50 52 52 41 37 41 44 43 40 36 30 28 26 22 20 18 15 13 12 15 18 10 14 15 16 23 24 23 22 20 21 20 16 12 16 17 19 19 20 19 20 22 25 26 24
36 54 53 55 48 42 44 31 40 45 38 34 32 29 25 21 21 16 14 14 11 15 17 11 20 16 13 18 26 28 29 30 25 24 22 20 14 11 15 20 20 20 21 23 25 25 29
45 50 56 56 50 41 45 40 46 44 38 36 32 28 25 23 19 15 14 13 9 13 10 12 23 20 14 17 23 28 31 34 31 27 23 21 20 20 21 20 18 19 19 19 22 24 27
46 61 63 55 48 43 48 43 43 43 37 35 32 29 26 22 19 15 13 12 11 9 9 14 19 23 25 24 21 25 28 29 28 26 26 24 22 21 18 16 17 15 18 18 18 20 24
49 58 59 57 51 43 46 38 38 43 38 36 33 28 26 22 19 16 14 16 17 10 8 14 18 23 22 21 26 28 23 18 23 23 23 18 18 18 17 12 11 15 16 12 14 17 23
47 57 58 53 50 45 49 40 40 38 37 33 32 28 26 22 19 17 15 13 13 9 10 10 16 18 22 20 27 30 28 20 16 23 21 20 19 18 16 13 15 7 18 15 17 18 20

GFSGBSN_500_spd_015.txt.gz
Wind_Speed
32 37 39 36 32 32 35 37 36 36 35 35 33 32 31 30 30 30 30 31 30 28 28 28 29 30 30 31 33 36 30 31 32 35 37 39 42 44 44 44 44 41 41 40 36 38 40
30 32 40 40 37 34 35 39 40 39 38 37 37 35 34 33 32 31 31 31 31 29 29 29 30 29 30 30 35 39 36 32 32 33 35 39 41 43 45 47 46 44 43 42 41 39 41
34 30 32 40 42 39 37 38 41 42 42 41 38 37 36 35 34 33 33 33 34 31 29 29 30 32 27 33 35 40 39 38 37 36 36 39 42 43 44 45 45 45 46 44 43 43 42
41 37 35 33 39 44 43 42 42 42 44 45 43 40 39 37 36 36 35 36 35 34 31 32 30 34 27 34 36 40 42 41 41 43 42 43 45 45 46 46 46 48 50 49 48 47 44
47 46 46 43 39 38 44 46 46 45 44 45 47 46 44 42 40 39 37 37 38 38 35 34 33 34 30 32 35 40 43 45 46 46 47 48 47 47 48 49 50 53 54 55 52 49 49
51 52 54 51 50 49 47 45 48 48 49 48 47 46 47 46 44 43 40 37 39 40 39 37 34 38 36 33 36 39 41 45 47 47 46 46 47 47 51 54 53 50 48 51 52 47 51
56 56 58 60 60 59 57 53 51 49 49 51 51 48 45 47 47 45 43 38 40 42 40 39 37 37 37 33 37 39 40 43 44 45 45 45 49 53 47 44 45 46 48 51 50 51 51
62 63 63 66 67 67 65 63 59 57 52 49 51 51 48 46 47 46 45 40 41 42 43 39 40 37 38 37 39 43 46 43 42 44 49 52 54 44 43 45 47 47 49 49 48 47 48
70 69 69 69 73 73 73 70 67 63 59 53 48 50 49 47 45 45 46 40 42 44 45 41 37 39 37 39 42 39 42 43 45 49 49 49 49 39 43 45 46 47 48 44 46 41 44
75 73 71 67 69 70 74 72 66 67 61 57 51 47 49 47 46 42 44 41 41 43 45 43 41 31 32 40 43 40 42 42 46 43 42 46 44 45 45 45 45 48 41 41 41 41 44
72 71 67 63 61 57 62 60 63 55 51 53 52 47 46 47 47 42 42 38 40 43 45 42 39 39 39 41 43 36 35 37 38 40 43 43 42 40 44 36 43 40 42 41 40 40 42
66 62 57 53 51 50 54 53 40 45 44 50 52 48 45 46 45 40 39 35 40 41 43 44 40 40 43 43 43 39 37 37 38 39 40 42 45 46 41 42 47 40 46 44 37 39 46
59 56 51 47 43 45 49 57 55 41 43 47 51 47 44 45 44 40 37 36 39 36 37 41 38 41 44 43 38 38 38 39 41 39 42 41 41 39 38 40 43 50 50 49 47 44 49
55 48 39 33 33 38 46 52 61 52 41 40 46 45 45 43 42 40 35 36 34 33 34 37 37 40 42 36 39 32 31 29 23 28 33 33 32 33 30 36 41 45 51 53 52 52 47
48 35 27 23 26 30 35 40 37 42 45 43 44 43 43 39 42 36 35 34 28 29 32 32 34 37 34 31 30 24 20 18 21 23 28 31 21 25 27 28 31 38 52 47 51 48 34
37 25 14 7 13 21 34 41 40 45 36 42 38 42 40 38 38 37 35 26 25 29 27 27 31 30 25 23 20 15 12 13 13 14 17 18 18 16 12 23 37 42 40 57 55 52 42
29 10 5 7 11 23 40 25 34 40 44 39 38 43 40 37 36 36 28 20 22 22 19 25 23 21 20 15 8 5 4 9 10 13 16 10 14 10 16 21 26 45 56 56 52 39 45
20 7 14 15 25 25 38 35 42 39 39 39 38 42 39 36 38 30 25 21 18 14 19 23 16 9 7 9 11 8 7 6 2 13 9 5 2 5 20 18 27 37 55 69 57 26 20
11 14 18 25 38 36 47 45 39 35 41 46 41 40 38 38 33 28 22 19 14 11 21 9 11 6 10 9 4 2 3 11 15 9 7 15 9 8 16 25 34 42 47 52 39 23 36
13 18 18 36 31 26 50 37 31 38 33 39 40 39 39 36 30 26 22 16 11 16 17 4 8 8 11 7 4 10 6 7 5 9 10 11 15 10 24 36 38 37 40 41 26 18 25
15 15 19 39 40 46 39 31 35 35 33 33 40 40 34 33 30 27 22 14 12 15 12 7 9 11 11 9 5 3 3 8 10 13 11 11 13 14 35 37 27 30 25 32 20 18 19
15 16 21 43 33 44 40 42 33 39 34 36 37 40 37 33 29 27 16 12 13 14 11 10 11 15 12 10 8 6 5 11 14 8 16 9 21 23 25 11 20 14 22 19 16 22 22
12 15 31 40 44 40 38 35 34 33 29 31 36 38 36 31 26 20 15 16 13 13 8 6 14 17 16 15 15 17 15 15 10 7 4 8 11 17 20 13 12 9 8 11 13 24 21
9 28 38 46 46 40 35 33 28 36 33 29 37 36 35 29 27 19 15 14 14 16 8 9 19 17 18 18 17 17 15 19 15 6 8 9 13 16 17 15 15 12 15 17 21 17 16
13 38 47 52 46 43 39 40 33 30 28 35 38 34 31 27 23 20 16 14 14 12 10 12 20 22 19 18 17 20 19 19 18 13 8 7 8 11 13 12 13 14 14 15 17 20 22
17 37 45 50 48 49 40 35 30 27 25 39 37 35 31 25 23 19 15 13 14 10 7 8 22 21 20 19 18 19 21 21 21 18 13 10 10 7 6 6 10 11 13 15 17 20 20
14 32 54 50 55 49 41 39 34 21 34 37 34 35 30 25 23 18 14 12 13 8 7 5 22 25 19 14 12 13 15 21 21 16 12 10 9 8 7 7 12 14 15 14 14 16 19
9 41 53 46 49 48 40 38 36 30 40 35 36 36 30 24 22 17 14 14 9 9 7 5 16 25 25 21 16 13 14 20 23 20 19 16 15 8 6 8 12 12 15 14 14 15 16
11 38 53 50 48 45 37 44 37 32 45 43 40 36 28 23 20 18 14 14 12 9 9 10 14 16 23 24 16 16 16 17 15 16 15 15 12 11 11 12 10 8 13 10 10 13 17

GFSGBSN_500_spd_018.txt.gz
Wind_Speed
44 41 37 32 32 36 37 34 33 35 35 35 34 32 31 30 30 28 27 26 27 28 28 29 28 28 27 29 31 28 24 28 32 34 36 35 41 47 45 45 44 41 39 38 36 34 35
36 42 38 34 30 32 39 38 36 35 38 39 38 36 34 32 33 32 30 29 28 27 28 28 29 29 30 30 33 32 29 27 33 35 34 35 35 39 43 44 46 44 42 42 40 38 39
40 36 39 39 36 32 33 41 41 37 37 40 41 40 38 37 35 35 34 32 30 29 29 30 30 30 30 31 33 33 32 30 30 35 36 36 36 37 38 41 43 43 42 41 43 43 41
46 43 38 40 41 40 36 35 42 43 41 40 42 44 42 41 39 37 35 35 32 32 31 32 31 30 30 32 33 33 34 31 32 35 38 40 41 40 38 39 40 41 42 43 43 44 45
50 48 45 44 44 46 44 41 40 42 45 45 44 43 44 44 42 41 38 36 34 33 33 33 33 32 31 32 35 34 35 34 34 36 39 44 45 45 45 44 44 45 46 45 44 44 46
53 54 54 55 52 49 49 49 45 47 43 45 48 47 45 44 45 44 43 41 39 36 36 36 36 35 36 35 34 36 37 38 36 36 38 40 48 50 50 47 46 45 46 46 48 46 49
52 55 57 58 60 60 58 54 55 54 52 51 47 49 50 47 46 45 44 43 42 40 40 39 38 38 35 34 36 38 39 40 39 39 38 42 46 49 46 47 49 49 48 49 50 53 53
63 64 62 62 63 66 66 65 62 57 57 57 55 51 48 51 50 47 44 42 44 45 41 40 41 40 41 39 36 38 40 42 43 41 45 48 45 43 46 48 49 49 50 49 51 52 55
74 76 75 70 65 63 65 69 68 63 60 58 58 56 53 49 49 48 47 43 42 44 44 41 43 41 40 41 40 41 40 42 41 44 46 45 44 47 49 51 53 53 52 49 49 46 51
80 81 77 70 65 58 60 60 65 63 58 57 58 59 57 53 47 44 45 44 41 40 45 42 44 42 38 37 40 44 45 43 42 40 44 48 47 48 48 50 48 49 44 43 45 46 50
78 69 64 59 56 51 49 53 56 57 50 49 52 55 57 53 49 44 44 42 42 40 44 45 44 39 39 42 46 44 45 46 44 43 46 45 43 45 48 40 42 43 41 43 44 45 48
67 60 51 48 45 45 41 42 48 50 42 42 46 47 51 52 49 45 41 41 40 41 45 43 38 41 43 43 45 45 45 45 43 41 44 45 47 48 46 43 45 44 43 44 44 44 52
57 53 50 43 37 37 32 36 44 43 40 48 45 42 41 50 49 45 41 39 39 41 39 37 38 41 41 43 45 45 43 41 41 39 42 43 43 43 42 41 41 43 43 46 48 49 55
55 53 40 27 24 20 22 30 40 45 44 43 38 40 41 44 46 43 40 38 39 38 34 33 39 39 39 41 41 41 43 36 33 36 38 39 39 38 35 36 40 40 41 45 46 48 44
56 45 24 6 15 12 17 20 34 51 47 42 39 28 38 43 42 41 41 37 35 31 29 34 35 37 36 34 38 38 32 29 25 18 17 22 25 27 35 31 30 30 37 33 41 43 43
54 33 1 17 15 8 10 15 34 54 52 50 39 31 34 36 40 40 41 36 31 26 31 30 31 34 27 29 31 27 20 14 10 13 17 20 25 28 33 35 36 35 31 39 42 42 43
49 24 18 9 7 5 7 18 34 60 43 38 30 40 37 37 40 42 41 31 25 28 27 27 28 24 17 12 8 12 12 9 8 13 14 10 16 19 27 28 29 35 37 38 41 43 45
44 11 18 12 14 12 24 23 38 55 49 42 48 44 34 37 39 41 38 25 28 26 26 25 21 17 6 5 4 5 9 9 3 3 7 13 17 15 18 20 25 33 37 36 44 45 46
41 15 14 18 16 27 27 37 47 44 49 42 37 43 41 41 38 37 29 28 26 24 23 22 18 15 14 13 5 6 7 16 15 16 8 8 8 5 7 10 12 23 29 36 38 43 38
39 18 14 12 24 26 40 34 39 47 45 36 48 44 41 43 41 28 31 25 24 23 22 17 19 16 18 15 7 10 14 14 20 11 12 12 3 13 5 3 4 7 27 37 42 46 32
36 17 9 27 25 34 33 41 47 42 46 43 37 37 35 42 34 32 26 24 23 22 18 19 18 17 19 17 12 10 8 9 13 8 6 9 13 20 5 5 8 14 22 41 50 47 16
32 7 23 33 29 32 36 38 40 36 41 40 39 36 28 32 34 30 26 22 23 23 22 17 15 17 13 15 12 6 5 4 5 2 5 17 19 9 11 21 19 23 34 41 38 27 11
26 4 26 33 32 35 39 35 37 36 41 38 41 35 31 30 30 28 23 24 24 19 18 17 15 15 13 15 9 7 6 6 3 9 10 9 21 12 13 11 24 26 23 19 19 15 24
23 7 32 38 42 45 41 31 36 37 40 33 30 30 33 31 31 23 24 26 20 19 20 13 15 16 22 18 15 14 12 10 5 5 9 12 19 22 21 11 10 11 19 15 16 17 15
19 17 36 43 44 41 37 36 39 35 35 30 28 30 29 36 29 25 25 23 22 18 19 14 11 18 22 22 22 19 17 13 6 9 9 12 14 16 14 12 13 14 16 16 20 17 18
14 22 40 41 42 38 37 36 30 30 34 25 25 28 36 30 29 27 23 20 17 16 18 12 15 22 24 20 19 20 19 15 10 10 8 7 8 6 6 8 8 8 9 9 11 13 12
15 31 42 40 45 39 36 34 33 30 31 27 28 30 29 29 26 24 21 20 16 17 19 14 14 23 24 19 16 16 20 20 16 14 10 6 6 5 5 4 7 8 9 11 13 14 17
13 29 47 41 49 45 38 33 36 27 28 20 26 32 30 26 25 22 19 16 16 16 16 13 14 27 22 17 13 10 12 17 19 16 14 11 9 7 6 5 4 6 11 13 13 13 13
11 26 51 49 54 48 37 34 33 33 24 23 29 29 28 26 23 19 17 16 20 11 8 11 13 26 23 18 13 10 7 8 13 18 21 18 13 13 11 5 5 5 6 9 10 11 13

GFSGBSN_500_spd_021.txt.gz
Wind_Speed
39 37 38 38 36 42 36 35 33 39 37 34 36 36 35 34 31 29 27 26 25 25 25 27 27 27 27 27 28 27 25 27 29 29 30 31 33 38 40 44 51 53 43 41 39 37 35
42 42 41 40 39 36 38 35 33 37 41 36 35 38 38 36 34 32 30 28 26 25 25 25 25 26 27 27 27 27 27 27 29 31 31 32 34 36 37 38 41 52 51 45 43 39 39
40 41 40 37 34 35 36 39 37 33 40 41 38 37 41 39 37 35 33 31 29 28 26 26 25 25 27 26 25 26 27 28 29 30 32 33 33 35 35 37 38 38 47 50 47 45 42
42 42 42 44 43 39 36 40 38 39 38 42 43 41 40 41 41 39 37 36 33 31 29 28 27 26 26 27 25 26 27 28 29 31 33 34 35 36 38 38 38 40 43 45 44 43 44
44 45 45 45 45 46 46 44 41 42 42 42 44 46 44 41 42 42 41 39 37 34 31 30 29 27 27 29 28 27 29 31 31 32 33 36 37 35 38 41 43 42 40 41 44 43 47
49 50 53 54 53 52 50 49 50 46 46 46 47 46 48 47 43 42 43 42 40 37 35 33 30 30 30 29 31 30 30 31 32 33 35 38 39 39 38 38 43 43 47 46 47 48 48
59 61 62 63 63 63 60 58 54 54 52 49 51 51 46 51 49 46 43 41 41 41 39 38 36 33 32 31 33 34 33 32 34 34 38 41 42 42 37 37 41 49 54 53 53 53 52
65 70 72 73 75 74 72 68 63 57 59 55 54 55 53 49 48 50 47 43 42 42 40 40 39 37 36 34 33 36 34 35 38 38 42 44 43 43 44 45 46 48 52 55 54 52 57
71 74 80 83 81 79 73 66 64 59 60 60 58 57 59 56 52 49 47 48 47 44 42 40 41 39 40 40 38 36 40 39 40 42 43 42 42 44 48 48 47 46 48 52 53 52 56
77 86 85 74 67 64 62 57 53 58 60 60 60 56 57 60 59 52 46 46 48 45 44 41 40 41 41 43 43 44 41 41 42 45 48 48 46 46 46 46 46 47 48 52 54 56 57
87 87 72 63 57 52 48 51 45 49 56 58 58 61 47 61 58 52 48 49 44 42 45 42 41 40 40 40 43 42 43 44 45 47 50 49 49 49 52 50 51 52 50 53 55 57 59
89 76 63 58 53 46 40 40 40 42 50 54 53 48 48 48 57 54 54 50 43 41 42 38 37 37 38 41 41 41 44 46 48 51 51 49 50 52 49 48 50 49 50 51 53 55 63
79 63 61 52 40 29 19 24 27 34 44 52 59 49 45 43 43 49 53 50 46 44 38 37 37 39 40 39 38 38 43 47 49 51 51 51 49 50 50 49 50 49 46 48 51 56 65
68 60 55 36 7 12 14 15 20 25 38 48 58 50 46 36 38 44 51 50 48 42 38 38 36 36 35 33 33 40 42 43 46 49 50 50 49 46 43 44 42 43 40 43 47 53 57
63 59 49 3 10 14 9 4 13 11 33 49 58 49 45 39 37 39 46 49 44 39 37 35 35 35 30 30 34 34 35 36 34 31 30 30 26 21 28 34 39 37 38 33 40 46 49
60 55 25 10 9 9 3 8 11 14 43 58 58 46 42 43 37 38 43 46 43 39 35 32 33 31 27 29 25 17 17 16 13 12 16 15 18 21 24 26 30 31 33 32 34 35 39
59 53 23 18 12 1 9 5 5 28 53 67 46 48 39 40 43 40 45 42 40 36 32 32 29 27 27 21 12 12 12 11 11 14 13 16 20 18 25 25 27 34 38 42 40 38 35
57 51 30 26 24 15 12 12 17 37 48 54 49 50 40 42 36 36 43 41 38 34 33 28 25 27 19 13 14 13 14 17 20 21 20 21 24 22 21 27 27 33 34 33 37 38 37
57 49 31 21 21 18 16 11 29 51 44 47 48 19 32 41 29 31 32 30 31 31 28 25 26 21 15 13 20 15 17 19 22 24 18 21 24 27 19 19 21 38 32 36 33 34 38
56 47 27 11 9 6 15 12 41 49 45 51 44 24 40 35 33 29 23 27 28 26 26 26 21 15 15 17 22 20 15 16 19 19 18 24 24 24 25 25 16 8 19 26 28 35 33
55 43 22 10 14 20 13 20 42 50 48 45 32 19 31 37 32 27 28 30 26 26 27 23 15 13 17 17 23 22 16 11 14 13 11 16 21 26 18 9 12 9 3 11 18 19 29
53 38 16 9 14 16 23 27 31 37 36 32 25 29 34 31 29 25 25 22 23 28 24 17 15 17 15 15 22 22 14 5 6 7 11 14 23 19 11 8 6 5 5 20 27 27 26
51 33 12 18 19 24 27 31 37 34 36 34 31 34 28 24 28 29 22 21 23 21 18 17 20 16 14 18 16 13 10 6 5 14 9 12 16 15 5 1 4 16 22 18 24 27 12
48 27 18 27 24 28 35 42 37 38 40 23 29 28 24 25 26 24 23 23 20 17 18 20 22 16 14 17 15 14 11 7 4 6 8 12 13 9 10 8 7 4 8 8 10 8 11
43 20 31 33 32 32 34 33 29 32 24 31 28 29 28 21 20 24 19 23 20 20 19 20 12 14 16 16 18 17 15 7 2 7 8 9 14 10 10 12 11 10 16 17 21 21 21
39 14 35 36 32 34 34 32 29 27 32 29 21 29 27 26 18 29 23 22 21 21 19 17 18 16 13 19 23 19 16 7 5 7 7 6 5 7 7 11 9 10 11 13 16 18 19
38 13 35 39 36 35 33 23 31 39 33 30 24 23 21 27 24 28 24 20 19 19 18 19 18 17 17 21 22 21 20 13 12 10 8 6 6 7 5 4 7 3 2 4 4 11 13
45 14 35 43 41 38 30 24 28 32 32 21 19 23 19 24 26 26 21 20 18 18 18 19 20 17 18 20 18 19 23 21 18 17 11 6 5 5 3 3 2 3 4 3 3 2 1
46 15 33 43 46 44 33 30 27 32 35 24 19 21 22 27 23 23 25 20 20 18 17 14 16 16 17 19 17 16 16 19 23 22 19 14 10 8 6 4 3 4 7 9 8 7 8

GFSGBSN_500_spd_024.txt.gz
Wind_Speed
34 33 32 33 34 33 33 31 32 32 37 36 38 38 38 37 37 36 35 32 30 28 27 29 32 32 31 30 30 29 30 29 27 26 27 25 25 27 29 30 33 40 43 45 42 38 39
36 37 38 40 39 38 36 35 35 34 32 37 35 38 39 37 38 38 36 35 32 30 27 26 28 29 29 29 28 25 26 26 25 26 24 24 27 28 28 30 32 35 39 40 45 48 42
36 38 38 38 40 41 40 39 37 37 34 36 36 36 42 37 38 40 39 37 34 33 29 27 26 26 26 26 26 25 25 25 24 26 26 26 28 30 29 30 32 33 36 39 37 40 50
41 41 41 42 41 41 43 44 44 42 40 36 40 38 40 42 38 40 41 39 37 35 32 28 27 25 25 24 23 23 23 23 23 24 25 26 28 29 31 32 33 34 36 36 36 35 45
46 48 48 49 50 51 49 47 46 46 45 44 39 43 42 44 44 40 41 42 41 38 35 32 29 27 26 25 23 23 22 22 22 23 25 26 27 29 33 35 35 35 36 38 39 39 42
51 54 55 58 60 61 62 60 57 54 50 47 47 44 48 45 47 46 42 42 43 40 38 34 32 30 28 27 26 25 24 24 24 23 24 27 30 31 33 35 36 37 40 40 42 43 46
56 60 63 65 67 72 75 73 69 62 56 52 49 51 50 51 48 50 48 42 41 42 40 39 35 33 31 30 28 27 26 25 26 28 27 29 32 32 33 36 39 42 44 44 42 46 50
63 68 71 74 78 78 73 71 70 65 59 54 54 54 60 52 52 51 50 48 42 41 41 40 38 36 34 33 31 30 29 30 31 31 32 33 34 36 39 41 43 44 46 48 47 45 48
66 69 74 80 82 74 63 54 52 53 53 49 59 58 62 54 46 57 49 49 47 44 42 39 38 37 37 36 34 33 33 34 34 37 38 41 40 41 42 44 46 46 48 50 51 50 51
70 74 81 85 76 63 60 54 47 45 45 44 58 62 64 51 44 56 55 48 47 47 45 40 39 37 35 35 35 36 36 38 40 41 43 43 41 44 46 49 51 51 52 53 55 56 53
75 82 87 79 64 64 55 43 35 35 39 38 50 62 66 48 45 52 53 51 48 42 45 44 41 37 37 36 35 36 38 39 40 41 42 42 44 47 50 50 54 53 53 54 56 58 58
78 86 87 70 64 50 32 22 19 21 29 37 47 58 67 65 50 46 45 51 51 47 45 39 39 38 37 37 37 37 36 38 38 40 43 44 48 50 52 52 55 55 55 57 58 59 64
82 89 80 61 51 20 11 13 17 21 23 32 43 53 60 57 51 44 47 50 50 51 45 36 32 33 33 33 34 34 35 35 36 40 44 48 50 54 55 54 55 54 53 54 58 62 66
84 89 73 60 22 11 3 6 11 22 24 21 37 50 58 61 47 47 46 47 51 49 44 38 35 31 31 32 32 29 29 31 37 43 44 45 45 46 46 45 45 50 46 47 50 57 61
84 88 70 57 18 11 5 6 16 19 15 12 34 50 62 48 51 43 40 42 46 47 42 37 35 33 31 32 29 27 28 31 29 25 25 24 19 21 18 24 29 36 45 41 41 44 48
86 87 67 55 21 16 9 12 10 13 12 16 37 52 58 49 41 44 35 34 34 42 40 37 35 34 33 32 26 27 26 21 17 19 24 23 25 22 26 28 29 31 29 34 44 43 44
86 85 66 53 28 25 16 15 13 7 15 28 50 55 52 50 47 43 29 30 31 37 39 38 36 34 32 25 25 25 21 15 17 21 25 31 33 30 31 31 32 35 34 35 35 42 46
86 84 63 51 30 17 23 15 8 13 13 36 59 49 45 38 37 43 24 22 27 37 38 36 35 34 26 26 24 21 19 19 18 22 27 31 36 32 33 30 30 33 35 34 38 41 44
86 81 59 46 27 9 10 14 6 5 9 39 50 39 38 29 38 31 30 28 28 34 36 35 34 30 25 23 19 18 21 17 19 23 27 26 31 37 35 33 33 33 34 32 35 34 35
85 77 54 37 22 4 7 7 5 5 27 50 38 25 42 43 36 24 20 22 30 29 32 33 29 25 24 18 16 18 17 17 19 20 26 30 29 30 35 36 35 31 27 23 24 34 25
83 71 46 25 15 6 12 8 0 15 42 34 24 16 28 34 33 21 22 23 26 26 28 28 25 22 18 13 14 11 15 18 18 18 19 22 21 22 16 16 26 21 12 13 7 3 16
81 65 39 16 7 5 10 13 17 40 35 32 23 27 35 36 32 24 21 24 27 22 21 23 19 20 16 11 12 11 13 13 15 13 12 16 13 16 16 20 23 23 20 15 7 11 11
78 58 33 12 5 3 12 16 24 28 31 36 13 21 26 31 26 19 20 18 17 20 20 18 19 19 14 10 9 13 9 9 5 12 9 9 9 15 15 15 12 11 9 11 21 14 15
76 52 27 5 4 7 11 28 28 27 33 23 18 14 20 18 23 24 18 15 16 18 16 18 18 17 16 11 11 9 7 5 5 5 4 6 9 11 16 14 14 18 3 2 4 11 6
74 48 16 6 6 8 18 34 31 27 30 16 14 18 17 19 21 23 15 13 16 14 12 13 13 13 15 12 11 10 7 7 2 2 7 9 11 13 15 15 18 19 26 20 13 12 20
73 47 9 15 13 24 25 31 24 23 22 14 16 17 19 15 16 21 19 15 15 15 11 10 12 13 7 10 12 12 11 12 7 3 5 3 5 8 9 12 14 16 16 19 23 27 25
71 49 10 26 20 26 29 26 24 20 24 23 17 15 19 19 17 14 18 15 15 16 10 13 12 10 11 11 11 14 15 13 12 9 5 4 5 4 6 7 9 11 12 12 9 15 17
69 48 16 32 28 30 32 29 28 27 21 24 17 13 20 20 18 14 20 16 14 14 12 14 13 14 13 12 13 17 15 16 17 16 11 6 4 2 2 3 4 3 7 8 9 7 9
67 54 20 22 31 30 29 27 24 27 27 27 19 16 17 13 19 16 24 18 15 12 12 14 13 13 16 14 16 17 14 18 20 17 18 13 9 7 5 5 6 4 2 4 8 10 10

GFSGBSN_500_spd_027.txt.gz
Wind_Speed
32 31 32 33 35 35 35 35 34 32 31 31 30 31 38 36 39 38 37 35 35 34 34 33 33 34 34 36 38 40 40 38 36 34 33 33 28 27 26 23 23 24 24 26 30 31 31
36 36 36 36 37 38 39 38 37 37 37 34 34 33 37 38 38 39 37 36 38 36 35 33 31 31 33 34 36 34 36 35 34 33 32 30 28 27 25 23 23 24 26 27 29 30 36
39 40 40 40 39 40 41 42 43 41 41 40 39 36 36 40 36 40 38 38 37 38 37 34 30 29 30 31 34 34 35 35 33 31 31 30 28 27 26 24 24 25 26 27 27 29 32
43 44 44 47 46 47 47 47 48 49 48 46 44 39 38 39 41 36 41 37 39 39 38 34 31 28 27 28 30 31 31 32 31 30 29 28 26 25 24 25 26 26 27 26 27 29 29
46 47 48 50 53 53 54 57 57 55 55 54 51 46 41 41 45 41 41 41 39 41 39 35 32 29 28 27 26 26 26 28 28 27 26 24 22 22 24 25 26 26 28 29 30 32 31
50 52 54 56 56 57 61 68 72 70 67 57 54 53 48 44 47 46 43 45 40 40 39 37 33 32 30 27 26 25 25 24 24 23 23 22 23 24 25 24 26 29 31 33 34 34 35
53 57 59 62 65 71 74 76 76 74 71 61 52 56 53 49 52 51 50 42 46 38 37 37 37 34 32 30 29 28 26 24 23 22 23 24 24 22 25 27 30 32 34 37 39 40 39
57 58 60 62 68 74 80 78 69 56 51 51 43 58 60 57 55 44 54 48 44 42 38 41 38 36 34 33 30 29 26 24 24 22 23 24 25 26 28 30 33 36 41 45 48 46 50
59 62 63 69 77 84 78 65 58 50 43 43 41 53 63 65 62 46 55 50 43 45 43 39 39 37 36 35 32 30 28 26 26 25 26 27 29 31 35 38 40 43 46 47 49 50 52
63 66 69 78 85 86 67 55 41 32 26 30 35 41 59 64 54 44 53 53 45 43 47 41 38 37 36 35 34 32 31 29 28 28 31 32 35 38 41 44 44 48 48 50 53 56 56
66 69 76 84 90 74 58 39 22 18 26 22 26 35 50 60 64 50 39 32 41 45 45 46 43 36 34 34 31 30 30 30 29 31 33 35 36 39 42 43 48 50 52 54 56 58 59
69 72 80 88 85 63 44 30 25 12 19 27 18 34 41 55 64 52 45 40 42 44 46 43 43 38 35 33 31 30 30 30 30 32 34 36 40 42 43 45 50 53 55 57 59 60 64
70 76 84 91 76 54 31 20 16 14 17 23 21 29 37 50 66 49 48 38 44 46 45 39 35 36 35 33 31 30 30 30 32 34 35 37 37 40 43 48 52 56 58 60 61 63 67
72 80 87 92 70 44 24 13 17 20 25 24 12 19 35 45 62 41 46 41 45 41 42 39 32 32 29 28 28 28 28 28 28 28 31 32 32 33 37 38 37 30 28 32 38 45 52
74 84 90 88 64 39 20 20 19 16 32 23 14 14 36 67 58 43 43 49 44 39 34 38 36 32 25 23 23 24 25 22 23 25 29 29 30 32 28 28 32 33 34 30 37 38 42
76 86 94 83 58 33 20 17 15 14 22 28 9 20 42 72 52 38 50 43 35 31 33 35 38 33 29 26 24 25 22 21 22 24 28 26 27 22 24 31 35 40 40 40 40 42 45
78 88 95 77 50 29 14 14 10 7 15 25 5 31 42 53 34 45 42 37 34 29 28 34 34 33 31 29 29 22 17 20 20 27 24 26 24 26 30 30 36 42 47 45 43 44 46
80 89 93 68 39 26 4 13 2 10 11 8 18 43 52 50 54 40 37 29 23 21 27 33 37 33 32 30 29 16 17 21 24 23 24 24 28 28 29 34 38 38 39 41 43 39 44
81 90 89 56 33 23 4 14 9 11 9 7 32 55 44 35 36 36 34 27 23 24 26 33 35 35 34 31 21 17 20 26 21 23 20 22 26 27 24 22 25 31 28 32 31 36 31
80 89 81 44 29 22 21 15 13 14 8 35 46 32 30 32 38 34 28 23 20 22 29 31 32 32 30 22 19 18 23 23 20 19 19 22 20 22 19 17 18 24 21 17 22 31 23
79 87 73 34 24 18 19 19 11 11 31 45 30 22 26 31 33 34 30 17 13 19 24 27 29 28 23 18 19 20 20 17 15 13 15 16 12 13 13 14 17 22 26 18 8 5 5
76 83 67 27 21 13 9 11 13 21 39 31 17 32 41 26 32 27 23 22 22 23 23 22 23 22 20 18 19 16 13 11 10 11 13 11 9 12 15 15 16 16 15 12 7 6 2
72 77 62 21 24 15 10 18 34 30 24 17 16 23 19 20 29 17 15 18 21 21 17 18 20 20 19 18 14 13 10 9 7 8 5 8 10 12 13 14 18 16 3 4 7 3 4
68 72 61 19 18 8 29 29 30 27 23 17 17 21 22 25 23 21 16 18 18 18 17 14 16 19 17 19 9 9 8 8 6 3 2 5 10 13 16 17 21 18 6 7 10 6 4
64 67 61 20 10 14 32 19 15 15 17 17 19 16 18 23 23 17 23 19 15 15 11 10 12 14 14 15 8 9 11 11 5 3 6 4 7 11 15 18 19 23 20 12 10 12 13
60 64 62 23 6 12 23 25 20 19 19 9 10 14 14 20 22 24 13 15 18 17 14 8 8 10 13 6 7 11 14 11 6 4 4 2 3 7 10 13 17 21 23 22 21 22 17
58 62 62 32 7 12 26 30 18 15 21 12 11 11 13 17 15 17 16 10 17 17 16 7 5 10 14 1 6 12 16 14 10 7 4 1 1 4 7 8 10 12 13 15 15 18 16
58 61 63 45 14 23 26 29 21 20 18 14 5 10 10 12 12 12 11 14 14 14 18 5 7 8 9 4 4 9 18 17 13 12 10 8 6 5 3 6 6 4 4 5 7 8 8
59 61 65 56 15 30 34 30 25 21 16 13 13 10 13 16 9 11 13 17 14 14 15 8 7 6 8 9 8 9 17 20 20 19 17 15 10 7 5 6 5 3 3 3 1 4 6

GFSGBSN_500_spd_030.txt.gz
Wind_Speed
42 34 31 32 33 32 33 34 36 35 34 35 35 33 32 30 30 34 36 35 37 36 34 33 34 33 35 36 38 38 40 41 41 43 43 38 37 39 37 34 31 29 25 25 25 26 27
45 41 37 36 36 37 37 38 38 40 42 39 39 38 37 34 34 32 36 33 38 37 35 34 34 33 34 35 37 37 39 40 41 42 42 39 38 39 37 35 31 28 25 25 25 25 26
49 47 45 44 44 43 43 42 40 40 41 42 44 44 43 41 38 37 35 34 38 38 36 35 34 33 35 33 35 37 39 40 41 41 41 39 38 39 36 35 32 30 27 25 24 25 24
49 47 45 44 45 45 46 46 46 47 47 49 51 47 49 46 42 39 40 37 35 39 36 37 35 34 34 32 33 36 38 39 38 37 38 37 37 36 36 34 32 32 29 28 24 24 26
50 48 46 47 50 51 50 50 51 53 58 60 59 58 55 51 49 44 43 40 37 39 37 38 36 33 34 29 29 34 36 36 36 36 36 36 36 35 34 33 32 32 29 28 28 28 27
54 50 49 50 52 53 58 63 67 74 73 72 68 61 59 57 54 50 46 43 44 39 39 36 36 35 34 29 28 29 29 30 32 33 33 33 32 32 32 30 30 30 29 28 28 28 28
59 54 52 54 54 57 63 69 76 80 73 64 56 55 49 56 58 57 46 38 48 44 38 33 37 36 33 31 29 28 26 26 27 28 28 29 29 28 28 28 27 26 27 29 29 30 32
62 57 57 57 60 66 73 79 76 64 57 50 45 41 44 50 62 61 49 48 45 38 40 39 39 39 35 34 31 28 26 24 24 24 25 26 26 25 25 25 26 27 29 32 35 37 40
65 61 61 63 68 76 83 77 58 46 32 24 22 25 35 48 60 60 54 52 44 43 41 43 38 39 37 35 32 28 26 25 25 25 25 25 24 24 25 26 27 30 34 37 41 44 48
69 66 65 69 76 83 82 61 41 29 19 19 25 22 29 44 50 62 64 44 44 36 44 44 40 39 38 36 34 31 28 26 25 25 25 25 25 26 27 29 33 36 39 44 48 52 54
72 70 71 77 83 90 69 47 27 17 20 17 24 36 21 38 42 55 57 50 40 35 44 42 45 38 37 37 33 32 30 28 27 26 26 27 27 28 31 34 37 39 44 48 51 55 58
74 74 76 83 90 81 54 39 21 14 16 20 26 20 18 34 41 62 54 38 44 37 44 39 43 40 34 34 34 32 30 29 27 25 25 26 27 30 34 37 41 45 47 49 52 56 62
77 76 82 90 94 65 45 28 10 13 17 28 22 19 12 32 54 72 49 42 42 39 38 40 36 40 35 31 31 30 28 25 25 25 26 27 29 32 32 36 39 42 45 50 54 55 58
79 79 87 95 85 53 41 20 6 11 18 16 23 16 10 33 62 67 47 41 45 44 39 34 34 36 37 34 31 29 26 25 26 27 28 29 27 26 29 32 35 39 40 39 40 44 44
80 80 89 97 71 48 39 5 3 9 16 24 17 13 16 40 64 64 51 39 41 39 33 28 33 30 30 34 31 28 27 28 28 27 27 25 22 23 24 27 29 33 33 39 46 49 52
81 81 90 94 59 44 32 3 5 6 10 26 16 2 27 47 76 61 37 32 35 34 29 28 28 29 25 26 26 27 27 25 25 24 22 21 22 19 22 26 32 35 38 39 44 50 51
80 81 90 87 51 44 21 11 6 7 13 14 5 8 34 58 74 49 41 38 37 33 29 26 27 30 29 25 25 23 23 23 22 20 21 19 19 18 20 28 34 37 37 40 42 50 51
78 79 87 78 50 39 16 14 9 12 10 15 4 16 44 67 50 49 47 38 31 29 24 23 25 33 31 26 26 25 22 19 19 19 15 16 17 16 22 27 28 33 34 37 39 43 39
74 77 83 67 47 28 18 10 11 11 10 8 16 33 50 51 50 51 46 34 27 25 22 21 28 30 34 32 30 24 19 19 19 15 14 14 13 21 20 24 27 28 24 30 37 39 40
71 74 78 59 43 25 21 13 11 9 14 20 28 48 52 40 37 45 38 30 29 24 22 27 32 34 33 31 26 20 19 20 16 15 14 14 16 17 15 14 21 23 24 25 29 31 30
69 69 72 54 41 24 26 22 19 24 31 34 31 37 37 35 25 28 31 25 19 18 22 26 32 33 32 27 23 19 20 16 16 16 14 12 16 13 16 17 19 25 28 24 25 26 26
67 67 67 49 34 22 17 29 31 32 26 23 20 33 31 24 25 28 27 19 18 17 20 26 31 29 23 19 19 19 17 15 15 15 10 11 11 10 9 14 14 15 15 17 19 19 24
65 63 64 47 24 13 28 25 25 23 17 18 32 27 30 29 29 28 23 17 13 16 20 24 23 19 19 18 19 16 14 16 15 10 8 6 1 2 6 8 11 11 14 16 22 20 15
62 60 59 53 12 16 18 19 19 20 19 18 22 26 21 24 23 19 18 17 16 18 18 16 15 17 18 19 17 15 15 16 13 8 6 3 3 4 6 9 12 11 12 12 17 19 11
60 60 56 56 14 9 12 12 15 15 14 13 15 24 18 23 18 17 15 17 20 19 17 15 15 17 19 16 16 14 17 16 13 10 9 6 2 2 9 12 12 12 16 15 13 14 14
58 59 56 55 41 11 17 15 7 14 12 14 14 16 22 21 14 18 19 21 19 20 18 15 13 13 14 13 16 18 18 16 15 14 12 6 3 3 7 9 11 13 13 19 20 18 15
56 59 58 55 50 12 31 26 19 12 6 10 15 15 16 17 15 19 15 15 18 19 17 12 10 10 11 13 17 19 20 19 17 14 12 6 4 5 7 12 13 10 11 11 10 16 15
56 59 59 57 54 13 28 35 28 19 13 8 10 14 15 15 17 21 14 15 19 21 18 9 7 7 13 13 14 19 23 20 18 14 11 8 4 2 5 7 9 11 10 8 7 8 9
54 58 59 57 55 18 30 38 33 23 21 15 11 11 13 13 15 16 15 13 20 19 17 8 5 4 15 13 8 17 22 22 19 15 13 11 8 3 1 5 7 6 7 8 7 4 4

GFSGBSN_500_spd_033.txt.gz
Wind_Speed
48 48 47 46 43 40 39 38 38 38 40 43 42 40 38 36 35 35 35 34 40 43 42 41 39 38 37 37 38 38 41 44 45 45 44 41 42 44 45 41 39 37 38 37 34 33 33
51 49 49 49 48 45 45 44 42 42 43 43 45 47 44 42 40 38 38 38 34 39 42 42 40 39 38 37 35 36 38 41 42 43 44 42 43 46 45 44 38 39 39 34 33 30 33
53 49 51 50 49 49 48 48 48 46 45 46 48 48 52 49 45 43 40 40 39 36 37 41 40 40 39 37 34 33 35 39 40 43 44 42 42 43 45 45 41 40 38 36 32 31 31
54 55 56 56 53 51 49 50 49 49 51 52 50 54 55 55 54 48 46 43 42 40 37 38 39 40 38 35 33 32 34 37 38 40 42 41 41 42 43 43 40 41 39 37 36 32 31
56 58 62 63 60 56 53 52 56 62 68 70 69 65 64 63 60 58 50 47 43 41 40 37 39 38 38 34 32 31 31 35 36 39 39 40 41 41 40 40 41 41 39 39 38 34 35
59 63 67 68 64 61 59 61 66 71 77 80 77 77 72 63 63 62 58 50 46 36 43 39 40 38 36 35 32 30 30 33 35 38 38 39 39 39 40 39 38 41 41 39 38 37 35
61 66 71 72 69 67 71 73 80 78 72 62 55 51 48 41 49 58 61 51 43 45 46 39 38 36 35 34 33 29 28 30 34 35 36 37 38 35 35 38 39 38 37 35 35 35 36
64 70 75 78 77 77 81 83 76 62 47 29 24 24 24 26 33 49 59 59 53 45 43 37 39 37 37 36 33 30 27 28 29 30 33 34 32 31 31 31 31 31 32 33 33 34 36
65 72 78 83 80 83 88 76 58 40 26 15 11 20 22 15 34 45 56 57 56 48 48 41 39 40 38 37 34 30 29 28 27 27 27 30 28 25 24 25 25 27 29 30 33 35 37
67 74 81 86 87 93 78 58 44 28 11 6 13 15 21 27 28 41 48 62 46 44 46 40 40 41 38 38 36 32 31 29 26 23 25 26 21 21 21 21 24 26 29 32 35 39 42
69 75 83 89 91 91 64 52 38 12 4 5 13 25 21 25 18 37 59 63 42 48 45 44 43 41 39 39 35 33 31 28 25 24 24 25 21 20 20 23 26 29 31 35 39 43 47
70 77 84 91 94 80 61 51 29 7 3 10 17 17 22 16 20 40 66 47 45 50 45 47 43 40 38 38 37 34 32 28 25 24 24 23 21 21 23 26 28 30 35 38 43 48 52
70 78 86 91 94 77 59 45 16 3 6 14 21 20 18 9 24 53 69 51 51 47 42 38 39 37 38 34 35 34 30 28 26 25 24 23 22 23 25 27 30 34 35 40 44 47 50
72 79 88 89 93 77 53 39 7 3 6 13 24 19 13 11 35 63 66 51 42 47 40 37 35 35 38 32 34 32 31 28 27 26 23 24 24 25 25 29 30 32 34 34 42 46 49
72 79 86 88 90 74 46 21 4 6 12 18 20 16 6 19 39 65 55 37 29 42 37 25 33 31 37 34 29 29 29 27 27 24 25 25 26 25 26 26 28 29 34 37 41 42 47
71 77 83 86 82 66 33 13 10 17 20 18 18 12 11 29 46 58 48 38 33 42 37 25 24 25 29 33 30 27 26 26 25 25 26 25 24 23 22 23 27 33 34 38 42 49 51
68 75 79 82 73 54 29 19 20 19 18 18 8 10 16 30 60 58 44 31 40 42 32 31 24 27 22 28 30 28 27 26 26 26 26 23 22 18 20 24 29 31 33 37 42 44 48
66 73 76 78 67 51 36 30 25 21 12 16 5 3 22 43 63 49 27 41 41 33 29 28 25 29 25 27 28 29 29 26 26 23 20 20 18 18 21 24 28 31 32 36 40 39 46
64 70 73 74 61 42 34 25 20 11 14 14 3 5 28 44 50 32 27 36 35 31 26 25 26 29 28 25 24 26 24 22 19 19 18 18 18 16 19 24 23 25 28 33 41 45 42
61 67 69 69 48 28 36 28 19 12 15 11 11 23 38 48 34 34 25 29 28 23 22 22 24 28 30 26 24 24 21 17 16 17 17 18 15 18 16 20 22 22 22 31 37 44 40
58 63 65 63 32 24 30 27 36 28 23 21 25 31 47 39 38 38 31 24 19 23 20 18 22 26 28 29 28 24 20 16 16 16 15 16 16 18 19 18 22 22 27 31 34 34 41
53 58 61 58 27 22 21 21 24 23 20 22 37 35 31 34 35 33 24 20 19 19 20 20 23 25 27 27 25 21 16 16 17 15 15 16 16 14 14 13 15 18 25 26 23 27 35
51 55 57 54 36 13 18 16 13 16 15 24 18 24 27 28 30 25 20 19 16 15 17 21 24 26 26 24 22 19 17 18 16 16 15 14 11 8 8 8 11 15 16 15 20 24 26
49 52 54 55 47 16 4 12 7 8 12 16 16 14 19 24 25 23 19 16 9 8 11 17 21 24 21 19 18 18 18 15 15 14 14 12 9 5 5 5 6 10 10 13 17 21 24
46 50 52 53 46 34 17 3 3 9 9 21 16 14 17 26 20 14 11 11 10 9 10 15 17 17 18 18 18 17 16 16 15 16 15 12 8 3 2 3 3 5 11 12 17 18 19
44 47 50 54 49 46 17 20 11 5 6 12 17 14 18 16 12 11 12 13 14 16 15 14 14 17 19 18 17 16 17 17 18 18 14 12 7 3 3 1 4 7 7 11 16 17 18
42 46 50 54 53 48 33 29 19 12 7 10 20 17 17 10 6 13 13 16 18 18 17 15 16 17 17 17 15 19 19 18 19 17 16 12 8 5 3 1 5 5 7 9 11 13 17
41 45 49 55 56 52 40 26 31 23 14 12 18 22 16 17 12 16 16 14 18 19 19 15 14 13 14 16 17 21 20 20 20 17 16 14 10 6 1 5 7 12 11 9 9 11 10
40 45 50 56 58 57 44 25 38 31 20 11 14 21 17 15 16 19 11 13 17 20 19 12 11 10 10 17 15 19 21 22 23 20 18 16 13 9 4 3 7 11 11 10 11 10 11

GFSGBSN_500_spd_036.txt.gz
Wind_Speed
51 51 48 48 51 56 56 53 50 50 49 45 45 47 48 46 46 42 39 39 39 37 38 36 34 38 39 39 41 38 41 42 43 46 46 46 45 45 45 43 42 42 45 41 38 37 32
52 52 50 48 52 54 59 60 58 53 51 49 47 47 50 52 50 49 45 42 41 40 37 40 36 37 39 39 39 37 38 41 43 45 46 47 46 45 46 45 42 44 44 43 41 34 34
54 53 53 53 56 60 63 67 64 60 54 51 52 51 50 53 54 53 51 48 44 43 41 36 40 39 37 40 37 36 35 37 39 42 45 47 45 45 46 44 43 43 42 44 43 35 35
59 57 58 58 60 65 71 72 70 63 67 74 74 72 68 61 59 59 57 53 49 45 44 39 38 41 37 38 37 35 35 36 38 39 41 44 44 46 46 45 44 42 44 43 41 39 38
60 61 61 63 66 71 78 80 76 83 75 74 74 71 72 74 68 64 64 58 53 47 44 40 40 37 39 39 35 34 34 35 35 36 38 38 42 43 43 43 43 42 42 42 43 41 40
62 62 64 65 70 77 83 83 86 78 68 57 51 45 44 47 53 54 63 63 56 50 45 45 41 37 36 37 37 35 35 33 32 33 34 37 38 40 41 40 37 38 41 43 42 44 41
62 64 66 70 78 82 88 90 89 66 58 50 37 21 14 18 25 29 45 60 57 51 39 44 39 38 34 34 36 35 34 31 31 31 33 34 35 34 30 36 36 40 41 40 39 40 41
62 65 68 75 81 87 93 91 77 61 49 36 17 6 9 15 16 24 39 50 55 52 48 43 38 39 35 36 35 35 33 30 29 28 30 31 30 28 32 34 35 37 37 36 35 38 42
64 66 71 77 84 91 94 91 66 52 37 23 6 5 11 15 20 13 38 48 55 57 50 43 39 37 35 37 36 34 32 29 27 26 26 28 28 29 29 30 31 32 34 33 34 34 35
65 68 72 78 85 93 93 83 63 40 22 2 1 10 15 13 11 22 28 46 58 56 55 50 45 40 35 37 35 35 32 30 26 25 24 25 24 25 25 25 26 27 29 27 26 28 31
63 68 72 80 87 94 92 72 52 26 6 2 6 13 14 15 18 16 29 54 61 38 46 48 44 39 36 39 35 34 32 28 26 23 21 21 21 22 20 21 22 22 23 24 25 28 31
64 67 72 80 87 93 90 62 37 8 9 12 15 18 18 17 16 12 35 66 50 37 36 48 47 40 36 36 35 34 31 28 25 24 21 21 19 18 19 19 20 21 23 25 28 31 35
64 66 73 80 88 89 83 49 26 10 18 21 26 29 20 14 10 18 40 52 36 38 35 46 41 35 34 33 33 33 30 27 26 22 21 19 18 19 20 20 20 22 24 29 32 34 37
64 67 73 80 87 83 70 43 30 27 26 23 19 27 17 9 8 32 44 40 37 38 23 43 40 36 33 33 33 33 31 29 27 24 21 21 21 20 20 20 22 24 28 30 35 38 41
62 66 72 78 83 78 65 45 34 33 33 30 27 15 10 3 18 42 47 36 27 24 27 30 38 34 33 33 30 32 31 28 27 23 21 21 20 19 19 22 24 23 27 30 34 37 44
61 64 70 76 80 74 62 53 38 31 32 24 20 18 5 8 27 63 40 30 24 27 32 29 27 30 28 32 27 29 28 27 25 22 23 21 20 21 21 22 25 27 27 30 34 39 40
58 62 68 73 75 64 53 56 39 26 27 23 16 14 8 23 55 54 37 32 31 23 28 30 26 21 24 29 25 24 26 25 24 23 22 21 22 20 19 22 24 26 28 30 34 38 40
55 59 65 70 70 55 52 57 46 31 32 18 21 13 26 32 47 42 38 35 32 28 29 25 28 24 28 32 28 26 24 24 23 23 23 23 20 17 21 22 25 26 25 30 32 33 39
51 56 61 65 65 50 49 50 48 44 30 20 16 18 27 38 42 27 26 36 31 28 22 18 24 27 24 27 29 26 23 23 22 22 20 17 17 19 21 25 24 22 25 24 31 34 30
49 51 57 61 60 50 45 42 45 41 32 30 26 36 43 39 31 24 27 31 27 22 22 23 24 26 24 23 25 27 25 22 20 17 16 18 18 20 23 22 20 21 23 28 28 29 34
46 48 52 56 57 53 36 38 41 32 22 25 31 41 33 32 28 24 33 28 25 19 19 21 21 26 23 22 21 21 21 18 16 16 16 18 18 22 19 20 20 22 25 23 25 27 30
44 46 48 53 55 52 30 33 27 29 24 27 38 29 30 27 29 25 22 24 20 13 16 16 18 21 23 21 19 18 16 16 15 16 15 16 18 12 16 16 16 16 18 18 18 20 23
39 42 44 48 52 47 40 20 11 15 23 28 20 23 25 29 25 23 19 15 13 12 12 11 14 18 19 20 20 18 14 15 15 16 15 14 10 11 16 11 10 10 13 11 13 17 25
36 40 42 44 47 49 44 18 10 6 7 11 8 15 20 21 18 16 13 10 8 6 8 12 12 13 16 18 17 16 16 16 16 15 13 9 8 13 11 9 7 5 5 8 15 16 22
36 37 40 42 45 49 44 32 8 7 15 10 6 9 12 13 14 12 12 10 6 4 5 7 12 14 15 14 14 16 16 16 15 12 9 9 11 10 8 3 2 5 7 10 12 18 21
37 37 38 39 44 46 48 40 15 14 17 22 17 8 16 16 12 8 7 10 11 10 10 10 11 13 14 15 16 16 17 14 13 11 10 8 11 9 6 4 3 3 7 10 11 12 15
38 37 39 41 45 46 50 46 17 26 16 20 24 19 15 16 9 6 9 11 13 12 12 12 12 14 14 17 17 15 16 16 13 13 13 11 10 8 6 4 2 4 5 8 11 13 14
38 37 39 43 46 48 53 50 17 29 21 19 22 20 20 12 8 5 9 9 11 13 13 12 14 13 15 16 16 16 16 15 13 14 17 14 12 10 6 3 1 4 7 10 12 15 14
37 38 38 43 47 51 56 53 15 35 26 17 21 26 19 15 8 8 12 10 10 12 14 13 12 11 12 15 16 15 16 15 16 18 17 15 15 13 11 5 3 6 9 12 13 16 15

GFSGBSN_500_spd_039.txt.gz
Wind_Speed
59 61 63 54 51 50 50 52 58 60 61 64 57 50 48 50 45 49 48 47 46 41 37 36 40 38 41 40 40 42 46 49 51 51 49 48 48 48 48 47 47 45 45 43 41 42 41
58 63 67 58 55 54 54 60 66 67 70 72 65 62 58 56 54 49 52 49 48 45 41 38 37 39 38 39 39 37 40 43 46 49 49 48 49 49 48 48 47 47 47 45 42 40 41
61 64 67 61 59 59 62 67 70 76 79 72 77 72 70 64 64 59 55 53 50 47 45 40 38 39 37 37 37 38 39 40 41 43 43 44 47 48 47 46 46 46 45 42 39 38 41
62 65 66 64 63 65 68 73 78 83 83 77 67 59 55 51 52 64 63 58 52 49 47 44 39 39 35 38 36 36 37 36 37 38 40 42 42 43 45 46 46 45 45 44 37 41 42
61 64 68 66 66 69 74 79 88 85 84 68 57 43 40 38 38 40 54 66 57 51 47 44 43 38 36 38 34 35 37 36 36 35 36 37 40 41 44 45 46 46 44 43 40 42 43
62 65 70 68 70 72 78 87 89 89 68 58 40 33 25 19 20 27 31 59 66 55 47 43 47 40 35 32 36 34 35 35 34 34 34 32 35 38 43 45 42 39 44 45 44 45 46
63 67 69 69 71 75 82 89 87 81 63 45 32 21 3 7 12 11 18 37 62 60 50 48 46 39 37 33 34 36 33 33 32 32 33 34 36 38 34 35 38 42 43 43 43 43 44
62 68 69 69 74 79 86 89 85 71 53 33 19 2 3 10 15 14 15 26 48 57 52 48 44 40 35 32 32 34 35 30 28 28 29 32 34 28 29 34 37 41 39 35 37 40 43
60 69 69 70 75 81 89 89 83 59 36 22 13 3 7 13 13 18 21 15 41 51 51 47 44 41 34 32 32 32 32 30 29 28 25 27 28 28 32 33 30 31 33 34 35 34 35
60 66 70 70 75 82 88 84 76 38 27 23 21 15 14 13 12 13 18 9 41 55 53 47 44 41 35 35 33 34 34 32 31 29 27 27 28 27 28 27 25 27 28 26 26 27 30
60 65 68 68 75 82 87 76 66 38 30 32 28 28 27 22 19 14 14 23 43 52 46 52 45 40 35 34 30 33 33 32 29 27 24 23 24 24 23 23 23 22 21 20 23 25 26
61 64 66 68 74 81 84 72 66 45 35 33 27 25 23 25 11 8 8 39 38 44 33 42 44 40 38 34 31 33 32 28 28 26 24 24 23 21 20 20 19 17 18 19 20 22 25
58 63 64 68 74 80 82 72 67 48 34 35 28 29 25 15 10 6 27 45 34 39 33 45 47 42 34 29 30 29 27 27 26 24 21 19 18 19 19 18 16 16 17 19 21 23 24
58 61 62 67 71 78 79 70 66 48 36 34 25 21 14 8 2 23 56 46 42 21 30 40 42 37 31 28 29 30 30 29 27 23 22 20 20 20 18 16 17 16 17 20 22 24 28
56 58 61 64 68 74 75 68 66 52 38 29 20 14 9 11 21 40 50 20 23 27 33 43 42 36 34 29 28 30 29 27 25 22 20 20 20 18 17 17 16 15 18 21 25 28 30
54 56 59 62 66 71 71 67 67 56 32 24 23 11 10 32 47 45 31 37 22 23 29 41 40 35 28 27 26 29 28 26 24 21 22 20 18 18 17 16 17 19 20 22 24 29 32
52 54 57 59 63 66 65 64 66 54 29 25 19 21 40 53 43 43 38 26 18 32 32 33 32 27 24 24 26 25 26 26 24 23 22 20 18 16 17 19 18 17 19 22 25 28 32
51 53 53 56 59 61 56 58 61 45 25 27 34 46 49 42 41 39 34 31 32 31 33 31 28 27 23 22 25 22 25 24 23 22 20 19 17 17 17 16 17 18 21 23 23 27 26
52 50 50 52 56 59 52 50 53 37 29 35 43 47 43 39 42 38 34 27 30 31 28 27 25 27 27 29 28 23 23 24 23 22 19 16 16 16 16 16 17 19 21 23 26 25 23
48 46 46 48 51 54 50 44 40 28 40 46 45 34 31 32 32 31 32 22 22 26 26 26 22 22 24 28 25 21 22 22 21 18 17 16 15 15 16 16 17 16 20 24 23 25 19
45 42 42 45 47 50 48 34 27 31 27 32 27 21 25 26 25 26 25 19 16 17 17 18 22 19 21 23 27 21 19 18 16 15 13 13 15 16 17 16 14 16 19 19 19 19 20
42 40 38 41 43 44 45 27 15 18 20 18 15 16 21 22 25 25 20 18 15 14 12 11 16 17 18 20 21 21 19 16 14 13 14 14 14 11 15 12 13 13 12 14 14 13 15
39 36 36 38 40 41 41 37 7 12 15 10 15 15 19 20 22 23 20 17 14 12 10 9 8 14 15 16 17 18 17 15 14 14 13 13 10 10 13 11 9 10 10 5 6 9 15
36 36 35 37 38 38 38 37 23 12 16 11 6 15 18 17 18 17 14 12 10 7 6 6 6 10 13 16 16 16 14 13 14 12 12 10 9 13 8 7 10 7 5 4 7 11 12
34 36 34 37 37 37 37 38 35 9 21 22 13 13 15 16 14 13 11 9 7 5 4 3 6 9 9 13 14 15 15 14 13 12 9 11 11 8 6 9 9 7 4 4 7 9 13
34 33 34 37 36 37 37 39 40 27 25 27 20 21 16 16 12 10 10 8 6 6 7 7 8 8 11 12 14 15 15 14 13 11 10 11 9 8 8 9 8 6 4 6 8 8 10
31 31 32 36 36 38 40 43 45 36 23 31 26 19 20 20 13 9 7 8 10 12 11 10 10 11 11 12 15 14 15 14 12 9 8 10 8 10 7 8 6 3 3 5 6 10 11
33 29 31 35 36 41 44 48 52 39 30 31 28 24 19 19 14 9 10 10 8 6 8 9 9 10 13 14 16 16 15 14 11 9 9 10 10 10 8 6 5 2 2 7 10 12 13
32 26 30 34 35 42 46 53 58 28 39 34 28 28 23 20 15 10 8 6 6 8 10 9 10 10 10 12 14 15 15 13 12 12 11 12 11 12 10 9 8 3 5 8 11 13 13

GFSGBSN_500_spd_042.txt.gz
Wind_Speed
50 48 52 56 60 63 60 59 57 61 65 69 73 71 69 68 61 57 54 52 49 50 48 44 40 40 41 40 41 43 52 54 51 53 52 50 49 50 50 49 49 48 46 44 42 42 41
47 46 54 59 62 63 61 61 64 67 73 78 73 71 65 63 59 61 63 59 55 51 48 46 42 42 40 37 42 40 45 50 53 51 51 51 48 49 49 51 51 50 49 47 44 41 41
50 50 54 60 63 66 65 67 68 73 78 74 68 59 56 43 41 41 56 64 61 55 50 46 44 42 38 41 38 40 41 43 47 51 51 49 49 50 47 48 49 51 49 48 45 42 44
52 50 57 62 65 68 69 71 75 79 80 78 58 56 39 30 29 31 37 47 63 60 51 48 46 44 40 40 39 38 38 39 40 43 45 49 50 50 48 50 49 49 49 48 43 45 46
51 52 58 62 67 70 71 74 79 82 79 77 50 42 27 19 17 17 23 33 57 59 52 49 46 45 40 39 37 37 37 37 38 38 39 41 45 48 48 49 48 49 49 47 44 45 45
50 54 58 63 68 71 73 78 82 81 78 68 39 32 12 4 7 9 12 19 36 62 53 50 45 41 39 36 36 35 36 36 36 36 36 35 37 41 43 46 46 46 46 47 46 46 45
50 55 60 65 68 73 75 81 84 79 71 47 39 29 11 12 14 12 10 9 26 53 54 51 47 43 36 38 37 36 36 36 35 33 34 34 37 39 40 37 42 43 45 45 44 44 45
50 56 60 65 68 73 76 81 81 73 59 36 33 29 18 15 13 10 15 12 14 50 55 50 43 40 36 37 36 34 38 33 33 33 32 34 33 32 28 31 35 40 42 41 41 43 44
51 57 61 65 68 72 76 82 79 69 56 37 31 27 18 18 17 16 17 17 10 50 56 48 46 39 36 36 35 32 36 31 31 30 29 30 28 28 29 32 33 35 36 35 37 40 40
51 56 63 66 68 72 76 82 80 70 54 33 30 29 27 20 15 21 19 15 18 54 57 54 52 45 39 31 34 31 29 35 30 29 29 29 28 28 30 32 29 31 31 31 31 34 38
51 54 62 66 67 71 76 82 81 72 51 35 28 27 21 25 20 11 8 6 34 56 57 51 41 43 40 38 32 30 31 29 34 30 26 26 24 24 26 27 26 26 25 24 25 28 31
50 53 60 64 65 69 75 82 81 76 53 33 28 23 20 17 7 5 2 30 44 48 51 49 46 41 38 34 32 31 30 32 31 31 30 26 23 22 24 26 25 22 22 22 22 21 26
50 52 58 63 62 66 73 81 80 76 48 26 26 16 15 6 2 5 35 48 38 39 37 53 41 40 36 32 33 30 30 31 30 27 25 22 21 20 21 22 21 19 20 20 19 18 16
47 50 58 63 60 65 70 78 78 70 45 31 22 12 6 6 11 48 55 45 26 34 38 49 43 39 35 32 30 26 27 27 26 24 20 18 20 22 23 22 21 21 19 17 16 16 17
45 50 55 58 58 63 68 74 77 63 41 26 20 17 13 27 52 38 40 25 25 38 28 44 41 36 35 31 26 26 28 28 25 22 21 21 21 20 20 19 19 17 17 16 16 19 20
46 47 51 54 56 60 66 70 68 48 30 28 37 50 57 53 42 34 26 28 29 34 29 43 40 37 32 28 25 26 25 25 23 23 21 21 21 21 19 18 17 16 15 15 16 20 21
43 45 47 51 52 57 62 61 52 41 47 53 53 43 39 41 36 31 26 26 27 28 36 40 37 32 27 22 22 22 25 24 24 23 23 22 21 18 16 18 17 15 14 15 17 20 24
41 43 43 47 47 51 55 42 36 45 40 37 34 34 37 36 39 35 33 27 30 27 32 34 28 25 23 20 19 25 22 24 24 23 21 18 18 19 19 15 13 13 15 17 20 20 19
38 38 39 42 42 45 45 29 30 33 32 34 34 29 29 28 29 28 26 29 26 29 29 27 23 23 21 21 23 25 21 23 22 21 18 17 18 17 15 14 14 15 17 18 18 18 16
38 35 34 37 38 36 39 25 22 21 16 20 20 26 23 27 23 25 25 23 26 26 26 24 20 21 22 20 23 18 19 21 20 19 18 17 15 14 13 14 14 14 14 17 16 17 16
37 32 30 33 34 30 31 23 10 8 13 12 12 8 8 12 23 23 22 20 19 21 20 15 16 17 19 17 22 19 18 19 18 17 15 13 12 13 15 15 13 13 16 15 15 15 14
39 32 28 30 29 29 25 26 17 7 2 7 8 6 5 9 3 16 19 19 20 16 14 15 13 14 18 22 22 18 17 17 16 15 13 13 14 14 15 11 12 12 14 12 10 8 7
40 31 30 29 27 28 23 22 21 7 7 6 4 10 11 10 13 9 16 14 13 14 12 12 11 11 12 16 20 18 16 16 15 14 15 15 14 12 12 11 11 11 9 7 2 5 6
35 28 30 29 26 27 25 23 22 18 13 12 12 8 16 16 16 13 10 10 10 9 8 7 6 10 13 13 14 14 16 16 16 16 16 13 12 14 13 11 10 7 6 6 5 6 8
32 29 30 29 25 27 27 26 25 23 17 24 23 19 16 21 18 17 14 12 10 8 6 5 4 4 9 16 16 17 17 16 15 15 12 12 13 13 11 11 7 8 6 6 5 7 8
33 29 28 32 25 28 29 30 29 31 29 22 32 28 27 24 20 18 15 13 12 9 8 7 6 7 9 11 16 17 19 18 18 15 13 11 12 12 13 8 7 8 6 4 3 5 7
34 29 28 31 27 29 32 33 35 38 40 23 41 35 29 25 24 20 15 12 11 10 10 10 10 12 12 13 16 19 19 19 16 13 13 12 14 15 11 7 7 6 7 4 3 4 5
33 31 29 31 28 30 32 37 42 47 49 27 45 40 35 28 23 18 16 14 11 11 12 12 11 11 12 14 15 17 18 16 13 13 12 12 15 16 10 10 8 8 5 2 2 5 6
32 30 26 30 26 30 33 40 48 55 37 27 40 38 32 30 25 18 12 10 9 9 8 10 11 11 10 12 14 17 17 15 14 15 13 14 17 16 14 12 10 9 6 3 4 7 7

GFSGBSN_500_spd_045.txt.gz
Wind_Speed
54 54 51 46 47 52 57 59 62 65 67 69 73 76 73 64 63 59 55 57 59 56 57 54 49 44 38 41 41 41 48 51 57 56 55 53 50 50 49 47 46 44 43 40 38 40 41
54 53 49 47 50 56 60 63 65 68 72 76 79 76 70 57 46 37 36 41 54 60 57 55 50 49 46 40 44 41 44 44 54 54 53 53 51 49 50 50 49 47 46 43 42 42 43
53 50 47 50 53 57 63 66 69 73 76 78 80 71 55 45 28 23 27 33 45 61 59 57 51 50 48 42 41 40 41 43 46 52 50 51 50 49 48 49 51 51 48 47 45 43 43
54 50 47 50 54 60 66 70 73 77 80 79 72 55 43 31 16 15 17 21 29 50 61 57 51 50 48 41 39 38 39 42 42 46 49 49 49 48 47 48 49 52 50 49 45 44 46
52 50 48 51 55 62 68 71 77 81 82 77 58 45 38 27 15 13 17 15 16 37 58 56 51 50 48 40 37 37 39 39 39 41 45 46 47 47 48 49 48 50 50 49 46 47 47
51 49 49 50 56 65 69 73 78 83 81 69 50 37 35 24 17 15 13 14 9 30 54 54 50 49 44 39 38 38 39 42 38 39 39 42 44 49 48 49 49 47 46 44 43 45 46
51 50 49 51 57 66 70 74 80 85 81 58 46 30 28 20 16 10 12 14 6 21 51 52 49 45 43 41 44 37 36 40 38 39 38 39 36 44 45 46 46 47 48 47 46 46 46
54 50 50 52 57 65 71 75 81 87 83 57 40 28 24 22 23 18 15 13 12 19 52 51 48 45 43 36 33 39 33 38 37 34 35 34 35 39 34 41 42 45 46 46 45 45 46
53 48 51 52 59 65 70 75 83 86 81 53 35 28 22 23 20 17 15 15 11 24 54 50 47 41 37 36 37 35 28 37 33 33 31 33 31 34 31 33 33 41 40 40 37 38 40
52 48 49 52 59 65 69 76 82 83 77 46 29 23 24 18 18 20 15 11 7 39 54 49 47 42 37 37 37 33 30 33 34 34 32 31 32 32 33 33 33 31 30 31 34 37 38
52 48 49 51 57 63 68 75 82 80 73 45 29 24 25 17 14 11 7 8 13 53 53 50 44 39 33 32 34 34 31 33 33 31 31 31 29 31 30 31 31 30 28 28 28 32 36
49 47 48 50 55 62 67 74 80 74 62 40 26 16 9 10 9 10 9 8 41 52 45 45 44 35 37 33 34 31 30 27 35 31 30 28 26 26 25 25 26 25 25 25 27 27 32
48 46 47 49 53 60 65 72 74 64 51 38 24 16 10 5 5 5 19 38 50 60 52 47 39 41 40 31 32 31 26 28 38 35 31 27 26 22 22 24 23 21 22 24 25 25 23
50 45 44 46 50 56 62 69 64 49 55 49 32 24 28 29 41 42 43 34 44 44 35 41 44 38 38 34 32 31 28 25 24 29 23 19 21 21 21 21 22 24 25 24 20 19 16
48 44 43 43 47 52 58 63 51 43 49 55 53 47 48 49 42 35 31 31 38 47 44 39 43 39 36 34 30 29 27 26 27 22 22 24 24 25 25 23 22 21 21 19 18 18 18
55 45 44 39 42 46 51 52 43 37 38 45 35 37 28 31 33 35 34 36 26 45 41 34 36 36 31 28 26 24 25 25 24 25 24 23 22 21 21 19 20 20 20 17 17 19 18
56 54 43 35 37 41 43 43 34 32 31 30 38 30 21 24 24 28 22 32 26 30 38 33 31 27 25 23 22 22 23 24 23 23 22 21 20 18 19 20 19 18 17 17 16 17 17
48 42 43 34 32 35 37 35 28 30 27 23 23 29 25 16 13 17 18 25 20 24 32 25 25 25 19 17 17 20 20 21 22 22 19 18 17 17 19 17 16 15 14 15 17 16 16
49 38 42 39 27 29 29 26 19 19 21 18 17 20 22 24 18 13 15 17 22 21 27 24 23 20 18 17 18 18 20 20 20 18 18 18 18 19 17 15 14 14 15 16 16 16 16
45 36 38 36 21 23 24 23 13 14 11 7 15 19 24 21 20 19 15 19 22 19 21 20 19 18 18 17 17 19 15 17 18 19 19 18 17 16 14 14 14 14 15 14 14 17 16
41 31 31 32 22 19 19 20 19 8 7 3 4 7 9 18 17 15 16 20 19 18 20 16 18 16 16 14 15 17 15 17 17 17 18 15 15 13 13 13 14 13 15 15 14 16 12
35 31 28 32 25 19 17 17 15 13 10 5 8 10 3 4 9 9 11 14 15 15 13 12 11 13 15 15 20 16 16 16 16 14 15 15 13 14 13 13 13 14 16 13 12 13 9
35 33 27 28 25 20 18 16 17 12 10 12 12 11 12 11 10 1 6 9 9 9 7 8 7 9 11 15 18 14 14 15 15 14 14 14 14 14 13 12 14 16 13 11 10 10 8
34 30 28 27 25 21 19 18 17 16 12 12 20 17 15 16 12 11 11 7 7 6 8 6 7 7 8 13 17 15 15 15 14 14 14 14 14 14 13 14 13 12 10 9 9 7 7
32 30 28 27 26 21 22 21 22 20 18 17 19 26 22 22 20 18 17 11 7 6 7 8 8 7 9 10 12 18 19 17 16 17 16 15 14 16 17 14 12 11 8 6 8 7 8
36 30 29 29 27 24 24 25 27 26 26 27 23 28 34 28 25 22 21 17 14 11 11 8 10 10 10 12 13 13 15 17 17 17 17 17 18 18 15 14 13 9 7 9 8 7 6
35 28 28 26 28 26 25 25 30 31 35 39 39 27 43 36 33 27 23 22 20 17 14 11 11 12 14 18 18 17 18 21 20 20 19 19 18 16 15 13 11 9 9 9 9 8 7
31 26 25 28 28 24 24 27 33 36 45 52 46 35 50 37 36 30 28 24 21 18 16 15 15 15 15 16 18 21 22 22 22 21 21 19 17 17 15 15 12 11 9 10 8 6 3
31 28 26 27 23 22 23 28 32 41 52 55 25 30 43 39 34 28 22 22 19 17 15 16 15 16 15 15 17 18 19 20 20 20 18 18 16 17 18 16 11 10 11 10 7 4 5

GFSGBSN_500_spd_048.txt.gz
Wind_Speed
54 55 58 52 49 47 49 51 57 64 67 69 73 78 76 71 58 55 53 46 35 42 56 64 64 60 55 47 47 47 47 52 48 52 53 52 49 47 47 45 43 43 44 41 38 40 43
56 56 57 53 51 50 52 55 62 67 71 74 80 82 70 54 48 46 35 26 23 28 47 62 63 59 55 54 46 48 46 47 48 45 50 52 53 49 48 46 45 44 42 39 34 34 38
56 55 57 54 52 52 56 59 65 70 75 80 83 76 54 45 38 32 19 19 21 24 35 59 62 58 55 51 44 42 42 40 44 42 45 48 53 50 48 46 48 48 45 42 37 35 40
57 59 56 53 52 54 57 62 69 72 79 83 83 58 41 36 29 24 18 18 17 21 27 53 60 56 54 49 40 38 40 35 35 47 43 47 47 50 49 48 47 49 47 45 40 37 40
58 58 55 53 54 56 58 65 70 75 82 82 78 45 34 23 23 19 18 15 17 13 22 47 55 52 51 47 42 36 37 37 33 43 43 43 45 48 49 49 47 48 48 46 43 41 41
59 57 53 55 54 58 59 65 71 78 83 81 68 37 27 18 19 19 17 15 18 16 20 43 52 52 49 45 36 36 38 34 33 36 40 43 42 46 49 50 49 48 47 46 43 43 42
60 52 53 54 55 58 59 66 72 79 85 80 53 32 21 18 19 19 21 18 18 15 18 45 51 49 49 49 45 33 36 31 36 35 26 39 38 45 45 45 45 45 45 45 44 43 44
58 59 57 56 55 57 60 66 73 81 85 74 46 25 16 19 18 18 15 13 14 14 23 47 50 48 44 45 41 31 33 32 33 40 35 30 41 33 43 45 45 46 44 42 41 41 42
58 62 57 53 56 58 61 67 74 84 81 63 38 27 18 14 13 15 17 13 13 8 33 47 47 44 41 40 43 22 35 30 35 38 34 34 31 36 27 36 41 41 42 41 40 39 41
58 61 55 52 57 59 59 66 75 82 67 55 36 27 17 17 12 13 11 8 4 6 46 47 43 39 40 35 41 30 27 24 36 39 37 30 26 31 24 21 33 40 41 37 38 39 40
60 60 62 58 58 56 58 64 72 69 56 67 55 28 14 19 12 10 11 4 5 36 48 46 43 39 38 36 33 38 29 22 33 32 35 35 31 32 20 25 29 31 33 31 33 33 35
59 57 60 60 59 54 56 60 64 54 51 64 63 51 27 15 10 10 6 9 31 42 42 46 41 33 37 39 27 30 32 23 33 34 32 31 31 31 34 27 34 30 27 27 27 27 30
58 58 57 55 51 53 51 56 54 41 48 60 66 57 54 46 31 28 30 39 42 42 46 47 30 30 35 33 31 27 27 23 34 35 36 32 29 31 31 29 28 25 26 26 24 25 26
54 52 51 46 50 49 47 50 49 37 37 47 51 57 45 38 28 32 40 46 43 44 40 36 29 31 31 30 31 29 26 18 24 31 26 26 26 25 25 27 25 25 26 25 24 22 21
54 49 49 42 45 45 43 42 45 32 37 48 46 48 51 34 23 33 44 45 32 30 43 29 30 28 26 32 29 27 24 17 27 29 22 20 22 23 23 23 22 22 22 21 19 18 18
57 48 47 41 41 42 38 37 39 30 34 38 43 42 39 41 28 43 45 24 28 34 27 31 39 31 28 26 26 25 24 21 23 29 31 26 25 21 20 20 20 21 20 19 18 19 18
58 49 47 37 39 35 31 31 33 27 28 34 33 34 36 32 30 21 26 18 27 27 24 26 24 25 20 17 18 19 18 17 17 19 19 18 19 20 20 19 18 21 22 22 20 18 16
57 49 45 33 34 34 25 23 25 22 21 25 35 33 32 29 20 17 8 9 17 18 19 21 19 18 14 15 15 16 17 20 16 16 17 17 18 18 19 21 21 21 18 17 16 14 14
55 48 44 30 29 33 26 18 18 20 17 16 21 26 32 30 22 12 11 14 12 21 18 19 17 16 16 15 15 18 19 19 19 18 16 17 17 18 17 15 15 14 15 15 14 13 11
52 46 40 25 27 31 26 15 13 13 17 14 13 19 22 22 26 16 13 13 13 14 15 15 17 16 14 14 17 17 18 17 17 17 17 18 17 16 14 13 13 14 14 13 12 12 14
49 43 36 29 26 24 27 19 10 8 11 13 11 9 13 15 17 18 12 9 15 14 14 13 11 12 12 12 13 14 15 17 18 17 17 15 14 13 13 13 13 13 12 11 12 15 13
47 41 35 31 26 24 25 23 11 10 6 9 14 10 9 9 8 10 9 7 9 10 9 10 10 9 12 13 13 17 14 17 17 16 15 15 13 13 12 12 12 12 12 13 14 14 14
46 39 34 29 26 25 22 25 17 12 10 9 9 10 6 8 8 2 3 8 7 7 6 8 9 11 11 12 13 14 11 14 16 15 16 15 14 13 11 12 12 13 13 14 14 13 12
44 38 31 29 30 25 23 25 23 17 13 13 14 12 12 11 12 9 8 5 7 6 8 8 7 8 10 10 17 14 12 13 14 14 14 13 12 12 12 12 12 12 13 13 14 13 12
42 38 31 32 32 25 23 23 23 25 18 19 19 19 17 18 17 15 15 15 9 8 8 9 7 8 8 9 17 14 14 15 14 14 14 14 13 13 13 13 13 12 13 13 14 13 11
40 37 34 32 30 23 23 23 23 26 25 25 27 26 25 25 24 23 22 22 18 14 12 11 11 10 9 12 12 17 18 16 17 16 15 15 15 15 15 15 14 13 13 16 14 12 10
39 39 33 30 26 23 21 23 25 27 27 33 34 34 33 30 33 33 30 29 26 20 18 14 12 13 13 12 13 14 15 18 21 20 19 18 18 18 17 15 15 14 16 15 13 11 10
38 37 32 28 23 21 23 23 24 27 32 37 44 50 46 39 51 41 35 31 28 23 21 18 14 14 14 16 17 18 18 19 18 19 20 20 20 20 17 16 17 16 17 15 12 11 8
36 32 28 25 23 22 23 20 22 27 33 41 51 44 28 44 46 38 35 30 26 23 21 19 17 17 16 15 16 19 22 21 22 21 21 21 21 18 18 18 16 16 16 13 11 9 8

GFSGBSN_500_spd_051.txt.gz
Wind_Speed
58 61 60 57 55 53 53 52 55 57 60 64 69 74 79 80 61 44 44 41 43 33 34 42 61 69 67 67 61 55 52 52 50 47 50 49 52 48 49 52 48 48 49 49 46 45 45
60 62 60 59 55 54 54 53 58 61 65 70 76 81 81 64 38 35 35 32 24 23 27 34 34 56 67 67 60 59 47 49 47 47 54 49 50 49 47 49 45 46 45 44 45 46 47
63 62 58 58 55 54 54 57 62 65 69 75 82 80 63 34 29 31 24 22 17 18 21 28 32 46 64 63 57 54 47 46 44 42 50 47 48 51 47 48 47 47 45 41 37 38 41
64 63 58 58 54 55 57 59 63 66 73 80 76 73 41 24 26 17 19 19 15 17 15 22 26 41 57 60 53 45 40 43 43 37 47 49 46 50 51 50 49 48 46 44 37 35 36
62 62 58 59 55 54 58 63 62 68 77 80 72 61 35 25 16 14 17 18 15 19 19 16 24 40 55 55 52 45 28 40 40 34 42 46 48 50 51 49 47 50 46 43 40 37 35
63 61 61 60 59 60 60 62 61 69 76 72 75 53 31 18 14 15 19 19 18 18 17 8 23 46 53 51 51 41 37 36 38 36 44 38 46 50 51 55 48 45 47 42 42 40 37
66 61 59 59 57 58 57 59 62 68 66 77 74 51 30 19 16 14 15 15 15 15 18 8 34 48 51 49 43 46 34 41 32 28 37 44 39 44 44 46 52 45 45 44 42 40 40
68 63 58 56 56 56 56 57 62 60 60 71 77 60 28 17 18 11 10 11 10 15 9 24 43 45 49 51 46 42 37 37 27 28 33 32 31 38 41 44 47 48 45 44 42 40 39
68 68 58 55 52 53 53 55 60 57 58 69 73 65 30 17 16 13 12 8 10 6 11 44 44 44 49 49 42 33 38 38 29 29 34 33 33 37 40 44 45 45 44 42 41 39 39
70 68 61 56 53 51 49 53 56 58 59 61 69 66 46 17 10 8 15 9 6 13 42 48 44 44 46 48 37 34 41 37 25 32 38 31 36 34 27 35 40 39 39 38 38 39 39
68 68 65 57 54 49 47 51 52 50 59 63 62 60 50 25 8 6 14 9 25 38 49 45 42 40 39 40 35 18 42 31 25 27 33 32 23 32 28 21 35 37 38 36 37 38 38
72 69 68 56 53 45 44 46 48 48 53 59 58 50 46 39 25 20 22 37 42 46 44 39 38 39 37 37 36 17 29 21 18 23 27 25 24 34 37 25 20 29 35 37 37 36 34
70 66 68 57 51 41 43 41 44 45 52 53 55 44 39 33 30 36 42 45 47 49 42 36 37 38 29 36 32 26 21 19 20 26 18 20 23 24 26 24 27 26 27 27 29 32 31
72 64 60 53 49 36 39 36 39 41 46 49 49 48 39 40 42 40 41 41 45 42 45 35 32 32 27 30 30 28 23 18 21 27 32 20 26 29 32 28 22 27 27 26 25 24 23
71 66 56 50 46 32 35 34 33 35 39 47 42 45 38 43 41 30 25 38 41 37 31 29 30 30 27 22 24 27 21 13 19 30 28 22 23 23 26 29 26 22 23 23 23 22 22
69 64 53 47 42 29 30 35 26 28 30 38 42 28 34 26 31 30 21 32 29 20 23 30 27 25 21 23 23 22 20 13 18 25 26 24 25 24 25 26 26 24 23 21 20 20 18
66 57 48 45 38 26 26 32 22 23 24 25 32 28 26 22 21 20 21 23 24 18 16 18 18 15 18 14 16 17 17 13 15 23 27 25 23 22 24 21 20 21 22 21 21 20 18
60 53 46 42 36 27 24 26 21 19 18 19 22 27 22 17 12 10 14 9 14 19 19 14 15 15 14 13 14 15 13 14 12 21 26 23 21 19 18 19 18 18 19 18 17 15 15
56 50 44 40 35 26 21 20 23 15 16 16 15 17 22 20 9 9 5 10 8 10 11 10 12 11 12 12 13 13 12 16 14 19 19 17 17 17 18 19 20 19 19 19 17 15 13
57 46 44 42 33 29 23 19 19 15 12 12 12 10 13 18 15 10 7 8 9 9 10 11 12 11 12 11 11 13 13 18 16 12 17 15 15 14 13 14 16 17 16 15 13 11 13
55 47 43 40 34 27 23 21 17 18 9 11 8 7 8 9 11 10 7 8 9 9 10 10 10 10 9 9 11 13 17 15 18 16 15 14 14 15 15 14 15 15 14 12 12 12 13
54 46 39 39 36 29 22 22 20 17 11 8 11 6 3 1 5 6 7 10 10 10 8 8 9 10 11 10 11 13 17 16 16 16 15 15 16 15 16 16 15 14 12 12 13 14 15
55 51 39 40 38 33 25 23 20 19 17 11 9 8 7 5 5 1 4 6 9 8 7 7 9 9 10 12 9 11 12 15 15 15 15 16 15 14 14 14 13 12 12 12 12 12 13
53 50 44 41 39 34 27 25 20 19 18 21 14 12 10 11 11 11 8 8 12 12 10 10 11 12 12 12 11 15 14 14 17 16 15 15 15 15 15 13 12 11 11 12 13 13 12
49 48 42 38 39 32 28 26 22 19 21 20 23 19 15 15 16 16 15 14 12 12 12 13 13 12 13 13 14 17 14 14 16 17 15 16 15 14 13 12 11 11 12 13 12 13 12
48 45 43 37 37 32 28 24 20 20 23 22 24 27 23 20 21 22 22 21 21 16 14 14 15 14 14 13 17 17 16 17 15 15 16 16 15 14 13 12 12 13 12 13 13 13 13
47 43 38 36 36 31 26 22 19 20 21 25 28 30 31 31 29 30 30 30 29 25 21 19 16 15 14 14 15 18 19 18 17 17 17 16 15 14 14 14 14 13 14 15 15 13 14
45 42 36 34 37 29 25 22 20 23 21 26 31 35 40 42 40 39 40 38 36 31 26 23 21 18 17 17 16 16 17 19 21 21 22 20 19 18 18 17 16 16 16 16 16 16 14
40 38 36 35 37 28 25 24 24 21 21 27 33 39 46 46 32 47 48 40 34 29 26 24 19 17 15 13 14 15 18 19 20 20 20 21 23 21 20 18 17 17 18 17 18 17 16

GFSGBSN_500_spd_054.txt.gz
Wind_Speed
61 66 65 60 57 54 53 47 50 51 56 59 63 66 70 74 63 44 38 34 34 34 37 48 59 66 77 76 74 68 63 57 55 52 54 54 57 58 52 57 58 55 51 49 48 45 46
64 70 68 60 52 56 53 50 50 54 58 63 64 69 72 70 39 27 22 16 23 24 25 30 35 43 60 71 70 73 57 57 54 51 52 51 55 55 53 50 50 59 53 46 48 46 47
66 69 70 63 53 55 52 51 53 56 62 65 65 70 74 55 30 26 21 20 14 16 16 18 23 33 36 50 66 65 57 49 51 49 45 50 53 56 54 48 44 52 53 49 46 46 47
67 71 69 65 55 54 51 51 55 56 60 62 66 68 68 40 26 21 13 9 14 15 15 16 18 26 31 44 61 58 44 49 51 45 45 48 50 54 56 52 51 48 48 50 39 41 46
67 71 70 69 56 53 52 52 54 56 59 65 70 68 62 33 21 18 13 13 14 18 15 15 12 23 26 45 53 58 46 50 45 44 44 48 51 51 55 56 52 49 45 50 39 39 40
68 73 70 68 57 55 51 52 53 56 62 68 71 69 56 27 16 15 13 15 14 14 11 12 9 18 26 49 57 57 43 47 41 43 41 46 46 50 55 55 49 44 41 44 38 38 38
68 74 73 68 58 56 50 50 53 54 60 69 73 71 53 21 14 15 12 9 10 9 12 14 14 25 40 51 49 48 46 42 42 40 41 38 38 37 49 52 52 46 41 41 42 39 39
70 76 72 65 58 56 51 48 50 53 60 67 68 68 52 16 14 13 12 10 11 11 8 5 29 45 46 49 53 44 46 43 45 39 36 40 39 37 48 53 52 48 45 43 44 41 39
71 76 72 66 56 53 48 47 47 53 58 64 65 58 50 19 12 11 14 7 7 5 22 40 45 46 49 58 46 38 38 35 35 33 31 38 35 34 41 51 51 51 46 41 40 41 37
69 75 73 61 53 50 42 43 45 50 57 58 57 52 43 31 19 14 15 12 27 47 55 46 44 36 43 46 43 46 42 18 27 28 28 36 36 34 40 48 49 50 49 49 41 40 39
71 72 70 55 49 47 38 40 41 49 55 52 53 49 43 38 29 25 30 47 52 55 45 34 42 42 45 45 44 40 36 21 25 30 27 29 31 31 39 39 43 46 46 48 45 41 39
71 71 65 52 47 43 33 36 36 43 52 46 54 51 48 45 39 36 41 47 43 46 32 49 33 37 39 39 43 43 39 32 30 24 35 24 30 30 31 34 38 39 40 42 40 40 40
70 68 61 50 46 40 31 33 30 34 43 40 44 42 42 44 41 41 41 39 36 40 32 37 29 44 41 38 27 33 31 25 17 20 21 27 22 28 34 32 32 39 38 40 41 38 39
69 65 59 46 43 38 28 28 27 27 34 40 33 36 33 30 34 36 36 31 32 37 36 33 30 34 34 20 26 35 24 19 19 14 23 24 25 25 26 25 27 29 35 40 41 41 38
68 64 57 46 44 38 28 24 23 22 25 31 26 27 27 24 32 35 33 26 30 27 34 28 27 30 28 26 23 21 12 12 20 25 25 19 24 28 23 27 26 28 25 29 31 34 31
66 65 59 49 41 37 26 22 19 19 18 22 26 19 21 19 22 20 24 24 24 22 22 21 21 25 20 17 16 14 14 9 16 25 24 22 20 24 28 29 25 22 21 23 26 26 24
65 61 59 46 39 35 27 17 18 15 13 13 17 19 12 13 15 15 10 14 18 18 19 19 17 16 16 15 18 15 10 7 13 24 26 22 21 23 27 29 24 24 20 22 24 24 23
61 59 57 46 40 38 34 19 15 12 10 9 10 13 14 4 11 12 9 11 15 16 18 15 13 15 15 14 15 15 14 10 11 16 20 21 20 21 24 24 23 22 23 23 24 22 19
60 59 57 48 39 36 33 24 14 12 8 7 5 8 12 12 7 9 7 8 9 12 14 12 11 10 12 12 12 11 12 13 14 20 21 19 15 15 17 21 20 18 18 21 20 20 21
58 58 56 52 44 35 35 32 15 13 10 6 5 3 6 9 1 9 9 6 9 8 7 9 8 9 9 10 10 10 10 13 15 17 19 24 22 21 20 18 20 20 18 17 18 19 20
57 58 58 50 43 36 36 30 21 16 12 9 5 5 2 3 4 5 8 10 7 8 9 9 8 7 8 8 8 8 10 14 13 15 18 18 18 17 18 18 19 19 19 17 19 22 21
57 57 56 50 42 38 35 28 19 17 16 13 9 8 7 6 5 5 7 10 12 11 10 11 11 10 9 8 8 9 12 11 14 16 17 15 17 17 17 18 16 18 18 19 19 17 19
56 56 54 50 45 38 38 31 18 18 18 16 13 11 10 11 10 8 9 11 11 12 12 11 11 11 11 10 9 10 12 15 16 16 15 16 18 19 18 18 18 16 16 17 17 18 17
56 56 55 51 46 40 37 32 22 21 18 18 17 14 15 15 15 15 12 12 14 15 13 12 13 13 13 12 13 11 14 15 18 16 15 17 17 17 17 17 17 16 16 16 15 15 16
56 56 54 48 43 40 34 33 27 21 19 20 18 18 17 19 20 19 20 18 19 19 16 16 14 14 16 16 16 14 17 16 17 18 18 18 18 18 17 16 15 15 15 15 14 15 15
54 54 52 44 40 38 33 34 28 21 18 18 21 20 20 21 23 25 23 24 24 22 20 18 18 18 16 17 18 16 18 16 16 17 17 17 18 17 17 16 16 15 13 13 13 15 15
54 55 52 43 37 34 32 32 26 23 18 18 20 24 25 27 29 29 30 29 29 29 25 22 19 19 19 18 17 19 19 18 17 16 18 18 18 18 18 17 16 14 13 13 15 14 15
54 53 47 39 34 32 30 30 27 22 21 23 23 25 29 31 32 34 36 35 37 36 33 27 22 20 19 18 18 18 22 20 18 19 19 19 19 19 18 17 17 15 16 16 16 16 17
52 49 40 33 31 32 28 31 27 22 16 16 20 24 30 35 42 47 49 44 41 39 34 30 23 20 19 19 19 18 18 19 21 22 22 22 22 20 20 19 19 18 17 17 18 17 17

GFSGBSN_500_spd_057.txt.gz
Wind_Speed
58 63 67 72 75 58 52 50 49 49 49 53 58 58 61 66 63 56 40 34 26 20 21 29 39 48 61 67 71 73 69 63 61 56 50 51 56 58 57 56 58 56 59 53 54 44 44
59 65 70 72 78 59 52 52 50 49 52 56 61 65 67 63 56 38 29 28 20 11 13 18 24 32 48 61 61 74 73 66 62 58 53 49 51 54 57 59 54 58 58 57 51 45 45
62 67 71 73 79 60 52 51 50 50 53 59 65 71 70 61 39 31 23 23 19 13 11 16 19 25 33 43 59 62 74 68 61 57 53 49 52 54 57 58 57 54 59 57 51 45 46
63 68 72 77 67 58 52 51 48 49 56 63 68 71 61 53 28 22 20 15 8 9 15 12 15 18 21 30 48 55 52 54 59 58 53 49 50 54 56 57 58 56 55 56 52 44 43
63 69 75 79 58 57 53 49 46 50 58 66 68 63 52 41 21 15 15 10 12 13 15 13 15 14 19 23 35 54 44 43 49 56 51 48 46 55 54 56 57 57 52 51 52 44 41
64 70 75 75 57 56 52 46 45 51 60 67 66 60 48 27 15 15 15 12 11 13 14 14 11 9 17 23 37 55 64 45 47 48 52 46 46 46 49 56 58 53 48 45 45 45 43
65 70 77 68 54 55 51 42 43 52 59 64 63 59 47 24 17 15 19 11 9 9 9 12 11 13 18 25 45 51 52 48 44 46 47 45 46 41 40 51 51 54 48 44 41 45 47
66 72 75 62 52 53 46 38 41 51 57 59 60 59 47 32 20 16 19 12 7 10 10 9 12 22 32 46 57 40 48 46 40 42 43 40 38 34 44 49 54 52 49 46 41 39 42
66 72 73 59 51 51 41 36 37 47 51 54 57 58 51 38 26 19 15 12 12 13 17 25 32 39 42 24 45 47 50 42 36 35 37 38 34 39 41 47 52 52 48 47 42 36 42
66 71 72 60 50 49 40 34 34 42 44 47 51 55 49 42 37 41 45 45 46 44 45 47 58 46 31 34 54 51 36 32 45 37 36 36 32 31 40 41 52 53 50 49 42 39 39
64 69 70 60 48 48 38 31 31 35 35 43 43 45 43 43 44 52 54 44 39 32 30 20 30 22 46 34 40 43 31 31 33 34 30 30 31 32 31 36 49 52 49 47 45 42 38
64 67 69 62 49 47 39 30 28 30 28 31 36 36 35 37 29 29 38 36 25 24 34 30 29 19 22 38 51 42 35 31 34 31 29 30 32 30 30 37 46 48 48 46 43 42 40
59 64 69 61 50 46 39 28 24 25 22 24 27 29 30 27 27 17 24 28 27 33 34 30 29 30 24 49 44 20 31 27 28 26 20 25 33 37 31 32 40 44 45 43 44 44 45
57 61 65 61 53 43 43 27 23 20 19 17 19 19 27 28 26 21 17 20 21 24 32 27 27 24 23 30 30 15 14 24 18 20 21 24 31 36 27 33 32 36 38 42 44 47 45
55 59 62 62 55 45 42 37 22 18 16 11 12 14 13 23 24 21 20 17 19 17 26 28 28 25 18 19 19 14 9 10 11 16 18 19 29 26 35 33 31 36 38 37 40 42 40
54 58 62 62 58 49 42 39 29 16 15 11 5 8 6 9 15 15 14 15 18 17 21 21 15 13 20 21 19 14 12 10 18 17 19 21 25 29 26 24 33 27 26 34 37 36 37
53 58 60 62 59 51 42 40 34 21 13 12 7 6 3 3 6 12 10 6 7 11 16 17 15 11 11 9 10 10 9 9 20 17 22 20 21 26 26 27 28 29 28 28 27 34 31
52 56 59 59 58 55 47 40 38 26 13 12 9 6 7 4 3 6 9 2 7 11 12 17 12 14 8 10 11 12 9 6 15 19 21 18 17 18 20 23 25 22 22 20 21 24 26
53 55 58 59 58 57 48 41 39 27 18 11 13 7 7 5 11 6 8 7 5 9 12 13 9 6 5 7 6 7 8 8 10 20 21 22 16 17 19 22 23 22 21 22 22 22 22
54 56 59 58 57 56 49 41 34 32 21 12 13 12 7 6 5 11 10 8 9 8 8 11 11 9 9 9 9 8 8 9 10 15 20 21 21 19 19 18 19 18 16 20 24 23 24
54 58 59 58 57 55 52 38 34 33 19 17 13 14 12 9 6 10 12 11 12 11 10 10 9 9 10 10 9 9 9 9 11 13 18 21 20 20 20 18 19 20 20 16 13 22 26
54 60 60 59 57 56 52 41 35 32 20 20 17 18 15 13 10 10 13 13 12 12 12 11 10 9 9 9 9 9 9 10 12 14 16 17 19 20 19 21 21 20 20 21 23 20 21
56 61 57 57 57 56 52 40 36 33 25 22 21 21 19 16 16 14 13 15 16 16 14 13 12 11 10 10 9 9 9 11 11 14 18 18 16 17 17 17 17 17 18 19 20 24 25
57 55 54 56 58 56 52 38 36 33 27 22 21 21 23 21 19 19 18 17 17 17 17 17 15 15 14 13 13 12 11 14 15 15 18 16 17 19 18 19 20 17 19 21 22 22 21
51 54 55 56 57 53 46 37 35 30 27 23 20 23 25 24 24 23 23 21 22 22 22 20 18 17 17 17 16 16 15 15 16 19 18 18 19 20 20 19 19 19 18 18 19 19 20
52 53 55 55 55 51 41 36 34 29 26 24 23 22 23 27 25 27 26 25 28 26 26 24 21 19 18 18 19 19 17 17 18 19 18 19 18 20 20 19 19 16 17 18 18 18 19
55 53 53 54 51 47 37 34 32 27 24 24 23 21 21 26 29 28 31 33 30 31 30 28 26 23 21 21 20 20 19 19 18 16 18 20 19 19 19 19 18 17 17 18 18 16 18
52 51 51 52 49 44 34 33 33 26 26 23 26 24 26 26 32 33 32 34 36 35 35 34 30 25 22 19 19 20 19 20 19 17 18 20 20 20 21 19 20 17 18 18 16 17 18
46 49 51 52 46 35 32 32 28 26 25 18 18 19 22 24 28 31 36 37 39 42 40 35 31 25 21 19 17 17 18 21 21 19 20 20 20 20 21 21 21 19 19 18 17 18 18

GFSGBSN_500_spd_060.txt.gz
Wind_Speed
55 59 66 72 78 69 61 60 58 54 51 55 60 65 65 63 56 44 37 31 29 28 26 19 20 25 38 64 70 73 69 65 60 56 53 49 44 48 53 51 55 54 51 51 54 53 48
55 61 67 74 78 64 60 61 59 54 53 59 65 67 66 55 45 31 28 25 23 23 14 11 13 19 23 31 53 71 71 67 62 57 55 51 44 42 50 53 56 53 53 55 56 50 43
57 62 69 76 71 60 59 60 57 52 55 63 65 67 63 49 33 22 17 18 21 14 15 13 13 14 20 24 39 59 70 66 62 55 55 52 48 45 45 53 52 55 60 54 57 49 44
57 64 70 76 72 59 59 60 53 53 59 62 64 66 62 46 24 15 15 16 11 5 6 8 9 13 13 23 34 43 61 64 61 52 55 54 49 45 45 52 54 54 55 57 51 48 49
59 65 71 77 70 60 59 60 49 51 57 59 64 65 59 43 24 20 17 14 6 8 10 10 11 11 14 19 28 43 49 58 60 56 50 53 51 45 45 46 50 58 53 54 51 44 51
59 65 71 77 71 59 59 58 47 49 52 56 62 60 57 44 30 20 19 13 7 6 8 10 12 12 12 16 24 40 42 50 53 53 50 51 50 46 45 42 51 51 51 51 48 49 45
57 63 70 76 69 59 58 54 44 47 47 54 55 53 58 47 39 28 20 13 8 5 6 6 7 7 8 15 23 41 40 44 44 55 50 47 48 46 36 31 34 46 51 49 46 48 49
55 61 68 74 64 57 58 52 42 44 43 48 48 48 53 53 55 53 41 23 10 5 8 8 10 10 13 21 49 57 49 35 45 43 46 50 44 39 33 31 38 50 51 47 49 47 42
54 60 66 71 64 56 56 53 40 40 40 41 44 41 47 43 50 53 57 44 35 32 26 16 12 13 18 32 66 57 40 41 37 54 59 48 42 41 36 33 39 47 48 48 50 42 35
53 58 64 69 70 58 54 53 41 36 35 34 40 39 39 35 37 45 46 39 38 38 47 42 33 51 48 41 30 32 37 29 44 31 38 46 43 37 38 29 36 47 46 46 49 38 37
52 58 63 67 71 56 51 54 44 33 31 32 33 37 36 28 24 34 38 32 20 23 26 29 25 25 26 18 31 31 26 28 34 34 34 36 36 30 31 31 29 40 46 47 45 41 42
50 55 62 66 70 58 49 51 45 33 28 28 27 32 31 30 24 28 33 25 21 31 31 27 28 27 32 42 36 30 23 25 29 30 33 28 29 24 24 27 30 33 44 44 44 44 44
48 52 59 63 68 63 53 48 48 37 27 23 26 25 27 27 24 16 22 22 11 23 23 18 26 29 39 29 31 25 27 21 32 26 24 25 26 28 24 26 29 30 39 42 45 44 43
45 51 56 61 66 67 59 47 48 41 28 23 22 20 21 23 22 19 16 14 11 17 25 21 26 28 33 27 24 20 18 19 26 24 22 26 27 28 28 30 26 30 33 40 45 45 42
44 51 55 60 63 68 60 49 45 46 32 21 19 21 16 16 18 16 16 10 9 17 15 19 19 17 24 16 15 20 24 20 18 20 17 24 29 30 29 32 25 24 31 33 38 42 41
42 48 52 57 63 67 63 56 46 46 34 20 18 18 18 14 10 10 14 10 6 11 16 14 12 8 7 6 8 11 13 12 14 17 16 20 23 33 28 27 31 27 23 32 36 35 38
42 47 50 55 61 64 63 57 48 41 38 23 17 17 18 10 8 5 5 11 6 7 8 9 18 16 13 9 5 4 6 7 12 14 14 16 17 23 26 32 26 23 27 27 30 31 31
39 45 48 54 58 62 62 57 51 41 41 23 18 16 16 15 5 3 2 6 10 8 6 2 3 3 3 1 3 6 5 7 12 12 16 17 21 23 23 25 26 34 24 22 20 26 29
38 43 47 51 57 60 61 59 55 41 38 31 16 17 15 14 9 6 3 5 6 8 8 11 8 6 3 2 2 5 6 6 15 12 16 16 16 20 23 23 22 30 30 28 22 20 23
42 44 45 51 56 60 62 60 56 44 35 30 18 17 17 16 12 10 9 6 7 9 10 12 10 8 6 6 6 5 7 8 9 17 20 19 17 17 18 20 21 19 19 19 18 17 17
42 45 45 49 56 61 63 62 56 44 33 36 21 16 18 16 16 12 14 15 14 11 11 10 10 10 9 8 7 6 7 7 10 13 18 21 20 19 16 16 16 17 18 17 18 20 24
41 45 45 49 54 60 64 64 56 43 32 32 24 20 18 20 18 16 14 16 16 17 16 14 12 10 9 9 9 8 8 10 9 11 13 18 22 22 20 19 19 18 17 18 18 16 21
43 46 47 51 55 59 61 61 58 43 34 34 26 20 20 22 20 20 17 16 17 17 18 16 15 13 10 9 9 9 10 9 9 11 10 13 18 21 20 21 22 20 19 19 20 24 23
46 45 47 49 54 57 62 61 52 44 34 34 28 19 17 21 24 19 21 18 17 19 19 19 17 15 14 13 13 12 10 11 11 11 13 14 15 16 16 19 20 18 18 19 21 23 21
45 44 47 49 52 56 60 59 54 40 34 31 28 21 18 21 26 25 22 24 21 20 19 20 19 18 17 16 14 13 14 13 12 15 14 17 16 15 19 17 17 17 16 17 18 20 20
46 44 47 49 52 58 58 57 52 36 33 33 28 24 20 20 25 29 27 26 27 26 24 25 23 21 20 19 18 17 17 16 15 15 16 19 17 17 18 16 18 13 16 16 18 19 20
46 46 49 51 51 58 59 53 42 32 31 31 29 24 20 17 23 26 30 29 29 30 30 28 27 27 24 22 21 19 17 18 17 16 16 19 18 17 18 18 17 14 18 18 18 16 19
45 47 47 50 51 53 54 47 37 30 30 27 29 22 18 17 22 24 28 32 32 34 34 33 32 31 29 25 23 21 18 17 17 17 18 18 18 18 18 17 18 16 18 16 15 15 17
49 48 48 50 50 49 49 38 33 32 28 27 23 20 17 16 19 23 26 29 35 37 35 36 36 31 30 25 21 20 18 17 17 17 18 17 17 18 19 18 18 18 17 18 17 17 17

GFSGBSN_500_spd_063.txt.gz
Wind_Speed
52 59 66 71 75 81 77 64 62 59 55 57 60 61 66 65 60 41 25 23 23 20 20 20 22 27 38 58 66 66 66 65 60 54 51 49 47 43 45 49 50 50 49 47 47 48 46
54 58 64 70 75 82 79 65 62 58 54 58 61 65 70 69 56 31 22 18 16 16 16 16 14 15 21 25 45 60 65 63 61 56 49 49 46 42 44 47 52 46 52 51 50 47 47
54 58 63 68 76 82 77 66 62 55 54 57 61 65 68 64 51 30 19 17 16 17 14 13 11 8 12 19 31 44 63 63 60 58 50 51 47 45 42 44 51 51 52 57 47 49 48
52 57 61 67 75 81 74 64 61 53 52 55 58 60 60 60 59 35 21 18 13 4 0 6 6 7 9 15 25 27 43 58 61 58 52 46 47 47 43 40 45 53 51 54 50 46 46
53 55 61 67 75 81 73 63 63 52 51 52 52 53 61 62 60 50 26 17 9 4 4 5 8 4 8 8 21 29 38 50 60 60 55 45 45 47 43 39 41 49 51 51 48 47 42
50 54 60 67 74 80 76 62 61 53 50 49 52 47 55 54 56 58 50 27 11 5 5 4 7 7 7 10 17 29 39 47 55 56 52 47 43 48 46 40 35 37 40 46 46 45 41
48 54 58 65 72 79 77 64 61 52 49 48 49 46 42 44 50 51 54 55 30 9 5 2 1 4 8 15 20 31 40 52 46 50 48 44 44 43 38 36 33 30 36 43 43 45 48
47 53 58 63 70 74 78 64 59 52 46 46 45 44 41 38 40 45 48 46 42 37 12 3 5 4 9 14 24 37 44 56 56 52 43 48 36 35 39 37 34 33 33 40 44 47 45
47 52 57 62 68 73 76 66 57 55 43 44 41 43 39 35 36 32 41 39 37 40 30 27 12 4 9 19 32 38 44 58 53 38 51 44 36 36 37 37 32 30 26 33 40 46 46
45 50 55 60 67 72 73 73 53 56 45 41 37 38 37 34 31 27 32 42 41 34 40 39 31 16 30 54 43 36 38 51 52 42 33 43 39 33 37 34 28 27 29 35 43 43 44
44 49 53 58 66 71 73 73 65 53 51 35 36 32 33 32 19 22 25 33 39 34 40 39 35 39 32 30 32 20 30 33 42 46 41 37 37 31 30 29 27 28 32 35 38 43 45
45 48 52 55 64 68 72 73 66 52 51 36 33 30 30 26 15 14 21 31 30 31 33 26 15 21 33 29 26 29 20 30 34 44 45 39 34 36 28 31 31 28 31 33 36 44 46
43 48 51 52 59 66 70 71 67 54 50 43 28 28 25 25 18 10 15 24 25 26 32 27 29 28 21 23 23 25 22 28 36 40 37 32 37 37 33 35 28 34 24 32 36 43 43
40 46 47 49 54 61 67 70 68 58 52 44 29 25 22 21 16 14 10 20 21 22 24 24 24 27 19 18 15 17 18 25 26 29 29 30 33 35 29 27 30 32 25 20 32 38 39
39 44 44 46 51 58 65 70 71 65 57 42 35 22 22 15 13 10 11 12 18 22 16 13 23 23 27 21 11 16 16 15 19 20 21 24 24 25 26 28 31 27 22 21 24 31 36
40 42 43 45 47 54 61 66 69 70 59 43 36 21 20 16 9 5 6 7 13 16 16 8 7 15 17 21 14 11 11 14 16 18 15 20 24 26 28 26 26 29 22 21 26 29 33
43 41 42 43 44 53 58 64 68 69 62 42 37 25 17 16 5 4 5 4 2 8 10 13 10 10 13 12 15 12 10 14 17 17 18 15 19 27 30 31 22 28 23 22 22 25 27
41 37 40 40 44 49 55 61 66 68 62 40 35 29 18 16 10 3 5 10 7 3 3 3 5 6 6 8 7 9 9 10 14 16 14 12 11 18 30 30 25 22 23 21 21 21 23
38 37 37 39 41 46 53 58 64 68 61 41 34 29 19 14 13 8 7 7 14 11 5 3 1 1 3 4 4 5 4 7 12 14 15 15 14 13 18 28 32 29 27 24 21 16 21
37 37 37 38 40 45 49 53 60 67 65 46 37 28 22 16 15 11 11 8 9 14 13 8 7 5 3 3 3 2 5 6 9 12 13 13 15 18 18 17 20 20 23 26 23 23 23
37 38 37 38 41 43 45 50 61 65 64 54 37 29 22 18 16 15 10 16 13 11 12 12 13 11 8 5 3 6 7 8 9 11 17 17 15 14 16 20 21 22 20 23 25 19 20
37 39 37 36 37 41 43 48 56 63 67 57 41 32 22 20 19 19 16 13 19 18 17 15 14 13 11 10 9 9 8 9 9 12 14 18 23 22 20 18 17 18 20 19 19 23 21
38 39 37 36 35 41 45 50 52 59 65 57 37 31 23 19 17 20 19 15 16 20 20 20 18 16 14 12 10 9 8 8 10 11 13 15 19 22 24 23 22 20 19 19 21 22 22
41 38 37 37 35 41 48 50 52 57 64 52 35 31 24 19 17 19 22 21 16 17 20 19 19 18 16 15 11 10 9 9 9 9 11 12 14 19 21 24 24 21 22 21 21 23 22
42 38 38 39 39 40 49 49 51 57 60 49 34 32 22 21 19 18 23 23 21 19 16 21 20 20 18 16 15 14 12 11 11 10 12 13 13 14 16 18 18 17 19 20 19 22 21
43 40 43 42 43 44 48 51 50 55 54 46 36 32 22 22 20 19 25 27 25 22 20 17 18 19 20 19 17 15 14 14 13 13 13 14 16 18 15 16 17 15 17 18 18 16 16
44 44 41 44 46 45 43 52 51 51 51 44 34 31 26 23 21 19 22 28 28 25 23 24 24 21 21 20 18 16 15 14 15 15 14 15 15 18 17 15 15 15 17 17 15 14 15
43 47 47 50 46 45 48 51 50 52 51 40 32 27 23 23 19 17 19 24 26 28 26 27 27 27 26 24 23 21 19 18 16 15 16 16 16 17 16 14 15 16 14 16 16 17 17
42 47 47 47 45 49 52 47 51 52 46 37 30 26 22 19 20 16 15 23 26 26 29 32 32 32 31 28 26 24 20 20 18 15 16 17 16 16 16 16 16 16 16 17 18 17 16

GFSGBSN_500_spd_066.txt.gz
Wind_Speed
43 51 56 61 66 73 81 83 79 65 64 57 54 54 50 52 58 63 44 17 12 17 13 15 20 23 31 52 60 64 61 59 59 55 53 54 51 46 45 47 44 43 49 60 55 55 48
42 50 58 62 67 73 79 83 79 68 63 55 53 45 47 49 56 61 57 28 19 18 15 13 16 21 24 29 46 63 65 61 60 57 54 53 51 47 44 43 45 46 50 59 57 52 52
43 50 59 64 67 72 78 83 82 68 63 53 50 50 46 48 53 56 58 45 25 18 17 18 15 14 16 19 29 43 60 64 61 57 56 52 51 49 44 42 43 49 50 56 56 54 50
45 47 58 65 68 71 76 80 80 70 64 53 47 50 43 45 50 56 54 57 32 11 6 3 6 10 7 10 19 33 43 61 62 60 55 52 49 49 46 43 43 38 51 54 49 47 48
43 47 54 63 65 69 76 80 80 68 64 52 46 49 40 41 46 54 56 53 44 16 7 4 6 1 8 8 27 36 36 56 63 60 53 51 47 47 48 45 43 46 45 46 45 46 41
43 47 52 61 62 68 74 80 80 68 61 53 45 47 42 37 41 47 60 54 46 27 10 6 5 5 7 10 22 36 30 54 61 58 53 50 52 48 48 45 40 33 30 42 39 42 44
43 45 50 59 60 66 73 78 80 66 59 55 45 43 40 29 36 44 53 55 47 37 22 5 1 5 6 11 17 30 38 55 59 56 47 55 53 40 36 40 38 32 29 33 37 39 40
42 45 49 56 60 64 71 77 79 70 59 56 42 39 38 24 35 44 49 53 48 39 26 15 2 5 7 11 18 30 42 59 64 55 56 46 36 32 39 40 36 31 29 30 35 39 41
42 44 47 54 58 63 70 76 78 72 59 54 40 35 37 22 32 40 45 41 37 38 38 29 13 4 7 14 24 33 45 67 61 67 50 38 40 33 36 38 35 31 24 26 31 35 38
41 43 46 52 57 59 66 73 77 74 58 52 41 33 33 29 28 36 40 34 24 32 36 30 29 19 16 22 32 48 50 61 61 61 43 41 38 34 34 36 34 31 28 28 28 30 35
39 45 47 47 56 56 64 71 76 76 69 50 45 30 29 30 29 29 33 28 16 28 29 35 30 36 36 35 44 48 55 48 47 44 47 41 35 34 33 34 35 32 29 27 28 26 30
35 43 48 44 52 56 60 67 72 76 72 52 44 28 25 26 24 20 28 29 17 27 28 26 35 31 28 35 38 41 38 48 36 41 46 41 39 34 33 33 31 27 26 27 27 31 31
36 41 48 42 47 53 56 64 69 75 75 58 42 31 23 21 21 15 23 23 14 21 29 30 30 31 34 31 39 30 21 26 32 43 36 41 38 30 31 32 29 29 25 26 28 31 31
38 41 46 42 43 50 54 60 65 71 76 67 44 36 19 17 16 14 18 17 15 23 27 37 28 19 24 28 23 22 28 28 32 28 36 37 39 32 27 27 27 30 28 25 23 24 31
37 39 45 42 39 47 49 57 62 69 75 69 52 37 20 15 12 11 11 13 8 8 13 17 27 22 19 22 22 21 18 19 35 35 26 26 30 30 29 29 26 29 28 29 26 22 20
37 38 45 42 38 45 47 53 57 63 71 73 60 38 27 15 9 7 5 5 9 6 8 12 17 17 14 16 14 15 17 20 23 27 28 29 28 32 33 32 37 27 23 24 23 23 20
37 38 42 41 37 41 45 51 54 61 68 73 68 45 31 15 9 6 7 4 1 4 3 7 11 10 13 10 12 13 16 19 18 18 18 19 23 28 31 29 25 30 28 24 20 19 19
38 38 42 40 34 39 42 49 54 60 64 72 71 49 33 19 11 6 7 11 7 6 3 2 5 8 8 9 7 9 10 12 13 14 17 11 16 23 23 25 26 28 27 27 26 22 21
41 40 43 40 33 37 39 50 51 53 59 69 71 56 35 21 12 11 9 11 13 10 9 6 5 3 4 6 5 5 6 10 12 14 12 12 13 21 24 27 29 30 26 25 25 21 22
40 42 45 42 30 33 39 46 51 51 50 61 68 55 39 25 17 13 11 13 13 13 13 12 7 5 2 1 1 4 5 7 11 12 15 16 15 13 16 22 27 31 26 24 26 26 18
40 45 47 45 30 29 36 43 47 46 45 56 65 56 43 27 18 13 14 12 16 14 13 13 11 9 6 5 6 5 6 7 8 12 13 15 15 14 15 17 18 21 27 25 28 27 26
43 48 47 47 33 30 36 40 45 43 43 52 65 60 47 31 20 15 14 15 15 20 15 13 12 10 10 8 7 8 8 9 10 12 14 17 17 16 15 18 20 19 20 21 18 26 27
44 50 48 47 37 29 34 38 44 41 41 48 60 62 53 39 20 15 13 17 17 17 22 20 17 14 12 10 9 8 11 10 10 12 14 18 22 23 22 20 20 19 18 18 22 24 23
47 52 47 47 33 30 34 38 42 37 41 47 58 65 59 40 23 16 15 17 20 19 18 20 20 19 17 14 13 11 10 10 10 10 11 14 17 21 24 27 28 21 21 21 21 23 24
48 51 47 38 36 37 39 40 41 42 41 46 55 65 58 41 27 18 16 16 20 19 18 19 19 19 19 18 15 15 12 12 12 11 12 13 13 15 18 23 24 23 25 24 24 25 24
52 51 40 36 34 38 40 43 44 43 42 47 54 64 59 41 30 17 14 16 19 22 20 19 17 19 20 20 17 15 13 13 13 13 13 13 15 16 16 19 18 18 21 22 23 21 20
54 40 33 35 37 37 38 42 45 48 52 45 55 63 57 37 25 18 15 15 19 23 23 21 21 18 18 17 18 17 16 15 15 14 14 14 14 16 18 18 15 16 20 19 19 19 19
44 33 35 40 42 43 41 43 47 49 52 54 54 61 50 32 23 19 17 16 18 20 24 26 25 23 23 22 20 18 18 17 16 14 15 14 15 15 16 17 18 17 17 17 18 18 16
35 33 38 41 44 45 47 48 48 48 47 52 53 60 44 29 24 21 18 18 17 20 23 27 29 26 25 25 22 21 20 20 20 18 17 17 15 15 16 17 17 17 17 18 19 19 18

GFSGBSN_500_spd_069.txt.gz
Wind_Speed
36 40 45 52 58 63 70 78 82 83 75 64 51 49 50 46 44 54 52 54 50 25 20 19 15 17 19 39 62 65 60 56 58 58 60 57 53 48 52 52 51 54 52 50 47 48 61
36 39 45 50 56 62 69 76 81 83 74 63 51 47 49 48 46 53 57 60 45 31 14 15 15 15 15 21 47 63 62 58 56 56 62 56 54 49 49 49 49 51 47 59 54 37 53
34 39 46 51 54 61 66 74 80 85 79 64 50 46 48 44 45 55 58 58 54 28 14 8 15 14 13 15 23 52 64 61 56 54 59 54 53 52 48 48 48 51 51 50 51 47 53
34 41 45 50 54 60 66 73 79 83 76 64 51 43 47 41 46 55 52 54 53 30 18 11 4 6 10 8 13 33 59 63 54 53 53 54 50 53 50 46 47 49 53 50 49 58 60
35 42 43 48 54 58 64 72 78 82 82 65 53 41 44 40 46 51 43 52 52 37 19 10 8 2 7 8 11 27 40 61 58 54 49 52 50 49 53 48 46 48 48 46 52 59 58
34 42 43 46 53 55 64 69 77 81 82 67 55 41 42 36 44 47 38 44 52 48 30 11 5 4 5 8 12 28 43 50 59 57 50 49 51 48 52 51 40 30 38 38 48 47 63
34 39 42 47 49 52 60 68 74 79 79 65 56 41 39 40 36 43 31 45 48 48 41 14 4 3 2 5 12 47 39 42 58 59 52 49 52 45 45 45 40 33 32 26 34 47 51
31 35 40 48 48 50 58 66 73 78 80 73 57 42 37 38 33 40 38 39 45 46 38 29 6 2 3 6 19 24 32 45 58 58 50 52 43 39 40 43 42 36 31 28 27 31 38
30 35 39 46 50 51 55 64 71 76 80 78 63 45 34 34 33 36 37 29 38 42 39 36 19 1 5 7 20 29 35 52 56 56 44 45 45 35 36 40 41 37 29 26 25 25 36
29 35 40 44 50 51 54 60 68 74 78 78 65 47 32 31 29 31 32 29 36 40 42 34 27 10 4 12 22 29 43 59 46 40 42 43 43 39 35 39 37 35 29 26 27 25 24
29 36 41 43 48 48 50 58 67 71 76 77 70 50 29 27 27 28 27 25 31 35 46 34 33 22 12 12 25 27 55 55 44 47 39 45 44 40 36 40 38 34 31 25 22 22 24
30 36 39 43 47 46 48 54 64 68 73 75 72 53 29 25 23 22 22 20 25 35 34 34 28 23 19 19 25 41 59 53 51 39 47 45 43 37 34 38 38 36 33 29 27 26 24
34 35 36 39 43 43 43 51 60 64 68 72 74 57 34 22 18 17 19 14 18 33 35 31 27 24 20 25 33 51 37 50 34 44 42 38 38 33 31 35 37 35 32 30 27 25 20
32 31 33 37 42 41 41 49 55 63 63 66 73 65 39 23 17 13 14 13 12 24 28 28 24 22 38 29 23 21 28 33 25 30 29 40 37 33 30 30 32 34 32 30 27 23 20
26 30 33 35 41 43 38 47 51 61 63 64 70 70 42 28 14 12 8 11 9 13 18 21 20 18 20 19 18 25 36 19 28 32 27 29 31 30 29 29 30 30 30 27 25 23 19
28 29 32 36 40 45 36 43 49 56 58 62 66 67 53 30 15 12 8 5 6 10 10 15 19 18 14 17 14 12 14 19 23 31 28 33 31 28 26 28 29 28 26 27 23 22 24
28 28 31 37 40 45 35 40 48 53 56 60 63 66 58 41 23 11 10 5 6 4 6 9 12 14 11 10 12 11 9 11 30 27 26 23 25 29 29 26 25 28 28 26 22 22 21
25 28 29 35 39 45 34 36 46 50 53 56 62 69 64 54 31 14 10 11 7 7 2 1 4 8 8 9 7 10 12 14 13 15 20 21 24 29 33 34 32 31 32 34 28 22 22
25 28 30 36 39 41 41 32 44 46 53 49 59 66 67 58 34 19 13 13 13 10 9 5 3 3 5 6 6 8 13 16 17 17 18 19 14 20 23 26 33 35 29 25 24 26 26
24 25 29 35 40 40 43 31 42 41 47 46 58 65 68 62 43 21 13 15 13 13 12 12 9 6 3 3 4 5 5 9 13 16 16 19 16 18 25 28 29 27 24 23 24 27 27
23 22 29 34 40 41 43 31 39 39 42 47 56 61 69 68 52 28 16 14 15 15 12 13 13 11 8 6 4 5 5 7 10 12 14 16 17 17 15 20 26 29 27 30 31 26 27
27 26 31 33 38 42 43 29 35 35 41 45 51 60 70 72 55 33 16 10 17 15 17 13 13 14 14 11 8 8 8 9 10 11 11 14 15 16 15 17 17 19 24 28 31 32 29
30 31 33 35 41 46 45 28 32 36 42 47 51 56 68 71 57 33 18 13 14 20 17 20 16 14 14 13 12 12 13 13 12 11 12 14 15 17 17 17 17 19 18 19 21 23 23
36 36 35 38 45 49 43 30 32 37 45 49 53 53 62 73 63 41 18 13 13 18 20 17 22 20 18 16 15 13 12 13 13 12 12 13 16 18 18 23 24 18 20 21 21 21 24
42 38 38 42 47 52 42 30 32 41 47 48 52 54 62 68 65 41 20 13 12 13 20 19 18 21 20 19 17 15 14 13 13 14 14 13 14 16 19 21 23 22 24 25 25 22 23
46 44 45 48 52 54 45 33 37 40 41 43 50 53 57 62 65 42 21 15 14 14 19 21 18 18 20 18 18 17 17 17 17 15 15 15 14 15 16 18 18 17 19 22 24 23 25
43 44 45 50 54 49 42 37 36 35 40 44 47 50 56 62 62 48 24 18 16 15 15 22 21 19 17 18 20 21 19 18 17 15 16 16 16 16 16 17 16 17 17 19 22 22 22
46 47 47 49 49 47 39 34 34 38 42 46 48 51 55 61 60 45 28 20 18 17 15 20 24 24 22 21 20 19 20 19 18 16 16 16 16 16 17 16 16 19 19 20 20 20 19
53 50 48 48 43 44 37 33 35 39 46 47 48 50 53 58 56 43 27 21 17 16 16 19 25 24 25 25 24 22 20 19 20 19 19 19 18 17 17 17 18 19 20 20 20 19 19

GFSGBSN_500_spd_072.txt.gz
Wind_Speed
28 32 40 41 46 53 56 64 72 78 83 85 77 61 46 44 40 47 44 51 59 58 45 17 22 21 17 21 49 61 60 58 59 65 61 61 57 52 48 48 48 48 46 44 50 49 60
26 31 38 41 44 53 57 64 71 77 81 84 79 62 45 41 40 46 42 53 58 56 52 25 14 17 16 14 28 58 60 54 59 58 65 61 57 54 50 49 50 48 54 56 43 47 58
27 32 37 40 47 52 56 62 70 78 82 84 81 65 46 41 38 44 38 51 56 55 51 29 13 15 15 13 16 45 59 53 56 56 57 58 57 55 51 50 51 49 50 54 50 44 45
28 32 35 38 47 51 56 61 69 77 80 84 80 69 46 42 37 43 41 46 54 55 48 33 15 7 11 10 12 28 58 56 49 50 52 58 53 55 52 49 51 50 48 59 50 50 46
26 33 35 38 45 51 53 59 67 75 79 83 81 70 47 41 37 43 41 41 50 52 44 36 16 3 5 7 7 21 49 58 50 47 44 55 51 55 54 50 49 49 47 52 57 53 50
30 31 33 39 45 50 52 57 63 72 77 81 82 70 47 40 37 42 37 44 46 51 44 40 16 2 3 7 9 16 39 58 52 45 42 46 46 52 55 50 43 34 34 48 44 41 45
30 30 33 38 46 50 51 54 60 70 75 79 81 67 49 40 34 39 33 41 44 50 46 42 21 5 3 4 7 16 32 47 52 47 45 44 48 44 51 47 42 35 33 36 40 38 42
30 30 33 38 43 49 51 54 58 66 75 77 80 75 53 39 32 36 32 40 41 49 45 45 30 7 1 3 4 35 36 39 52 51 44 48 43 37 46 46 43 38 33 35 33 38 42
28 29 35 41 41 45 50 53 55 63 71 75 80 78 54 38 31 32 30 38 43 46 44 44 35 16 2 3 5 25 32 35 51 51 43 48 44 40 46 44 42 39 33 31 30 27 31
27 29 34 40 38 42 47 51 51 60 67 73 79 76 53 36 29 28 27 31 44 43 42 38 36 25 9 3 13 18 30 34 49 51 44 47 41 34 39 41 40 37 33 29 30 25 25
25 28 34 36 35 39 45 49 48 56 63 70 76 75 57 37 25 24 25 27 38 41 37 32 33 28 15 9 14 14 22 33 51 48 45 44 42 37 35 37 40 37 33 29 28 26 18
24 29 29 32 32 37 43 45 45 54 59 67 73 75 62 39 26 19 19 23 30 37 33 29 31 28 19 7 18 16 26 47 46 45 41 42 42 26 34 33 36 35 34 31 27 21 15
21 24 24 29 30 35 40 43 44 50 54 63 68 75 69 49 29 18 15 16 22 31 30 27 29 33 26 13 12 37 39 36 35 32 40 40 37 30 31 29 35 35 36 32 29 23 17
20 21 25 27 29 33 39 42 42 46 51 60 63 71 75 60 35 19 14 13 15 22 27 22 21 26 26 27 37 42 31 30 25 21 35 37 33 33 32 31 36 38 36 33 30 24 20
22 23 25 26 29 31 36 41 39 45 47 55 59 69 76 68 42 23 13 9 11 14 20 22 18 18 18 23 18 11 14 13 4 30 32 33 35 31 27 28 36 35 35 31 29 26 21
23 24 25 24 28 30 34 41 39 42 45 49 57 62 71 72 52 30 15 9 7 8 12 16 17 16 16 19 30 20 6 7 8 13 20 29 34 28 25 27 31 33 32 30 28 26 23
23 24 23 24 26 28 32 39 39 38 40 46 55 58 65 71 63 34 17 10 6 5 5 7 12 13 11 16 16 4 9 13 22 18 11 27 28 25 24 26 27 30 31 30 29 27 24
21 20 21 22 23 27 31 36 39 34 36 42 51 57 61 68 67 46 20 14 7 6 3 1 5 7 8 8 5 10 9 19 21 21 20 19 24 27 28 23 24 25 26 27 26 25 19
19 18 16 17 22 25 31 36 39 33 37 40 49 56 61 65 71 58 26 13 11 7 8 4 2 1 4 7 5 7 12 15 22 19 21 23 19 19 28 30 30 29 28 29 31 31 28
16 14 15 17 20 25 32 36 41 33 36 40 48 54 59 63 68 64 33 14 11 10 9 11 8 5 3 2 5 7 9 11 15 19 21 21 21 22 25 31 34 38 37 33 32 28 26
16 9 10 19 22 25 31 38 44 37 35 40 48 53 54 60 64 64 39 17 11 12 11 11 13 11 9 7 6 6 6 10 15 16 18 20 22 22 19 24 28 31 33 31 34 29 29
21 19 17 21 24 27 30 37 45 44 36 40 45 49 50 58 63 64 41 18 15 12 12 13 12 15 15 13 9 9 8 8 10 12 16 18 20 18 22 20 20 25 30 32 32 32 30
26 26 23 21 27 29 31 37 44 44 40 38 40 46 49 55 60 63 50 21 14 11 14 14 14 15 15 16 15 13 13 12 12 12 13 14 15 16 16 18 18 19 17 20 25 26 28
28 30 31 25 27 29 34 37 42 42 40 34 39 46 48 52 58 63 53 21 13 9 10 17 17 19 16 16 16 16 16 14 14 15 15 14 15 16 14 18 20 15 17 18 19 20 22
30 30 30 28 25 28 32 36 40 43 36 33 38 46 49 50 55 62 50 22 11 9 12 14 19 17 23 22 20 18 17 15 14 14 14 14 15 14 15 16 17 18 19 22 23 20 23
29 30 27 28 29 30 34 35 40 42 35 32 39 45 45 47 52 57 54 31 13 12 11 12 19 18 18 23 22 20 20 18 17 15 15 16 17 17 16 16 16 14 18 20 22 23 27
31 31 31 32 35 35 35 40 43 42 35 34 38 42 40 45 51 54 54 36 20 13 14 13 17 21 19 18 23 22 22 20 20 18 18 19 18 18 18 18 16 17 17 19 21 20 23
42 39 39 40 41 40 41 44 44 39 31 33 35 38 39 43 48 51 49 38 23 15 15 14 14 20 23 22 19 21 23 24 21 20 21 21 20 19 19 19 18 18 19 20 20 18 18
43 44 47 45 42 41 45 46 45 32 30 32 33 37 37 39 43 48 45 41 23 18 19 18 16 16 22 25 24 20 20 21 22 22 22 22 21 20 20 19 20 19 19 20 21 20 18

GFSGBSN_500_spd_075.txt.gz
Wind_Speed
26 26 29 33 35 43 47 50 57 62 68 74 82 86 74 61 48 39 43 37 46 52 52 50 32 13 19 17 19 33 57 57 51 44 57 69 62 60 55 50 48 47 50 50 51 39 56
27 25 28 32 35 41 48 50 57 61 67 73 80 86 78 60 49 41 40 40 46 54 52 48 31 12 15 17 18 23 48 55 54 46 54 68 62 58 54 50 48 49 48 49 49 45 42
30 28 29 33 35 41 47 50 55 58 65 70 78 85 78 59 50 42 38 41 49 54 52 46 29 14 11 13 15 18 37 52 55 46 50 66 59 59 55 50 47 49 47 47 54 50 40
28 29 29 32 35 41 46 49 54 56 63 69 76 83 79 58 49 41 38 43 47 51 50 47 26 14 6 11 11 11 26 48 47 45 51 59 56 55 54 52 47 49 48 47 49 45 45
28 29 30 32 34 42 44 47 51 54 60 67 73 81 82 60 45 40 37 41 47 48 47 47 27 9 6 5 9 9 19 42 37 50 49 52 49 55 54 52 47 43 42 39 49 42 42
28 30 31 32 36 41 42 44 47 53 59 66 72 79 81 61 43 39 36 41 47 47 46 46 31 7 6 3 8 7 19 38 47 54 44 52 55 52 54 53 49 44 35 38 41 46 45
27 28 30 31 35 39 40 43 44 51 57 63 70 76 80 68 44 37 36 38 46 46 45 46 36 6 3 2 4 9 18 36 46 49 43 49 48 40 53 52 47 42 39 32 38 38 45
27 27 29 31 34 37 38 40 41 48 53 61 67 73 79 72 46 35 35 34 44 46 44 45 37 13 3 4 5 7 19 37 45 44 39 49 51 39 49 51 47 42 38 39 33 37 36
25 26 26 28 33 33 34 37 40 45 50 57 65 68 77 74 47 32 31 32 41 46 42 43 36 23 6 5 3 9 26 36 42 38 39 42 38 27 41 53 47 41 35 32 30 32 33
23 23 23 27 29 29 32 35 38 43 47 55 62 68 74 73 52 34 28 31 36 42 40 38 39 27 13 10 15 23 21 36 38 37 40 46 39 29 36 49 46 38 34 28 29 28 30
22 20 19 22 26 28 32 33 36 41 45 52 59 65 71 74 56 33 26 27 31 40 38 36 34 38 12 15 14 22 21 36 38 39 40 44 44 26 36 41 44 38 32 26 25 27 24
20 19 17 18 25 28 30 33 35 40 41 47 55 62 69 72 60 41 25 23 27 35 31 37 28 34 20 8 13 17 19 31 41 39 39 46 39 26 35 39 39 35 32 29 26 28 25
20 18 16 18 23 29 29 32 36 37 39 43 51 58 65 70 62 46 24 20 22 28 34 33 31 32 24 4 11 18 17 30 41 38 38 48 38 25 30 32 34 34 33 33 30 27 23
19 20 17 17 21 25 29 29 33 34 36 41 47 55 61 68 66 51 26 19 17 20 28 28 25 29 34 32 31 25 23 33 37 35 32 40 34 23 30 29 30 37 35 34 33 30 20
18 18 18 18 18 22 26 28 32 31 34 39 45 52 58 64 66 58 34 18 12 15 19 23 22 19 23 24 29 38 26 21 23 27 29 31 30 25 22 25 30 32 36 37 34 30 22
18 18 18 18 16 20 23 25 31 30 33 38 43 49 54 60 64 62 40 20 10 9 12 16 18 19 19 12 12 12 17 17 16 23 25 26 22 27 23 24 25 28 30 32 32 29 25
19 18 16 15 14 16 18 23 28 31 34 37 42 47 53 58 64 63 47 25 9 5 6 9 12 14 18 14 8 7 6 8 9 26 25 25 27 25 25 23 22 28 30 31 30 29 28
20 17 14 12 10 10 17 22 27 32 35 36 40 44 51 55 63 65 52 33 15 4 1 3 5 8 11 10 2 4 3 5 10 7 8 18 24 24 22 19 19 22 27 30 31 31 29
22 16 13 9 9 8 13 22 27 32 35 37 39 41 47 53 59 64 57 30 18 6 5 3 1 3 4 6 8 6 4 12 12 16 16 19 22 21 21 24 22 25 26 28 30 30 30
22 16 12 9 4 7 14 22 27 31 33 35 39 39 45 51 54 61 58 34 18 10 6 9 7 4 2 4 5 7 7 4 15 11 14 18 21 24 23 23 27 27 25 27 28 32 31
21 18 14 13 10 12 14 23 25 30 34 35 39 40 43 46 49 58 59 42 18 10 6 10 13 11 9 6 4 5 7 11 13 16 19 21 22 22 23 25 28 30 32 34 34 34 35
22 19 19 16 13 14 16 19 23 28 33 36 38 40 43 44 45 52 57 45 20 12 3 10 14 16 14 12 9 7 6 7 11 16 18 20 22 23 22 23 24 25 29 32 35 36 40
23 23 24 22 19 18 21 16 21 25 31 38 38 38 41 43 45 49 53 49 29 14 7 9 15 14 17 16 14 12 11 10 11 13 15 16 20 22 23 25 26 23 24 27 29 32 34
30 24 25 21 19 18 15 16 21 24 31 36 37 35 38 41 43 46 49 48 33 16 11 8 13 15 16 17 17 16 15 13 14 14 15 15 17 18 16 19 21 18 19 20 21 21 25
35 28 25 21 17 12 13 18 25 28 32 34 35 31 34 38 40 43 46 45 35 16 11 11 11 17 16 20 18 17 17 15 15 15 15 17 17 16 16 16 17 17 17 18 18 20 24
38 32 27 22 19 17 16 20 26 27 30 36 26 29 31 34 37 39 43 43 38 24 14 11 11 12 17 17 24 22 21 19 19 17 16 17 17 17 17 16 15 13 17 18 20 21 23
40 36 32 26 23 20 20 25 27 27 32 28 24 26 28 31 33 34 39 39 37 32 17 12 11 12 14 20 19 24 24 24 24 21 20 20 20 18 19 19 15 16 16 18 21 20 20
41 37 33 28 30 27 26 29 30 30 34 29 25 23 25 29 30 32 36 37 37 35 25 17 12 12 13 19 23 21 22 25 23 23 22 23 22 20 20 20 18 17 18 19 19 20 20
38 38 36 34 35 33 31 33 33 33 39 31 22 19 22 25 26 29 32 35 35 34 31 22 15 14 15 17 21 24 20 20 23 24 26 25 25 24 23 21 22 20 18 18 19 20 19

GFSGBSN_500_spd_078.txt.gz
Wind_Speed
28 29 28 30 30 34 35 42 45 45 50 54 61 68 75 81 73 57 44 38 40 48 50 52 50 31 14 21 18 18 20 40 57 53 48 50 64 62 60 60 55 51 45 45 49 51 68
29 30 29 29 29 32 36 40 43 44 49 53 59 67 74 79 74 56 44 40 43 50 50 51 48 28 13 13 18 16 15 35 47 48 48 49 50 65 63 59 55 53 45 42 42 54 56
28 29 28 29 29 33 37 39 41 42 46 53 59 65 72 78 75 56 44 42 43 52 50 50 45 23 12 8 15 16 14 32 50 33 41 45 48 60 67 61 58 53 51 40 40 43 52
29 29 28 29 30 32 36 38 41 39 43 50 57 64 72 77 72 56 44 42 44 52 50 50 43 18 8 5 10 10 12 30 44 41 38 43 43 48 63 58 53 54 50 44 40 46 47
27 28 28 29 30 31 34 35 37 36 41 48 54 62 70 76 73 58 44 39 43 51 49 48 42 18 7 4 9 8 14 29 38 44 38 45 43 41 63 56 52 47 48 48 42 45 38
25 27 26 28 28 30 32 32 34 35 40 46 53 59 67 74 73 55 41 38 41 48 47 46 43 21 9 3 6 5 22 35 31 46 38 46 47 45 61 61 54 46 41 44 45 44 38
23 25 23 25 26 27 30 29 33 35 39 44 51 57 64 72 73 57 40 35 40 46 46 44 45 22 9 3 2 5 25 43 30 46 38 36 50 47 58 58 54 49 40 40 39 38 39
23 21 21 23 23 25 26 29 32 34 38 42 48 55 62 70 73 63 40 33 36 43 45 44 44 24 6 3 4 4 26 39 35 52 39 44 39 44 55 54 52 48 41 32 33 39 37
22 19 19 21 20 21 25 28 31 34 35 40 46 53 60 68 71 65 41 30 35 41 43 42 43 24 13 5 9 6 25 39 39 44 48 42 37 34 49 51 45 45 38 35 28 31 35
20 18 17 18 17 19 25 27 30 34 33 37 43 50 57 65 70 66 40 28 32 37 42 39 37 22 19 12 14 8 22 44 39 39 41 47 44 32 34 48 45 41 37 32 31 29 28
20 18 18 16 17 20 25 27 28 30 29 35 40 48 54 62 69 65 48 26 29 35 38 42 31 18 21 16 11 10 36 39 36 39 36 43 38 25 29 40 44 38 34 28 26 28 27
20 20 18 16 16 19 24 25 28 28 27 32 38 46 52 59 67 69 44 25 24 31 31 38 37 22 9 10 18 17 36 35 40 34 41 42 13 19 28 34 42 39 33 30 27 27 26
21 20 18 16 16 18 21 23 27 24 24 29 37 43 50 56 64 69 50 27 22 26 29 28 37 35 18 11 15 20 32 35 40 41 25 36 22 21 23 30 35 39 35 32 29 27 24
22 20 19 17 16 18 18 21 24 20 21 28 35 40 48 52 61 67 54 30 17 20 23 23 26 34 41 22 21 20 28 36 36 37 34 37 27 18 25 26 28 37 35 34 32 30 22
23 20 20 17 14 16 15 17 18 17 20 26 32 38 45 49 56 64 56 32 21 12 18 14 17 19 25 33 32 26 32 30 32 32 24 39 24 22 23 26 29 33 35 35 33 31 24
25 21 19 17 14 14 11 11 14 17 21 27 30 35 42 46 53 60 57 41 19 9 12 11 9 14 15 22 28 26 24 22 21 22 26 35 26 19 21 23 26 26 30 33 33 33 29
27 23 18 16 13 11 9 8 13 17 20 25 30 34 39 44 50 56 58 46 23 7 6 10 6 5 10 14 17 20 20 18 19 16 22 34 25 19 22 22 22 24 26 32 35 36 32
29 25 20 18 14 12 10 8 13 15 19 23 29 34 38 42 47 51 57 51 33 9 2 3 6 3 2 4 7 7 11 13 10 16 19 25 23 17 21 17 18 18 23 26 29 30 31
33 24 21 18 15 14 9 6 11 15 19 23 28 33 37 40 43 47 52 50 36 15 1 4 2 3 2 1 1 2 2 7 10 15 20 21 19 24 22 21 20 19 17 22 26 28 30
33 25 23 21 18 16 10 8 9 12 16 22 27 30 35 39 42 44 47 47 39 21 4 8 7 4 2 1 2 6 3 2 14 13 12 15 17 22 22 21 21 21 21 23 27 32 32
34 25 24 22 21 17 10 9 9 10 14 20 25 28 32 35 39 40 43 44 43 26 12 7 12 10 7 4 2 2 5 5 6 11 16 21 21 23 25 25 23 25 26 28 30 28 30
32 30 24 23 23 17 14 8 10 11 14 20 23 26 29 32 36 37 40 41 43 33 17 5 10 13 12 10 8 5 5 5 9 10 15 19 21 24 24 23 24 26 28 30 32 33 35
36 33 24 21 26 18 11 7 6 12 14 19 22 22 25 28 32 34 36 37 40 36 22 10 4 11 15 17 14 12 10 9 9 11 14 15 17 22 25 27 26 25 25 27 28 29 33
38 37 25 21 24 23 17 8 7 12 14 18 21 20 23 25 28 31 34 34 36 36 24 11 6 8 15 15 20 18 16 15 13 13 14 16 18 20 21 24 28 24 25 27 28 27 29
39 40 26 29 21 19 14 7 7 13 14 19 21 21 21 21 24 28 30 31 32 34 28 14 8 7 12 16 18 19 20 19 17 16 16 17 20 21 21 22 24 22 23 25 23 23 25
39 36 34 30 26 16 14 9 7 10 13 19 21 21 18 19 21 24 26 29 29 32 29 21 12 9 9 16 20 24 22 20 20 17 17 17 18 20 20 21 21 17 20 23 23 24 23
37 45 35 33 29 21 13 13 10 12 16 18 26 20 17 16 18 21 23 26 27 28 29 24 15 12 12 15 18 21 21 25 24 23 21 21 21 20 22 22 19 20 20 21 22 22 22
37 36 34 33 34 26 20 20 15 17 21 21 26 20 15 13 17 18 19 22 24 26 27 28 23 18 10 13 13 17 20 21 24 25 25 27 25 22 25 25 21 21 22 22 22 21 21
38 35 34 35 36 30 25 23 20 20 23 21 24 18 13 13 14 15 17 20 22 24 24 26 26 24 13 13 15 15 20 21 23 23 26 26 27 27 26 25 25 23 22 22 22 22 21

GFSGBSN_500_spd_081.txt.gz
Wind_Speed
31 30 28 29 31 30 31 33 36 39 39 40 45 51 56 64 73 78 65 47 42 42 46 53 51 52 47 23 18 23 18 22 25 59 46 64 49 60 61 69 68 66 54 52 48 53 54
30 30 29 27 28 30 30 31 35 37 37 39 45 50 56 63 71 77 65 49 42 43 48 53 50 49 39 21 13 19 18 23 34 48 38 58 58 51 61 63 71 66 57 57 59 50 51
28 29 27 26 29 28 31 30 33 35 36 39 44 49 56 62 70 76 68 47 40 44 50 51 49 46 30 15 11 17 19 22 48 47 41 47 58 56 59 62 63 62 59 46 48 49 50
28 27 24 24 28 25 29 30 31 32 35 38 43 47 54 61 70 74 69 48 40 44 49 50 48 44 20 14 9 15 18 25 47 30 45 45 37 44 54 59 59 49 53 50 52 50 46
28 27 24 23 28 24 27 27 27 32 34 37 40 46 51 59 68 74 66 44 40 44 48 48 47 40 16 10 6 11 15 33 41 38 44 41 37 43 48 50 55 54 51 47 44 45 43
27 26 25 23 26 23 26 26 26 31 33 36 38 44 50 59 67 71 64 43 39 44 48 48 46 32 13 8 4 8 14 41 46 40 45 43 40 38 37 44 50 46 56 47 40 40 40
28 25 23 23 23 22 24 23 26 29 34 34 36 42 48 57 65 70 61 41 38 45 48 49 44 28 11 7 2 8 17 42 49 42 40 40 43 31 31 40 48 51 48 43 46 41 37
29 24 24 23 22 20 22 22 24 28 32 31 34 40 45 55 64 68 58 41 35 40 45 45 37 26 12 9 4 4 26 37 53 45 47 42 36 30 40 43 52 54 47 49 46 41 37
27 25 24 23 21 19 21 21 24 26 31 28 31 38 43 51 61 65 59 41 31 37 41 42 31 27 18 13 13 8 27 41 48 45 49 41 34 35 33 43 49 51 45 40 41 39 44
27 26 24 22 21 19 21 21 22 24 28 24 29 36 42 49 58 64 58 43 28 33 38 40 28 19 16 16 11 15 32 39 47 36 43 33 37 29 23 40 48 46 41 39 28 33 35
27 27 24 22 23 19 20 19 21 23 25 20 26 34 40 46 55 61 60 42 26 31 33 39 34 19 17 11 8 17 37 45 39 34 39 31 30 31 27 37 44 45 43 38 30 23 29
28 28 25 22 24 20 20 17 20 22 21 18 24 31 38 44 52 58 57 42 26 27 27 35 43 21 18 18 12 39 39 40 36 35 31 32 28 22 26 35 45 38 39 35 29 29 25
30 28 26 23 22 20 19 16 18 19 15 17 21 29 36 42 48 55 56 44 27 21 24 28 36 33 21 25 29 37 33 33 32 37 37 34 20 20 20 23 38 42 36 28 28 28 28
29 30 26 25 23 21 17 14 16 14 12 15 18 27 34 40 46 52 55 47 31 20 23 21 30 33 20 21 21 30 33 29 26 30 33 31 24 20 22 16 25 34 37 30 32 29 26
30 30 26 26 24 21 15 12 14 11 10 13 17 25 31 37 42 48 53 49 42 17 18 19 24 30 28 20 22 32 35 36 31 25 27 24 18 20 19 18 22 31 34 34 32 32 30
34 31 28 25 25 22 15 12 12 8 7 11 17 24 30 36 39 45 50 50 39 19 12 17 17 22 27 26 26 28 32 31 23 32 28 22 19 18 20 18 22 24 29 31 32 32 30
33 32 29 27 26 24 16 13 10 5 4 9 15 21 27 32 37 41 45 49 45 29 9 12 16 14 17 20 21 20 22 24 20 20 26 18 13 14 19 22 18 22 24 30 33 36 33
35 33 33 29 28 24 17 15 7 2 2 7 13 19 24 29 34 36 42 47 46 32 8 5 9 12 10 11 14 14 14 8 8 14 24 29 17 14 13 18 18 19 21 27 31 32 34
39 36 35 26 31 26 20 16 8 4 1 7 11 17 21 26 30 32 38 43 43 35 15 2 1 6 8 6 7 9 10 9 8 11 15 31 24 18 16 17 17 17 17 21 24 28 32
36 35 34 30 31 27 23 18 12 6 3 5 9 14 18 23 26 29 33 41 41 37 23 6 3 2 2 4 3 2 5 5 10 14 13 22 21 25 22 22 18 19 19 19 23 27 27
47 33 34 34 28 23 25 21 13 8 6 6 8 10 16 20 22 25 29 36 38 37 30 10 5 7 5 3 2 1 3 2 7 14 13 14 21 23 27 26 25 23 22 22 24 20 27
42 30 34 34 25 23 30 25 14 12 7 6 7 8 13 18 20 22 25 31 37 37 32 20 4 8 10 9 7 5 4 4 5 8 10 16 16 18 22 25 25 26 25 26 27 26 30
35 31 36 35 25 23 29 20 16 11 5 5 3 8 11 14 17 19 22 26 34 37 34 25 11 7 12 14 12 11 10 9 8 8 12 14 19 23 24 24 26 26 26 26 28 29 32
43 39 38 30 28 22 27 18 14 11 6 4 6 8 8 11 14 16 19 22 27 31 32 30 16 8 9 14 13 18 18 15 14 14 13 15 18 20 22 26 29 29 28 30 31 31 32
48 45 36 30 28 19 24 25 22 12 9 6 7 6 7 8 12 14 15 19 23 27 29 28 25 15 8 10 15 18 17 21 21 20 18 18 20 21 23 24 25 25 25 28 30 30 31
45 45 37 36 31 24 17 19 21 16 9 4 8 7 7 7 10 11 13 17 19 22 24 26 26 19 12 12 13 18 17 19 22 22 23 22 22 23 23 26 26 24 23 26 28 30 27
53 48 39 39 36 25 21 18 16 14 8 1 6 9 8 6 9 11 12 13 15 19 21 24 25 21 18 12 15 13 17 21 24 26 24 24 24 24 25 27 24 24 24 25 27 29 25
55 51 41 30 33 30 23 21 18 13 6 3 5 9 8 6 9 10 11 12 13 16 17 20 22 21 21 13 11 13 16 20 26 24 22 28 30 27 28 30 28 25 26 26 27 28 28
53 57 42 31 32 32 26 23 21 13 9 3 5 8 7 6 10 11 10 10 10 13 15 17 17 16 20 14 9 12 16 20 22 24 24 25 27 29 27 29 30 30 29 28 28 28 28

GFSGBSN_500_spd_084.txt.gz
Wind_Speed
30 29 27 28 27 30 29 32 32 34 36 37 39 43 46 49 55 63 69 69 54 46 43 46 51 53 49 45 22 12 18 17 23 27 48 43 58 71 67 70 70 67 58 61 52 48 43
33 29 27 27 27 28 28 31 30 33 34 36 38 42 44 47 55 62 68 66 53 46 44 48 53 53 49 26 20 11 18 14 21 26 51 39 40 62 57 66 74 69 59 59 51 51 23
36 32 27 27 29 28 27 28 27 31 32 36 38 41 42 46 55 62 68 65 50 43 46 49 54 52 39 19 16 10 15 15 19 25 53 42 34 58 56 60 67 67 62 65 58 44 37
38 35 28 27 27 29 26 26 27 29 31 34 38 39 41 45 53 61 67 65 50 43 45 49 53 48 28 15 13 7 16 18 38 28 40 48 40 39 54 61 63 66 63 49 49 46 30
40 37 31 26 27 28 26 25 25 27 31 33 37 37 40 44 52 59 64 62 49 43 44 50 53 39 26 13 7 6 16 22 39 27 33 43 47 37 42 51 44 60 55 50 56 43 37
41 37 34 27 28 28 25 25 24 25 30 31 34 34 38 42 50 58 62 60 49 43 43 49 48 37 22 12 5 6 14 22 35 34 31 42 44 44 45 47 45 51 54 57 54 36 34
41 37 31 29 28 28 24 26 23 24 28 30 32 32 36 41 48 56 61 58 47 42 42 49 44 29 22 16 4 7 14 23 35 36 28 45 43 48 35 42 35 33 40 49 53 45 34
39 38 28 30 29 28 24 25 21 23 26 28 29 29 35 39 46 54 59 57 43 39 41 47 39 25 22 18 5 6 15 37 33 34 31 34 35 43 36 38 40 41 36 31 45 45 39
39 38 34 31 29 29 25 24 21 23 24 27 25 27 32 38 45 53 57 54 41 35 40 44 39 24 22 20 14 6 20 41 33 31 37 34 30 34 31 37 40 41 45 29 36 36 37
43 37 33 30 30 28 24 24 20 21 23 26 23 25 30 36 43 51 54 53 41 36 37 44 38 23 22 16 11 17 42 40 30 34 32 33 23 28 24 31 39 40 39 43 38 35 32
43 33 27 32 31 27 25 24 19 19 21 24 19 22 27 33 41 47 53 49 42 37 36 43 39 33 20 12 17 23 35 39 36 40 39 35 36 46 31 29 30 39 40 41 35 30 33
46 39 33 22 31 28 26 23 18 17 19 19 17 18 25 31 38 45 49 48 44 35 32 37 38 29 18 20 27 23 32 22 30 33 29 30 29 25 23 30 37 27 33 41 39 28 30
44 37 34 29 31 28 26 23 16 15 17 16 13 15 22 28 35 42 46 46 40 32 32 34 38 30 31 27 26 27 22 29 29 31 25 30 29 19 12 13 35 39 33 36 34 32 28
46 37 34 23 28 29 26 22 16 14 14 12 8 13 19 26 32 39 43 46 43 36 28 28 37 23 25 26 33 27 27 25 30 27 23 23 19 15 18 18 21 25 27 30 34 33 27
49 44 32 24 31 29 26 22 17 14 13 10 5 10 17 23 29 35 41 44 46 29 23 24 31 27 21 22 23 23 23 20 21 25 27 18 12 12 15 15 22 27 29 33 30 30 29
53 45 35 30 31 30 27 23 17 15 12 8 4 8 14 21 25 32 38 42 41 31 17 21 22 29 20 22 20 22 24 22 23 25 17 14 15 16 17 11 13 21 33 34 33 28 27
50 40 39 32 32 28 26 25 18 15 12 8 4 6 10 19 23 29 34 38 43 40 18 15 17 21 22 21 19 18 17 16 17 21 21 15 14 17 21 15 16 18 20 27 31 32 23
49 44 35 34 33 27 27 28 21 15 12 9 3 3 8 15 21 25 31 36 42 40 24 9 12 13 16 17 15 11 10 8 21 21 16 13 10 9 12 14 13 13 17 25 27 27 28
52 46 35 34 31 26 30 29 23 17 13 8 5 1 6 13 18 21 27 32 34 36 34 12 4 8 9 11 12 11 10 9 17 19 19 16 9 9 10 13 16 12 13 16 22 26 28
55 46 38 35 34 27 30 30 25 19 15 10 6 2 4 11 15 17 24 28 32 33 33 26 6 3 2 5 6 7 7 7 8 10 13 18 21 15 11 10 11 13 16 19 23 24 21
51 43 36 28 37 37 26 30 28 21 17 12 8 5 0 9 12 13 17 24 29 32 32 29 14 2 4 2 2 1 3 4 9 9 12 16 22 25 23 23 19 18 18 20 21 14 22
57 44 36 27 33 32 24 35 31 24 21 15 10 7 2 5 8 10 13 18 25 29 32 32 22 6 6 7 7 6 5 4 4 11 14 13 15 21 23 24 26 27 25 24 23 21 25
49 44 42 37 34 31 26 36 32 26 23 20 14 9 5 3 6 8 11 14 20 26 28 29 27 16 2 9 11 11 10 8 7 7 9 14 17 20 20 20 22 27 24 27 28 28 28
55 52 44 37 32 30 31 32 35 29 25 22 14 12 7 4 3 6 8 11 14 21 24 25 26 23 16 8 10 13 14 15 15 13 12 13 15 18 20 23 25 24 25 27 30 31 31
55 54 47 41 36 39 26 31 34 26 21 22 16 12 8 6 3 4 6 8 10 14 20 22 22 22 22 14 8 11 14 16 19 20 19 19 20 21 21 21 22 23 25 27 29 29 32
53 52 47 38 32 35 23 31 32 28 25 20 14 10 8 7 3 2 3 5 7 10 14 17 20 20 22 20 15 13 14 17 19 18 19 21 23 22 24 25 26 22 21 25 27 28 28
55 51 48 43 36 32 26 18 26 30 27 19 15 13 8 7 4 0 3 3 5 7 10 12 17 18 17 19 18 15 16 13 17 19 20 23 25 24 26 28 27 26 22 24 26 27 26
52 51 45 40 41 32 28 21 25 28 25 21 16 10 5 6 6 2 3 4 4 6 7 10 13 15 15 15 15 17 16 14 18 21 22 23 22 21 24 28 30 28 29 29 29 29 28
59 48 44 46 39 37 31 26 24 25 28 18 16 10 8 6 5 3 4 6 6 6 7 7 9 12 14 16 12 14 15 16 19 20 20 20 22 23 24 25 25 26 30 31 31 31 31

GFSGBSN_500_spd_087.txt.gz
Wind_Speed
37 34 32 35 36 37 31 32 32 31 31 34 34 36 40 43 45 47 53 62 66 62 54 47 46 52 55 50 35 24 21 16 14 20 32 46 51 63 70 70 76 65 64 59 64 58 63
39 39 36 32 35 38 35 30 32 31 30 33 33 37 40 42 44 46 54 62 66 61 52 45 48 54 51 41 27 21 10 17 16 22 25 49 31 59 65 70 77 75 66 59 57 62 60
49 48 40 35 35 39 38 31 32 30 30 33 32 37 39 39 42 46 54 62 64 58 49 44 49 52 46 33 20 16 10 14 19 24 31 47 31 42 57 60 73 73 69 64 56 59 55
45 49 56 35 36 38 38 33 30 30 30 31 31 36 37 36 41 47 54 61 62 56 48 45 51 47 37 31 19 8 13 15 23 28 35 45 33 41 53 55 74 74 68 60 61 57 56
48 49 54 53 36 36 39 34 30 29 28 29 31 33 34 36 40 46 53 59 60 53 47 45 51 42 30 26 18 2 10 20 23 27 41 40 37 45 45 55 73 69 57 57 53 59 51
53 51 53 56 40 36 37 36 30 29 28 27 30 31 30 35 39 45 53 58 58 51 45 47 49 39 27 23 17 3 13 18 19 29 47 35 36 48 36 50 55 68 62 52 61 54 60
56 53 52 52 50 32 35 36 30 29 26 26 28 30 28 32 37 43 51 56 55 49 43 47 46 30 25 22 19 4 15 19 21 33 29 43 36 37 42 39 36 49 56 49 53 55 43
59 58 53 54 53 36 32 33 31 29 26 25 27 27 26 30 34 41 49 53 50 47 42 47 44 31 24 22 18 3 17 24 20 22 35 38 36 36 36 44 39 37 44 46 59 49 37
60 59 56 54 52 35 34 32 31 28 25 24 24 24 24 27 32 40 46 49 48 43 40 45 44 34 18 20 17 9 23 27 25 19 34 40 33 29 34 37 42 33 35 44 34 34 37
67 57 58 52 55 32 29 34 32 28 23 22 21 19 21 24 30 38 44 48 44 43 40 45 42 26 16 13 17 22 31 30 26 30 34 36 36 30 27 28 28 27 25 29 34 37 35
72 64 60 55 54 32 29 33 32 27 22 20 19 16 18 20 27 35 41 45 44 42 41 46 37 25 21 22 26 34 30 30 27 26 29 33 35 35 24 24 31 30 31 26 22 26 37
78 69 62 58 54 34 27 31 31 27 22 18 15 13 14 18 25 32 38 42 45 37 42 40 32 21 26 26 30 24 20 31 26 30 32 32 33 31 28 28 26 30 30 28 23 25 30
81 71 67 56 46 36 29 33 28 26 21 16 11 9 10 14 22 29 34 40 40 38 42 34 25 24 27 30 29 18 20 29 27 33 32 38 30 29 23 26 29 30 37 36 35 32 28
60 59 55 42 48 42 30 32 27 26 20 14 9 7 7 12 19 26 31 37 38 40 32 32 27 28 32 26 24 22 22 22 24 26 29 24 25 22 21 23 28 32 28 29 31 28 30
55 58 48 55 46 35 28 31 28 25 20 13 9 7 4 9 16 22 29 33 40 34 31 30 21 23 21 23 24 17 21 21 18 14 16 13 11 10 12 21 33 31 29 26 31 34 30
62 55 46 53 52 36 36 31 27 25 20 12 10 8 2 7 14 19 25 31 33 29 25 26 24 24 20 23 20 13 16 19 21 20 17 14 12 14 13 16 24 36 32 29 28 30 30
45 56 53 53 51 36 32 29 25 26 20 12 13 9 2 6 11 17 23 26 33 33 23 21 20 19 17 20 20 14 16 15 18 18 12 9 8 14 14 11 13 22 24 25 26 28 28
53 51 51 55 44 34 32 29 25 28 21 14 15 9 4 5 9 14 20 26 31 32 28 18 16 16 17 11 14 13 10 12 15 12 8 6 7 12 12 9 10 14 17 22 27 27 28
49 52 45 48 38 36 32 30 25 29 23 16 16 11 6 5 8 11 17 22 28 29 27 22 11 11 10 10 6 7 10 7 10 9 8 6 3 2 7 9 10 12 13 18 21 24 24
52 47 53 51 36 36 33 27 25 31 23 20 17 13 8 6 7 7 12 20 23 27 26 22 17 5 6 7 5 5 4 7 12 15 14 12 16 17 7 5 7 10 12 16 20 24 22
48 44 50 48 41 36 36 23 27 33 26 22 16 13 11 7 8 5 9 16 22 25 25 25 21 8 2 0 2 2 4 7 9 12 14 18 13 12 16 13 8 10 13 15 17 14 20
46 47 53 51 40 33 32 27 25 36 26 23 19 15 13 9 8 6 7 12 17 21 25 25 25 20 9 3 6 6 4 4 5 7 10 12 12 13 18 22 21 20 22 22 21 19 21
53 49 53 48 50 34 33 31 21 36 29 25 24 16 14 11 10 8 6 7 12 16 18 22 23 22 20 12 5 7 10 10 8 6 7 11 15 14 15 18 21 20 19 24 28 26 26
53 56 51 47 44 37 28 27 18 35 32 29 26 20 16 14 12 10 7 5 7 12 14 16 20 21 21 18 13 8 8 12 13 14 13 10 11 13 16 19 22 24 22 22 23 24 26
55 55 50 46 45 38 30 29 20 35 33 28 26 25 20 17 14 12 9 5 3 6 11 14 13 16 19 19 19 16 8 6 10 15 15 16 16 18 18 18 19 20 22 22 24 25 28
59 53 44 49 47 39 27 28 24 35 34 33 28 23 21 18 15 13 10 6 2 3 5 9 12 13 15 14 17 18 15 10 11 14 16 18 19 18 19 21 22 20 20 22 26 26 27
60 52 47 44 42 37 29 32 20 34 34 29 25 25 21 18 17 14 11 7 3 1 2 5 8 11 11 13 13 15 16 14 12 13 16 18 20 22 23 22 22 24 23 22 24 26 27
55 53 39 45 41 38 33 28 18 38 34 32 25 24 20 19 18 14 11 8 5 1 2 2 4 7 10 12 13 12 12 15 17 17 17 16 18 20 21 23 23 23 25 25 26 29 32
50 45 43 42 39 36 36 29 21 34 33 31 26 22 21 18 15 14 11 9 6 4 4 5 6 5 7 9 13 14 14 14 16 16 15 14 12 14 14 16 18 19 21 24 28 28 31

GFSGBSN_500_spd_090.txt.gz
Wind_Speed
39 39 38 49 50 38 34 34 33 31 35 36 37 36 36 38 39 40 44 48 57 64 67 63 57 51 50 52 46 41 27 23 22 25 22 37 40 70 67 65 68 76 54 66 66 63 59
45 41 39 38 42 45 40 35 34 33 32 36 36 36 35 38 38 39 43 49 58 64 66 61 56 52 52 47 38 34 19 14 17 21 20 24 33 60 66 65 69 66 64 67 46 69 65
53 47 43 42 39 41 44 39 34 32 32 36 35 34 34 36 38 39 43 50 59 63 65 60 53 52 49 41 33 32 14 14 16 15 17 20 33 41 61 64 65 66 72 71 57 51 65
56 53 49 46 40 38 42 45 35 31 31 34 34 33 32 35 37 38 42 50 59 63 62 57 53 52 43 35 30 26 5 16 15 21 19 27 39 40 54 62 65 69 76 65 73 53 68
55 53 51 46 37 35 41 45 41 31 30 32 33 32 31 33 34 37 42 50 58 61 59 54 52 51 37 30 24 18 7 12 18 20 21 37 37 33 53 60 66 70 69 64 59 46 64
60 55 51 48 44 38 38 43 43 28 31 32 32 31 30 32 32 35 41 50 56 58 56 54 52 47 34 24 19 10 6 13 14 24 26 37 27 39 47 60 65 72 66 62 41 61 57
64 62 55 49 44 42 37 39 39 26 31 31 30 30 27 30 29 33 40 49 54 54 53 51 49 38 21 21 16 5 9 12 12 23 34 33 41 40 47 49 55 63 63 57 40 33 49
64 64 57 53 47 42 40 38 43 33 29 30 30 27 24 26 26 31 38 47 52 51 49 45 39 27 17 21 14 14 13 14 16 19 36 31 40 39 43 40 52 51 58 61 41 44 45
72 65 61 57 51 44 40 37 34 25 25 28 28 22 23 21 22 28 36 45 47 46 44 40 35 26 20 22 28 29 23 24 19 28 32 35 41 27 40 44 38 45 58 59 46 30 46
81 75 67 57 52 47 40 34 36 29 28 30 28 17 21 18 18 25 33 40 42 44 40 38 31 31 30 32 32 32 24 23 21 31 23 32 42 30 22 40 33 36 40 53 41 26 31
96 84 72 64 54 46 45 34 33 31 30 30 27 14 16 14 16 22 30 36 39 44 39 38 28 37 38 31 26 25 26 16 18 34 19 27 31 29 23 33 29 32 31 36 39 30 24
71 83 81 70 57 47 47 38 39 28 30 31 24 13 12 10 13 19 26 32 37 39 35 34 29 28 26 22 20 20 22 23 25 30 22 24 30 27 27 30 29 24 24 28 30 30 30
42 55 76 74 60 49 47 41 40 31 27 28 19 12 10 8 10 16 23 28 31 37 41 30 30 27 25 21 15 21 30 30 36 34 21 20 15 15 20 21 25 18 27 31 15 16 23
27 35 58 76 65 53 45 41 41 34 28 29 20 11 10 5 6 12 20 26 28 34 35 31 23 27 22 17 19 22 26 22 29 31 27 25 18 16 17 20 25 26 24 24 25 26 17
9 23 64 65 64 57 41 38 42 30 31 30 22 12 11 5 3 9 17 23 26 28 32 29 20 22 22 22 17 18 24 35 24 24 21 22 17 17 16 19 15 27 29 29 29 22 20
8 21 60 61 61 50 40 41 37 34 35 26 22 15 12 6 5 8 14 21 22 25 29 25 24 19 24 20 16 14 11 12 10 6 8 8 8 10 14 18 19 21 24 25 29 28 25
9 27 62 63 54 45 42 50 37 38 33 28 22 18 14 9 8 8 13 18 21 21 24 25 19 21 22 19 13 11 9 9 11 14 10 4 2 8 10 16 22 24 25 25 23 30 28
24 28 48 57 55 38 40 43 41 37 31 31 23 20 16 12 10 8 14 17 22 22 20 22 20 14 15 15 14 6 8 7 11 11 5 4 3 7 9 9 16 26 34 32 29 27 27
32 51 62 53 35 41 52 41 39 36 30 32 25 22 19 15 13 9 12 16 21 20 23 20 16 17 14 9 9 8 10 7 6 5 4 10 9 6 4 5 4 10 16 21 24 25 25
44 36 51 44 42 42 42 38 43 35 31 31 28 23 20 17 15 10 11 14 18 20 22 26 18 12 11 11 9 6 6 5 5 6 7 5 6 9 5 3 6 11 12 16 21 25 26
37 46 41 40 48 43 40 38 40 31 36 32 30 24 21 18 16 12 10 15 16 16 22 25 26 18 10 5 4 5 5 4 4 7 11 14 17 14 10 9 7 8 8 9 9 13 20
35 38 40 40 51 40 43 40 39 27 40 33 30 25 21 18 17 14 11 9 14 15 18 20 23 21 17 12 4 2 2 1 1 3 7 10 9 9 9 12 15 16 18 19 17 17 18
39 46 46 45 45 44 40 43 30 27 41 33 31 24 21 19 17 15 12 9 9 12 15 17 20 22 19 14 14 11 7 6 4 4 4 4 6 10 12 13 14 16 19 20 21 22 27
43 48 44 49 41 47 52 42 26 33 43 36 32 25 21 21 19 16 13 11 8 8 10 14 17 19 18 18 17 15 14 10 7 7 7 7 8 10 11 15 17 20 20 22 23 24 25
37 39 44 48 39 43 50 35 27 25 42 38 36 28 20 21 20 18 14 12 9 6 8 8 9 16 16 17 17 15 17 16 12 6 6 6 6 8 11 14 18 21 23 23 24 25 26
40 45 51 48 45 42 40 31 29 25 42 40 37 32 23 20 22 20 16 13 10 7 5 5 7 8 10 11 14 14 16 16 16 14 13 12 9 9 10 12 15 20 22 23 26 29 30
44 50 53 46 42 42 37 33 30 23 32 38 36 31 30 22 23 21 18 14 11 9 6 4 3 5 5 9 6 9 11 14 13 13 14 13 13 14 13 12 12 17 20 21 20 23 29
51 52 49 48 44 43 38 31 26 22 35 39 33 27 30 24 24 21 19 16 13 10 7 5 3 0 2 4 7 9 9 10 12 12 16 16 18 17 17 15 15 16 15 16 18 20 23
56 52 47 46 45 45 36 33 24 22 32 35 32 31 25 26 23 22 20 17 15 12 9 6 5 5 4 5 6 7 9 11 12 13 16 16 17 16 17 18 19 19 22 25 27 29 29

GFSGBSN_500_spd_093.txt.gz
Wind_Speed
49 47 50 48 45 41 38 36 34 38 35 40 37 36 34 35 37 37 39 43 45 52 58 66 69 66 62 57 55 50 43 42 39 34 32 36 45 62 64 61 59 63 66 61 67 47 59
47 48 50 50 48 45 43 35 31 28 35 38 34 37 35 35 35 36 40 42 46 54 61 67 68 65 60 56 52 39 34 37 28 21 18 26 34 45 62 63 60 61 68 58 67 48 59
56 47 49 51 51 47 44 38 29 31 31 37 34 34 34 34 34 34 40 41 47 56 63 66 66 64 59 58 42 30 30 27 14 12 11 19 17 35 51 63 59 63 69 74 59 53 59
57 59 49 51 50 47 46 40 30 26 27 35 32 33 34 32 31 33 39 41 48 57 63 63 64 61 58 48 32 23 21 16 12 13 11 11 16 27 36 61 61 60 67 69 65 58 46
61 62 58 53 54 50 47 43 34 27 27 31 32 30 35 32 28 31 37 41 49 57 60 61 61 58 50 33 23 21 12 10 9 13 15 12 13 25 36 52 61 62 70 77 52 46 49
61 65 62 58 56 54 49 45 38 28 27 30 31 26 35 32 24 30 36 41 49 56 56 58 55 47 32 24 22 10 4 8 9 13 8 16 20 33 26 50 59 63 73 65 52 47 39
63 63 65 64 58 56 50 47 42 30 26 26 29 22 32 32 23 28 34 41 48 51 53 55 44 27 28 24 23 13 8 8 9 9 9 17 24 19 25 44 53 55 64 68 56 48 36
75 76 73 68 64 58 52 48 45 34 29 26 33 19 30 31 22 26 32 39 45 47 47 42 21 30 30 25 18 17 9 5 1 6 13 13 13 23 30 42 51 54 59 54 56 38 49
71 72 77 80 71 63 53 49 47 37 31 25 26 18 28 25 21 24 29 37 41 42 41 26 23 28 26 30 29 23 22 13 15 19 17 22 25 25 33 42 45 53 56 55 63 45 24
67 68 70 70 80 72 58 48 48 37 30 27 25 23 28 22 18 20 26 33 35 36 31 20 22 24 24 23 20 24 20 32 22 15 11 15 30 23 33 38 38 49 54 52 62 34 18
74 70 66 69 71 77 63 50 47 37 30 27 30 20 25 18 16 18 23 29 30 32 24 22 20 19 17 24 17 19 21 21 18 11 17 35 30 15 28 27 35 39 47 49 42 39 22
58 64 52 42 60 77 67 55 46 40 30 28 35 18 21 18 13 13 19 24 24 28 19 20 22 18 16 21 19 17 18 16 21 22 18 12 15 20 19 28 20 30 33 41 34 46 25
52 37 32 31 41 74 66 58 48 40 32 26 32 18 19 16 10 10 14 19 20 23 30 21 22 20 21 21 26 24 27 27 31 29 16 15 12 19 24 34 24 24 25 26 26 32 36
27 20 21 23 39 72 67 60 48 40 35 31 25 21 19 14 9 7 9 15 17 23 27 23 22 20 22 24 17 23 23 17 12 16 18 19 18 20 26 19 23 25 22 24 25 23 27
12 11 6 4 39 71 66 61 45 40 34 34 23 24 22 14 9 4 7 11 14 21 27 21 18 13 14 22 24 29 23 20 19 13 15 16 15 16 20 21 18 19 26 18 21 20 16
12 9 10 10 53 70 64 56 45 40 37 32 27 25 22 16 10 3 6 9 12 20 24 20 16 20 15 12 14 11 12 12 12 13 12 13 11 13 16 18 11 16 18 16 18 17 16
8 9 10 20 66 68 59 53 44 39 36 30 32 26 23 18 11 6 7 10 12 18 21 20 19 18 19 14 11 9 6 7 8 10 10 8 6 5 8 11 12 15 17 20 20 20 20
6 13 11 56 68 64 59 48 43 41 40 33 33 30 24 19 13 10 10 13 16 19 20 20 19 14 15 15 8 1 2 6 5 6 8 9 10 9 5 6 12 17 19 21 23 22 23
10 12 22 61 60 60 54 42 40 41 36 34 29 31 26 21 17 13 14 16 17 20 20 20 20 13 11 9 4 3 1 3 4 5 6 11 13 11 9 6 3 8 16 22 21 23 21
11 9 46 56 55 53 44 42 40 36 35 34 37 30 27 22 19 15 14 17 18 22 23 20 21 17 13 9 5 3 3 2 1 2 2 0 4 8 7 2 4 7 10 12 19 24 28
5 27 51 53 52 52 44 41 40 36 38 34 37 30 29 24 20 17 15 18 17 18 20 21 22 17 13 10 8 7 6 5 5 4 3 2 4 4 5 6 6 6 7 7 7 11 14
23 47 55 51 41 40 39 39 38 38 38 36 34 31 29 25 21 20 17 17 18 16 16 17 21 22 19 16 12 9 4 2 2 1 2 2 3 3 2 4 8 11 11 11 12 16 16
39 35 44 37 37 42 38 40 38 39 33 37 36 32 29 27 24 20 19 18 17 17 18 17 19 22 23 21 19 18 14 13 5 2 1 3 4 5 6 8 9 10 14 16 18 19 22
36 33 36 40 41 44 40 40 36 36 31 40 38 34 30 27 24 22 18 16 16 15 14 14 16 18 21 21 19 20 21 18 16 13 8 2 1 4 7 11 11 16 16 18 22 25 27
35 40 42 41 40 40 42 41 28 20 38 42 38 34 31 28 26 22 19 16 14 12 12 11 13 13 14 17 16 14 17 17 16 17 15 12 10 6 4 7 8 12 16 18 19 23 27
35 37 41 43 42 42 43 36 26 25 41 42 38 33 31 27 25 22 19 16 14 12 11 9 7 6 6 8 10 11 11 11 13 12 11 12 13 10 6 5 6 9 14 15 18 19 26
34 39 43 41 41 38 41 39 26 27 41 39 37 31 30 27 25 21 18 16 14 12 10 8 6 5 3 3 4 5 6 8 9 10 11 12 12 11 10 5 7 10 7 10 12 16 21
35 37 40 41 41 38 37 34 28 25 31 36 41 32 27 26 24 21 19 17 14 12 10 9 7 5 3 2 2 3 5 6 7 9 10 11 12 14 15 12 11 14 14 16 16 18 21
33 34 39 40 41 37 35 31 23 24 27 43 38 36 29 23 24 22 19 17 15 12 11 10 9 6 7 7 7 6 6 8 8 9 10 12 14 15 17 16 19 18 19 20 21 22 25

GFSGBSN_500_spd_096.txt.gz
Wind_Speed
59 54 50 46 51 54 50 47 43 41 39 34 27 28 30 34 37 37 39 39 38 43 51 53 59 63 66 65 61 61 57 48 41 38 41 46 46 51 62 70 64 61 52 49 65 63 50
62 58 50 49 50 54 51 49 43 41 36 34 30 24 25 32 33 35 38 40 36 45 51 56 60 64 65 65 59 54 46 35 32 36 30 18 22 35 42 61 65 61 53 50 65 71 50
66 63 58 53 53 54 50 49 42 38 38 36 31 27 25 32 32 35 37 38 40 47 52 57 61 63 65 60 49 40 30 27 29 16 6 14 13 16 27 40 59 56 57 54 59 64 59
65 60 59 55 54 56 53 47 46 40 37 37 37 25 24 29 29 34 37 35 42 49 52 57 59 60 53 32 33 30 26 20 15 8 12 8 8 11 20 31 44 55 59 55 59 51 59
63 61 59 58 57 56 59 51 46 44 40 37 35 29 23 33 27 32 36 37 44 48 51 54 55 49 26 27 28 28 13 11 6 10 4 3 4 16 19 29 44 56 59 55 60 71 46
65 63 63 60 59 59 60 57 50 47 42 37 35 27 24 30 31 29 36 38 44 45 48 49 44 25 27 25 24 23 14 6 8 8 7 6 9 7 18 29 47 54 56 54 60 63 52
70 72 72 72 71 66 63 62 55 48 46 41 35 31 25 28 31 26 36 37 40 44 44 42 21 28 25 31 24 21 10 8 10 8 6 7 1 7 19 24 44 52 51 55 64 62 66
78 72 66 62 63 64 67 68 62 50 49 42 38 30 26 28 27 27 34 34 37 40 36 26 19 24 26 29 19 19 19 14 13 8 7 5 10 5 11 28 39 48 47 55 65 56 39
73 67 66 64 61 60 58 58 65 53 51 44 40 34 24 23 23 27 33 32 33 32 27 12 18 23 31 29 26 12 13 12 10 11 5 4 4 5 14 26 39 44 43 47 57 61 30
69 69 67 65 64 62 60 61 55 57 51 47 42 34 24 24 26 28 28 29 29 26 18 9 14 24 29 20 17 13 13 17 14 6 9 8 8 20 16 28 34 35 35 46 47 30 35
66 69 55 51 43 46 50 60 59 59 55 49 41 36 23 22 26 24 23 23 22 21 12 10 19 25 26 17 13 17 18 19 18 12 17 21 28 19 17 25 29 26 30 41 40 37 39
69 56 39 41 32 28 27 48 69 62 58 51 40 29 26 17 25 20 19 18 16 16 7 13 23 23 25 15 21 14 22 24 24 21 29 25 20 20 23 27 20 20 28 39 37 43 37
57 30 27 30 23 26 27 47 73 64 59 49 39 32 21 19 23 18 14 13 10 8 12 16 22 21 24 26 26 26 25 24 21 17 17 23 20 21 20 18 16 18 27 27 32 36 34
23 26 29 25 19 16 13 64 71 64 55 47 37 24 22 18 19 15 9 7 6 8 14 19 22 26 26 26 20 17 23 21 20 19 20 18 17 17 22 16 13 15 22 23 20 23 27
20 22 24 18 25 12 17 71 68 61 52 45 42 26 19 21 18 13 4 3 3 10 17 16 15 18 17 20 21 23 24 21 20 21 16 14 13 17 18 17 20 17 19 17 16 15 25
16 22 17 9 10 2 48 71 64 54 48 42 30 26 17 21 18 11 4 3 6 13 20 16 15 16 10 11 13 15 19 19 18 19 19 17 13 11 11 22 19 20 21 17 15 15 15
10 16 7 11 15 25 63 66 59 51 44 39 31 28 24 22 18 11 8 7 7 14 19 21 17 11 9 10 11 14 16 18 19 20 18 14 16 13 12 12 14 18 15 15 17 16 17
11 11 12 13 17 55 65 60 51 48 48 42 35 30 25 23 17 13 11 10 13 15 19 20 16 14 11 8 4 8 11 15 18 18 18 19 17 15 12 10 11 10 9 11 15 12 13
3 8 10 1 32 55 56 50 46 47 38 36 32 26 26 23 19 16 14 12 15 17 20 22 18 13 9 4 5 6 8 8 11 14 16 16 18 15 14 11 8 4 2 5 8 12 16
4 10 6 11 48 55 51 44 45 36 35 29 29 27 26 23 21 18 17 18 18 17 21 23 21 19 13 7 3 2 3 4 4 6 5 6 9 11 10 9 8 5 1 3 7 11 15
10 9 11 48 48 46 46 47 41 34 34 26 29 29 27 24 21 21 19 22 22 19 18 22 24 22 17 14 10 7 6 5 6 6 4 4 5 6 6 7 3 2 2 4 6 7 7
21 16 48 50 50 47 45 39 37 35 30 28 30 30 28 27 24 23 21 19 23 22 20 19 21 22 21 17 15 12 10 7 5 5 5 6 6 5 3 1 1 3 4 5 8 11 13
26 47 48 47 45 43 41 35 37 32 31 29 36 33 30 25 23 22 21 20 19 20 22 21 21 23 22 21 22 22 21 19 17 11 7 5 1 0 0 0 2 4 6 9 11 14 16
41 42 46 40 38 38 39 40 33 33 32 33 35 35 31 29 27 24 21 21 20 20 20 20 19 18 19 20 21 22 22 20 19 18 18 16 14 11 6 4 3 3 7 8 12 16 19
27 38 47 42 28 35 35 32 35 35 31 35 36 34 32 30 28 24 20 17 17 16 16 15 15 16 14 14 15 14 15 14 14 15 15 14 15 13 12 13 10 9 6 4 5 4 9
27 44 29 29 31 31 35 35 30 29 26 40 35 33 31 29 27 24 21 18 17 15 13 11 9 8 8 7 7 7 8 8 9 9 10 11 11 9 9 8 6 6 4 4 2 4 6
27 25 27 27 33 32 32 33 28 26 24 40 34 31 30 29 27 24 21 18 14 12 10 8 7 5 2 1 1 3 4 3 4 4 6 6 7 7 6 5 3 5 5 3 8 8 11
19 27 27 28 29 30 32 26 22 27 26 43 34 30 28 27 25 23 21 17 14 12 10 8 5 4 4 3 3 4 5 5 5 6 7 8 9 9 11 10 8 11 11 10 12 14 16
24 27 27 26 26 31 29 21 15 27 36 41 35 30 27 25 24 21 19 16 13 11 9 8 7 7 7 8 8 9 10 11 11 10 12 12 14 14 16 17 19 18 18 16 18 19 21

GFSGBSN_500_spd_099.txt.gz
Wind_Speed
59 60 61 60 60 59 54 50 51 51 49 45 39 38 33 34 30 27 32 32 37 42 40 44 45 52 57 59 65 69 67 56 49 44 40 40 43 50 56 62 66 62 60 58 49 48 59
63 65 66 66 62 62 58 53 52 51 48 43 35 36 34 38 29 32 33 34 41 40 45 44 47 53 57 62 57 50 45 42 37 29 27 32 35 37 41 57 61 59 60 59 52 48 50
66 68 68 65 63 60 58 54 52 51 48 39 37 35 36 34 38 31 31 34 42 37 48 45 48 53 55 50 40 37 40 39 25 20 9 6 9 7 10 20 41 58 58 60 54 50 47
69 68 66 64 61 58 55 53 54 52 48 40 39 36 36 31 29 26 34 38 44 42 47 43 48 51 43 36 37 39 38 23 7 7 9 3 6 11 10 10 18 36 54 55 52 50 48
69 67 64 60 59 58 56 56 53 54 52 45 40 37 37 30 31 31 31 38 42 46 42 42 45 37 34 34 35 32 25 12 13 10 6 9 6 6 15 14 19 28 44 49 52 49 50
70 66 62 62 62 67 66 64 60 56 55 49 41 38 36 32 32 26 32 35 40 41 36 40 33 29 29 32 21 23 20 14 13 12 13 14 10 8 16 19 18 22 36 47 50 45 50
66 65 67 70 69 64 58 53 54 58 60 53 43 39 37 33 31 29 28 37 39 32 35 33 22 24 22 24 21 20 23 20 8 9 11 8 6 8 7 14 22 15 42 47 43 39 47
67 70 72 69 64 59 54 51 48 48 49 59 49 40 39 35 32 23 27 32 36 26 29 21 20 23 19 21 25 24 23 19 14 12 16 13 6 8 8 17 25 18 42 39 40 37 45
71 73 66 62 60 62 59 56 56 49 48 51 51 44 41 35 32 19 23 28 29 25 22 15 16 17 18 19 22 24 22 18 15 12 16 16 11 4 5 25 16 26 38 37 36 34 53
74 66 60 58 54 52 43 38 44 50 47 45 53 48 40 36 31 15 21 29 18 20 11 12 11 15 18 20 23 22 23 21 15 18 16 19 14 12 19 22 22 28 38 26 26 36 34
66 59 56 49 43 35 34 28 23 47 50 50 57 48 40 36 28 14 21 24 14 14 5 7 9 17 21 20 22 23 23 26 23 18 24 25 25 26 26 23 24 28 28 19 22 29 23
60 50 45 39 25 28 28 23 21 27 54 58 60 48 39 32 19 10 18 12 11 7 8 10 13 20 22 24 25 24 30 30 32 28 28 26 26 31 31 24 21 20 16 25 22 30 30
56 47 44 26 23 24 23 23 23 36 62 62 60 46 39 33 21 11 16 5 2 4 11 11 15 17 20 23 23 23 25 28 26 24 19 20 23 27 24 19 17 15 12 18 27 36 31
48 40 37 23 24 25 25 23 17 57 69 64 53 45 37 34 18 14 14 4 4 5 16 19 20 21 24 25 22 23 26 27 24 18 21 23 23 21 20 12 16 15 16 15 25 34 21
41 38 21 19 19 20 17 17 27 69 67 59 50 41 36 24 19 10 9 3 7 14 20 17 15 17 17 21 24 21 22 23 24 21 18 19 21 18 16 16 14 12 16 16 12 17 16
51 22 7 9 8 12 3 6 62 66 61 53 46 40 30 22 17 10 8 8 11 17 19 14 13 9 13 17 22 21 22 23 21 19 18 18 15 12 17 15 18 21 19 13 14 11 13
9 8 5 3 10 12 2 42 64 61 53 46 43 41 27 20 15 13 12 12 13 19 18 17 11 9 12 13 18 19 22 24 22 18 18 19 21 19 17 22 22 21 21 15 12 10 7
17 14 10 9 13 8 37 63 58 49 47 45 42 29 21 18 17 15 15 15 16 19 18 15 12 9 10 11 13 14 19 23 25 27 26 20 19 19 18 19 20 22 20 18 13 9 9
31 27 18 8 19 49 59 55 51 47 44 38 33 26 21 19 18 17 18 17 19 20 20 16 12 9 6 6 10 12 14 14 16 18 21 22 22 20 25 20 17 18 15 15 13 12 13
35 25 22 35 54 56 52 48 43 42 39 31 28 23 23 21 19 20 21 21 20 23 24 19 15 9 5 8 7 9 11 9 8 10 11 15 18 19 20 19 19 16 12 8 5 5 6
38 24 38 52 51 47 44 44 40 39 32 28 24 24 24 20 19 22 24 24 24 23 23 23 22 18 16 15 12 12 11 11 12 13 12 10 13 15 15 15 13 11 9 5 2 1 4
26 38 49 46 42 38 37 37 36 24 28 23 19 27 25 23 22 25 26 25 26 25 25 23 22 22 20 20 19 17 17 15 14 14 13 12 12 11 8 9 8 6 4 3 5 6 9
36 44 43 40 36 33 29 23 27 25 20 21 22 25 23 22 24 25 24 24 25 25 26 24 24 23 25 24 25 25 25 23 22 19 19 16 15 14 12 10 7 4 6 7 9 11 14
33 35 33 32 31 28 26 18 21 21 18 19 26 24 23 24 26 25 24 24 24 23 23 23 22 21 21 22 21 21 22 21 21 21 21 21 20 20 17 15 14 14 13 10 8 4 6
25 26 22 24 26 20 24 17 16 13 17 22 25 23 23 26 26 24 22 21 21 20 20 18 17 17 16 15 16 16 15 15 15 16 16 15 15 15 14 13 12 8 7 6 5 5 3
17 14 14 17 17 22 15 16 10 12 15 24 23 22 22 24 24 24 22 20 18 17 16 14 13 11 10 10 9 9 10 9 9 8 9 10 10 7 7 5 5 5 1 2 1 9 6
13 16 16 12 13 15 11 11 12 15 15 24 23 21 21 22 22 22 21 19 16 12 9 7 7 5 4 5 5 5 6 5 5 5 4 4 5 5 4 3 3 3 5 7 9 10 15
16 13 12 15 13 10 12 11 11 14 22 26 22 23 23 23 22 20 18 16 13 11 8 5 3 1 0 2 4 5 6 8 9 10 9 10 10 10 10 9 8 12 10 13 15 16 18
21 19 14 15 15 13 14 14 12 17 24 28 24 25 24 22 21 19 17 13 11 8 6 5 4 3 3 5 7 8 9 10 12 12 13 13 15 15 15 15 16 16 16 17 20 22 24

GFSGBSN_500_spd_102.txt.gz
Wind_Speed
59 59 60 58 56 58 61 62 60 60 57 54 51 51 48 40 38 36 39 36 37 38 38 39 45 52 42 44 43 51 53 55 59 59 58 56 51 50 51 55 61 65 60 58 60 62 56
62 62 62 59 62 64 63 62 63 59 56 50 48 48 43 39 36 36 37 33 36 34 39 45 48 52 41 41 38 44 48 50 51 50 44 37 33 34 36 43 55 60 61 58 59 61 56
65 63 62 65 69 68 65 61 59 57 50 46 46 43 40 36 36 35 33 34 34 39 42 43 49 36 34 36 35 38 35 37 30 21 11 6 4 10 6 11 20 44 59 58 58 59 54
64 64 69 72 72 68 61 57 53 50 50 46 43 42 38 35 37 36 30 33 32 37 36 42 35 28 28 28 29 21 30 26 15 11 9 8 9 10 12 17 14 18 35 58 57 59 51
68 71 75 74 70 62 58 57 54 50 50 50 45 41 39 33 36 35 31 33 36 37 35 39 24 22 24 24 11 19 27 24 14 12 10 11 13 12 13 16 17 15 17 36 52 55 49
73 76 74 66 62 62 61 63 58 56 54 55 51 49 41 33 36 35 33 33 33 32 32 24 16 20 15 15 14 18 24 22 11 10 12 13 12 13 15 13 14 15 13 23 45 48 47
78 74 63 61 63 66 60 52 49 45 42 43 44 50 46 36 37 34 32 32 30 35 30 14 13 14 13 10 15 20 21 17 15 16 16 18 9 7 9 14 10 10 14 22 35 40 43
74 66 63 64 61 54 48 48 43 43 39 38 37 40 48 40 36 32 27 30 32 32 11 7 11 11 13 9 15 19 21 17 14 12 16 14 4 11 6 7 13 10 23 34 30 37 36
73 69 67 58 48 43 35 38 38 34 34 40 37 32 47 43 33 30 26 32 28 20 6 9 12 10 9 11 14 18 19 15 14 14 15 16 3 8 7 19 17 24 33 33 30 33 31
76 67 53 44 36 29 33 27 25 22 21 46 39 34 42 41 31 29 26 28 29 7 9 14 11 8 5 10 15 18 17 13 11 16 15 9 9 10 21 18 28 31 27 29 24 24 20
67 52 39 29 24 28 23 19 24 11 13 44 42 39 45 41 32 26 29 18 5 6 11 13 13 13 11 13 16 18 25 19 11 24 21 22 28 22 25 31 35 31 26 25 20 14 17
37 28 24 23 24 21 17 15 12 17 11 49 47 46 44 37 29 25 27 18 7 13 15 13 8 13 16 16 17 17 17 25 26 16 25 30 32 33 31 32 30 27 25 22 21 20 17
30 27 20 20 19 17 15 16 18 21 20 54 51 47 42 34 28 25 22 10 13 20 21 14 13 17 16 17 20 22 19 20 21 20 22 27 29 34 29 26 20 21 30 23 21 30 24
33 35 28 23 12 7 11 10 18 14 46 54 51 46 39 35 27 20 7 8 19 22 21 20 18 18 18 17 19 20 23 21 21 18 25 22 25 20 22 19 21 22 19 25 29 23 15
43 30 14 4 3 2 7 5 11 23 61 58 52 44 39 33 30 19 8 14 19 22 22 17 15 17 19 18 19 19 19 22 22 20 17 19 20 21 23 24 23 23 18 19 26 24 11
42 31 20 13 16 5 7 8 9 56 63 57 48 41 35 31 22 14 12 15 21 25 19 14 11 14 18 19 19 21 19 20 18 19 13 18 14 20 19 23 29 27 16 17 17 23 11
39 33 27 18 13 5 11 13 60 63 56 47 42 37 32 26 19 16 15 15 20 23 18 12 9 13 16 17 21 22 25 22 22 22 27 20 17 22 26 28 30 25 21 14 10 8 8
39 30 19 12 15 19 47 63 60 54 45 41 35 30 25 22 20 19 17 15 18 21 17 12 9 11 17 17 18 20 24 26 25 23 20 22 23 21 24 24 27 27 25 18 13 13 8
41 47 43 39 55 62 61 55 49 42 38 32 30 24 23 22 21 20 18 18 19 19 16 11 9 8 9 12 13 14 14 16 21 21 21 21 22 24 22 26 27 28 26 22 16 13 6
56 58 58 55 51 49 45 41 39 36 34 32 19 18 22 21 23 20 20 21 19 18 16 11 9 8 11 13 15 16 15 13 16 18 19 19 21 24 25 25 24 25 23 19 17 4 2
46 47 44 45 42 37 34 32 30 26 25 21 18 20 22 22 24 23 23 25 24 21 19 16 16 15 15 15 18 17 16 18 17 17 18 18 18 20 23 25 24 21 17 16 13 8 2
33 34 36 34 33 27 23 21 16 15 15 11 15 19 23 23 24 25 25 26 27 26 26 24 23 22 20 20 24 22 22 22 21 20 18 16 15 15 15 14 14 13 11 9 4 2 10
22 21 23 20 18 17 14 13 12 13 11 11 17 17 21 24 26 26 26 27 27 27 27 27 26 26 26 26 27 27 27 26 24 25 23 23 19 18 18 15 14 14 12 8 7 6 3
14 13 11 11 11 13 15 11 11 8 8 9 13 17 21 24 24 25 27 26 26 26 26 26 25 24 23 23 22 23 23 23 24 25 24 25 23 23 21 23 23 22 20 18 15 12 8
4 7 3 9 13 11 12 11 9 7 4 8 11 15 20 22 22 22 22 23 23 22 21 21 20 19 18 18 17 18 18 17 17 18 17 17 17 17 15 14 17 14 12 10 10 8 7
9 4 3 6 12 10 9 6 8 3 7 11 12 15 18 19 18 18 18 18 18 17 16 16 15 13 13 13 13 13 13 13 13 11 11 10 10 7 8 6 6 5 4 2 2 7 11
14 10 2 5 6 17 14 9 1 2 8 11 10 14 18 18 19 18 17 15 13 11 10 10 10 9 8 7 7 8 8 7 8 8 8 8 7 6 6 5 5 6 7 6 10 10 15
20 12 12 9 7 8 9 6 3 6 11 12 11 12 15 18 17 16 13 11 8 6 4 4 5 4 4 5 6 8 8 7 7 6 7 7 8 8 7 7 8 11 12 12 14 18 19
25 21 22 16 10 10 12 10 8 11 9 14 11 13 13 16 16 14 12 9 6 4 3 1 0 2 4 5 6 8 8 9 10 9 8 8 10 10 11 11 11 12 13 15 18 20 22

GFSGBSN_500_spd_105.txt.gz
Wind_Speed
58 61 62 63 62 63 64 60 56 59 59 60 58 56 54 50 50 50 46 43 40 40 36 40 41 42 45 47 50 46 40 40 41 44 47 50 55 59 59 59 60 63 63 61 63 66 70
63 66 68 67 65 64 63 62 62 60 59 59 58 55 52 46 45 46 41 36 40 38 36 37 39 42 48 46 36 34 31 30 34 39 41 40 41 42 44 45 49 52 60 62 65 68 69
69 71 73 71 68 66 65 66 65 58 54 53 52 51 47 43 41 39 36 35 39 33 32 35 39 43 47 28 29 24 16 19 24 21 19 15 15 17 16 19 20 26 40 52 62 64 65
77 77 76 72 70 70 69 67 63 55 49 48 47 48 44 41 37 35 32 35 36 29 34 33 37 49 22 22 19 9 16 19 18 18 16 13 13 14 16 16 19 23 23 24 29 56 57
80 79 74 70 68 65 60 58 52 48 43 46 46 46 41 41 35 33 33 36 30 33 29 35 39 17 16 10 4 12 17 21 18 19 18 17 17 17 20 24 21 26 25 25 22 35 51
81 74 68 62 57 54 51 48 48 48 48 49 49 48 42 41 35 34 33 34 30 28 26 35 27 14 9 4 7 13 15 18 18 20 21 23 22 20 20 22 22 13 21 24 22 27 41
86 76 65 59 54 46 41 41 43 42 41 37 38 39 46 45 40 34 32 31 28 22 28 31 6 6 3 2 11 15 16 16 17 17 19 21 25 15 18 20 16 12 14 13 12 24 32
69 48 43 39 34 31 30 26 26 23 19 25 30 34 37 43 41 36 32 29 21 17 21 5 2 4 5 6 11 16 12 13 15 15 14 18 15 12 17 8 8 9 6 12 18 11 24
44 32 30 29 26 23 20 19 19 21 21 20 30 29 30 36 39 35 29 22 16 17 17 7 6 4 2 9 13 13 9 12 17 19 16 16 9 10 2 5 10 8 25 19 17 17 22
48 28 21 18 19 13 13 10 19 15 16 13 22 30 30 35 37 34 23 18 14 14 7 8 6 4 6 7 12 14 10 11 22 13 7 6 8 9 3 10 18 21 17 22 25 22 19
61 27 14 12 9 10 13 11 11 5 3 8 29 32 28 31 31 27 21 11 8 17 14 15 9 7 9 9 9 9 18 13 15 17 14 13 17 32 32 30 27 25 26 33 27 17 15
56 35 14 9 6 7 6 5 5 4 8 12 35 36 25 28 29 25 17 10 5 17 15 13 11 11 12 14 11 9 12 16 20 24 27 27 30 28 30 32 31 23 27 22 23 17 22
46 46 31 13 6 4 2 5 5 4 4 25 35 34 29 31 28 22 14 7 17 20 19 14 11 12 12 12 13 11 12 12 18 21 27 31 27 21 20 25 18 25 17 19 18 21 20
37 38 31 19 10 5 1 4 2 4 12 41 37 33 31 30 24 19 18 22 26 21 20 16 14 13 13 13 12 12 11 8 17 18 12 9 15 16 17 16 19 15 16 24 18 27 24
41 35 33 22 18 11 7 8 9 23 45 42 37 36 32 29 20 14 19 29 26 25 21 18 16 12 11 14 14 11 13 14 14 13 16 18 20 22 25 24 21 18 27 26 31 31 27
25 29 30 28 20 20 18 21 39 49 48 42 39 35 31 27 20 14 26 31 28 23 17 14 14 13 13 14 16 14 13 10 8 6 14 18 19 28 25 26 21 25 27 30 35 37 30
80 66 57 54 55 54 57 57 56 53 47 41 36 31 27 20 13 13 24 29 28 21 14 11 13 13 13 16 19 18 17 15 15 14 14 12 18 28 24 26 25 27 28 24 31 28 29
75 74 71 67 63 60 55 50 47 42 38 32 26 22 15 13 15 18 23 27 23 18 11 10 13 14 12 13 17 20 21 17 13 15 22 24 26 27 25 29 26 26 21 20 17 18 17
56 59 55 53 48 47 45 41 37 34 30 23 18 16 15 15 16 18 18 21 19 13 9 7 8 10 9 9 11 11 15 18 16 17 17 20 20 25 28 27 26 22 17 13 14 12 12
47 45 43 41 37 37 34 31 28 23 27 20 16 17 16 17 17 17 17 15 13 10 8 8 8 10 11 12 14 14 16 16 16 15 16 19 26 23 28 30 26 24 17 14 10 10 9
36 39 36 33 32 31 29 28 25 24 27 21 17 16 18 18 21 21 20 18 17 16 16 16 15 15 15 15 15 16 17 18 18 17 17 18 21 26 26 26 24 20 15 10 5 6 5
31 34 32 38 34 30 28 27 27 26 21 17 16 16 18 20 23 24 25 24 25 24 24 23 22 21 21 22 22 21 22 21 21 20 18 19 18 19 18 17 17 17 14 9 6 1 3
20 25 29 32 29 25 29 27 25 19 14 15 16 15 18 22 22 24 26 26 26 27 28 28 27 27 27 27 26 26 26 26 26 24 23 22 20 19 16 14 12 13 12 10 10 12 11
16 18 21 24 22 19 20 21 18 13 12 13 15 14 15 17 21 23 24 24 24 23 24 24 24 25 24 24 24 25 25 25 25 25 25 25 24 23 22 18 17 17 15 14 13 11 8
15 15 11 9 13 10 14 13 9 7 8 11 13 13 13 13 17 18 19 19 20 20 20 20 20 20 20 20 20 20 19 19 19 19 18 17 16 16 15 15 14 11 9 7 4 3 1
13 13 12 11 8 4 6 5 4 2 4 7 10 11 11 13 13 13 13 14 14 15 15 15 16 15 14 14 14 14 14 14 13 13 11 11 10 8 6 4 4 3 0 2 3 7 10
20 15 15 13 16 13 9 8 7 5 3 3 6 8 8 9 8 9 8 9 9 10 10 10 11 11 12 12 11 11 11 11 9 9 8 7 6 5 3 2 3 4 5 6 9 11 13
23 24 17 16 15 21 21 15 13 11 10 8 7 8 8 8 7 7 4 4 5 6 6 6 7 7 7 8 8 9 9 10 10 10 9 8 7 6 6 6 6 8 8 10 13 14 15
17 29 26 22 20 20 26 27 23 21 17 15 12 11 9 9 9 7 5 3 1 0 1 2 3 4 5 5 5 6 7 8 8 7 7 7 8 7 7 7 9 10 10 11 13 15 18

GFSGBSN_500_spd_108.txt.gz
Wind_Speed
63 65 67 70 72 73 73 71 69 66 66 63 62 59 53 50 47 46 46 47 47 45 44 41 40 39 40 42 42 45 48 52 41 43 44 44 44 45 46 49 53 54 58 60 62 64 66
70 70 70 72 74 74 71 68 65 62 62 59 57 54 52 48 43 42 43 45 44 40 39 37 39 35 38 38 42 39 45 34 35 39 40 38 34 33 37 41 45 48 54 59 62 64 68
72 76 77 73 68 64 61 58 56 54 54 52 50 48 47 46 42 39 40 39 38 36 35 37 36 34 35 39 37 39 28 23 29 29 23 17 15 19 22 23 29 34 40 42 47 53 61
76 70 62 55 58 55 44 38 45 48 45 45 45 42 40 37 34 35 34 33 35 31 33 33 29 29 31 31 31 26 16 17 17 17 18 19 20 20 21 21 25 27 29 27 23 31 40
57 61 60 65 38 29 26 25 25 27 32 33 36 34 32 30 31 31 30 29 29 29 31 25 23 23 29 24 18 12 16 19 18 20 20 22 22 23 23 28 25 28 27 26 22 30 28
61 51 59 44 31 30 25 25 27 25 26 26 24 24 26 29 29 30 28 26 27 27 24 18 18 25 18 10 9 12 15 15 17 20 21 22 24 24 27 30 24 27 25 20 23 26 33
50 52 47 33 23 18 20 18 24 17 14 15 24 26 31 31 30 29 27 26 26 21 15 14 21 14 4 6 9 15 18 18 19 22 21 22 20 24 22 21 25 21 16 17 20 22 23
50 49 47 18 17 12 14 15 13 11 11 12 10 15 20 18 29 28 23 21 20 15 10 10 7 5 6 6 11 14 14 12 18 22 24 19 19 13 13 13 8 6 7 8 3 6 4
45 46 28 14 9 10 10 7 7 8 9 9 8 12 21 28 19 21 13 13 16 13 8 8 6 6 4 4 11 12 12 13 21 21 19 12 8 4 4 6 4 8 11 6 11 19 19
45 41 24 15 11 10 5 4 4 3 5 5 11 18 23 28 24 21 22 16 14 10 9 9 7 4 1 5 7 10 14 18 19 16 10 11 5 3 8 15 17 17 18 16 20 19 17
43 42 33 14 12 8 5 5 7 9 11 5 15 22 25 37 31 27 18 13 9 10 15 12 9 6 5 7 8 11 17 20 19 18 18 22 25 24 21 19 21 23 14 26 30 21 15
46 42 35 20 12 14 10 12 11 14 14 24 30 28 34 41 30 23 15 16 25 23 17 12 9 8 9 10 8 11 14 16 20 28 27 23 22 23 24 22 24 21 20 6 8 6 6
34 42 34 29 24 17 14 12 14 18 37 36 35 35 34 34 29 25 21 26 24 19 18 12 10 9 7 11 10 12 13 9 13 15 21 16 13 15 15 17 16 13 17 13 13 13 10
72 48 35 36 32 28 26 25 35 42 45 40 39 40 37 32 28 21 17 22 22 21 16 16 13 12 11 12 12 8 9 10 7 4 13 8 10 11 14 13 11 17 20 23 15 13 5
85 83 75 67 61 60 58 51 49 46 44 42 39 35 30 24 24 25 28 28 25 23 19 15 14 11 15 12 11 10 12 8 7 11 10 13 20 16 14 15 20 22 25 24 22 16 22
69 72 71 68 66 61 57 54 47 44 41 37 33 31 30 21 15 26 28 28 26 21 17 14 15 16 15 14 12 12 10 10 9 14 12 15 23 20 22 25 29 43 42 38 31 34 29
60 61 61 58 55 52 50 47 43 38 33 30 28 24 22 21 26 31 27 25 20 15 14 13 15 16 17 18 17 13 13 13 13 9 11 16 22 30 32 29 35 36 33 33 35 36 39
52 48 48 45 45 46 50 47 38 32 28 25 23 24 23 19 22 25 23 20 15 10 12 15 13 13 13 14 17 15 15 19 17 13 15 20 24 22 24 26 28 27 26 24 26 29 28
54 49 48 50 50 51 51 53 46 40 36 32 29 26 24 24 20 19 17 13 10 6 9 9 10 8 7 8 11 13 16 21 17 19 21 24 22 23 21 20 20 20 20 20 20 21 20
45 44 44 47 48 50 49 47 42 39 37 33 30 28 26 24 21 17 14 10 7 7 7 9 12 13 13 12 12 15 15 18 21 17 19 24 22 20 21 20 19 16 15 15 15 15 14
38 37 38 37 39 39 38 39 38 35 33 32 30 27 26 25 24 23 21 15 14 14 15 16 16 16 17 17 15 16 18 18 21 18 19 21 22 19 19 16 13 11 9 9 8 9 9
32 30 32 29 27 29 30 30 30 29 28 27 26 25 26 28 28 28 27 26 24 24 25 26 26 26 25 23 23 23 21 21 21 19 20 19 16 14 12 10 8 7 7 9 12 15 15
21 24 22 20 17 19 21 23 22 22 22 20 21 22 23 25 26 27 27 28 27 27 27 28 28 29 30 30 29 27 27 28 28 26 22 17 14 13 12 10 9 11 12 14 16 18 19
21 20 19 19 18 15 13 15 15 14 15 15 16 18 20 20 21 22 22 23 23 23 23 23 23 25 24 25 26 26 25 26 27 26 25 23 22 21 20 18 19 18 19 18 16 14 14
18 17 17 16 14 13 16 13 11 9 8 9 12 12 14 15 16 17 18 18 19 19 20 21 21 20 20 20 21 20 19 19 18 17 16 16 15 14 13 12 10 9 8 8 8 8 11
18 18 17 18 15 12 10 13 15 8 5 5 7 7 8 10 11 12 14 15 16 16 16 17 17 18 17 17 16 16 16 15 14 12 11 10 9 8 7 6 7 9 8 9 8 9 14
21 18 20 15 16 18 21 16 13 14 9 5 3 2 3 4 5 8 10 11 12 12 12 13 14 13 13 13 13 14 13 13 11 11 10 10 9 8 8 7 8 9 8 8 10 9 12
25 22 18 19 17 18 19 24 20 13 15 12 10 8 5 5 4 4 5 7 8 8 8 8 9 9 9 9 10 10 10 10 9 9 8 8 7 7 7 7 7 7 6 7 7 9 11
22 23 22 17 26 22 17 15 23 25 16 17 15 14 13 11 9 8 7 6 6 8 8 8 6 5 5 5 6 7 7 8 6 6 7 5 5 5 5 6 7 8 8 7 8 9 9

GFSGBSN_500_spd_111.txt.gz
Wind_Speed
68 65 64 65 64 63 63 55 49 50 57 56 56 58 57 58 59 55 52 48 42 40 38 36 38 39 40 38 37 38 39 40 41 42 45 47 48 43 44 47 49 50 49 48 51 55 57
48 46 47 43 45 44 45 42 41 52 47 50 47 44 45 48 51 48 44 40 37 36 35 34 36 37 34 34 35 35 35 34 33 37 44 43 39 40 41 43 45 48 51 50 54 58 62
53 52 47 44 46 45 42 45 42 32 33 35 43 37 35 40 43 42 39 36 33 34 33 33 32 31 30 31 31 33 29 32 31 33 34 30 30 35 36 37 38 42 42 46 49 56 58
46 44 44 44 46 41 35 20 24 24 22 15 27 34 30 35 39 40 38 36 32 28 29 26 27 27 26 27 27 28 27 27 23 21 21 24 28 29 28 29 29 28 33 35 33 43 45
46 44 41 41 38 25 23 19 16 17 16 14 20 27 27 32 34 34 30 21 21 24 23 23 22 21 19 21 24 18 15 16 20 22 22 26 28 33 31 31 30 35 36 34 31 35 39
49 41 42 41 31 18 14 18 11 14 14 14 10 20 24 28 26 27 20 20 21 22 20 17 12 14 15 16 13 8 13 19 20 22 26 29 30 30 28 30 32 29 31 32 32 28 36
46 41 38 27 20 12 7 10 16 12 14 13 9 11 21 24 26 23 22 22 22 19 13 8 9 10 13 7 3 10 15 17 16 21 26 28 27 25 24 26 19 14 5 2 13 18 22
46 42 28 25 23 14 12 5 2 3 5 4 8 17 14 19 22 22 22 20 17 12 9 8 9 10 8 5 4 11 11 13 17 24 24 18 12 7 4 1 3 10 11 6 6 7 11
56 43 28 29 25 23 16 10 8 6 6 11 13 27 27 18 17 20 19 24 15 13 10 8 10 8 6 2 7 9 11 11 15 10 5 4 11 14 14 11 8 7 7 11 15 16 14
48 41 30 31 27 22 20 13 9 5 6 9 12 34 30 28 23 24 24 16 16 14 16 12 11 9 5 1 6 7 15 19 16 15 19 22 21 19 18 20 19 20 18 14 14 18 22
83 57 32 29 28 26 25 21 14 9 13 17 19 35 41 40 34 30 23 23 19 17 19 15 11 10 7 9 18 18 19 19 18 19 21 20 17 19 20 19 19 21 18 16 15 16 16
83 79 72 60 49 46 46 49 50 47 45 42 43 45 43 40 30 23 20 20 19 21 17 16 14 11 9 13 15 13 10 17 18 18 19 17 13 14 14 13 18 18 20 21 22 8 15
76 75 74 72 68 63 62 59 56 52 48 46 46 44 38 29 24 23 23 28 24 22 21 15 13 12 10 15 13 11 5 5 12 12 11 8 9 12 14 19 15 24 22 11 21 23 16
76 74 62 65 66 64 62 61 59 55 50 45 39 34 32 25 23 33 30 27 23 19 19 18 15 13 11 14 15 9 4 4 8 10 12 10 10 13 12 15 15 20 14 6 13 6 6
75 72 68 68 57 54 53 53 53 51 46 40 32 30 24 20 31 31 29 23 24 22 20 20 18 14 16 16 16 11 6 6 9 12 13 12 12 13 13 13 14 15 15 11 14 20 19
71 71 69 67 67 62 56 51 47 44 41 38 34 23 27 32 33 29 27 24 24 21 20 18 21 21 20 14 10 7 8 11 12 14 16 16 18 18 19 22 19 18 18 20 18 25 28
64 66 66 66 66 65 61 56 52 46 42 38 37 32 31 30 26 26 21 20 20 21 19 17 20 23 21 19 14 10 7 7 9 20 27 32 32 30 27 28 29 31 34 36 36 30 32
55 58 57 58 59 57 56 57 56 53 50 46 41 30 27 25 21 19 17 16 17 16 18 15 15 16 18 20 17 14 11 11 16 24 23 19 23 23 22 24 25 25 25 24 29 34 30
43 45 47 47 48 48 48 49 50 48 46 43 41 35 26 22 19 18 14 14 15 15 15 14 13 16 19 19 18 16 15 17 21 23 18 16 15 13 16 16 19 19 21 19 17 18 15
39 38 36 39 39 38 39 41 42 45 45 43 41 38 34 30 26 21 20 18 16 16 17 16 16 21 21 22 18 18 16 17 22 18 16 15 13 13 14 15 17 17 18 17 16 14 19
28 32 30 30 30 32 32 33 35 36 38 38 37 38 37 35 33 30 29 29 27 25 26 26 26 24 25 24 20 18 18 22 23 18 12 9 10 12 14 16 18 17 17 15 16 21 21
17 21 25 22 22 24 24 27 27 29 30 31 34 33 33 33 32 31 31 32 33 33 32 33 34 35 33 31 26 21 22 22 18 13 12 12 13 14 15 17 19 19 21 23 25 25 25
13 12 16 21 18 14 19 21 21 23 24 25 26 29 29 29 28 28 27 28 29 29 30 30 31 32 31 31 31 30 27 27 25 24 23 23 22 21 22 23 22 23 23 23 22 22 20
17 15 11 12 17 14 10 16 16 16 17 18 20 21 23 25 25 25 24 24 24 24 25 25 25 26 24 25 24 23 23 22 22 22 21 20 20 20 18 17 18 15 15 14 13 14 14
16 17 13 13 10 16 11 8 11 11 10 11 13 15 17 19 21 22 21 21 22 21 20 20 19 19 18 19 18 18 17 16 15 14 13 12 12 11 11 10 10 8 10 11 12 16 14
23 18 15 15 14 13 15 16 12 8 6 4 6 9 11 12 14 16 16 16 16 17 17 16 16 16 16 15 15 15 14 13 12 11 10 9 8 9 9 10 10 12 12 14 15 15 17
21 22 18 14 16 16 17 19 18 16 11 5 4 3 4 6 8 9 11 11 12 12 13 12 12 11 11 11 11 11 10 11 10 11 11 11 10 8 7 6 7 7 7 8 9 10 12
20 21 21 18 15 17 19 23 26 23 20 17 11 8 5 4 4 5 7 7 7 8 8 7 7 7 8 8 9 9 9 9 9 9 9 9 9 9 9 10 10 10 9 9 9 10 11
22 21 19 19 18 16 18 24 25 25 25 23 20 17 13 10 9 8 8 8 7 5 5 6 5 3 4 4 5 6 7 9 10 11 12 11 11 10 9 9 9 11 11 12 12 10 11

GFSGBSN_500_spd_114.txt.gz
Wind_Speed
48 42 43 47 42 35 34 35 34 28 27 40 40 40 45 47 46 42 46 47 48 48 48 46 43 39 35 35 36 38 37 36 39 39 39 41 41 41 42 44 46 48 47 48 49 51 54
44 48 44 43 39 36 31 28 29 24 26 20 26 35 32 36 40 40 39 38 39 41 43 42 39 36 32 32 31 35 35 35 36 35 36 36 36 37 42 43 43 45 45 49 51 53 54
47 46 37 29 29 35 35 29 23 24 23 23 25 28 28 25 32 31 32 33 32 32 34 32 31 30 29 30 33 33 31 31 34 34 36 37 37 36 37 39 39 39 40 45 49 53 53
57 41 33 33 35 34 23 17 16 13 11 18 22 19 21 26 22 25 23 28 28 24 27 28 27 28 27 26 26 24 25 27 27 28 28 31 31 32 32 34 36 41 44 43 43 49 53
56 43 34 29 24 17 5 3 6 6 13 9 12 14 25 29 22 22 24 24 29 38 34 26 23 20 20 20 19 19 18 21 21 22 23 25 26 32 34 36 40 44 46 46 46 46 53
48 42 38 35 27 23 14 7 11 9 11 6 7 13 17 27 28 22 23 25 27 26 22 14 15 16 13 12 13 15 12 14 19 22 25 29 33 35 36 39 40 38 40 39 41 37 50
68 40 39 37 31 25 22 7 12 13 4 5 4 5 16 31 26 19 22 24 23 17 14 12 10 8 6 7 4 6 11 14 17 21 27 30 31 33 34 25 19 12 13 15 19 16 16
82 69 38 33 35 26 21 18 8 9 9 2 3 7 21 40 38 31 28 23 21 15 12 9 8 5 6 6 2 9 11 16 22 26 26 26 21 8 3 3 5 2 6 3 3 3 8
79 81 69 48 31 23 22 23 20 20 18 14 23 25 30 35 33 31 28 23 18 17 15 12 8 9 11 6 3 6 8 8 10 8 2 5 12 14 13 10 9 12 13 14 13 6 16
74 76 77 71 66 34 16 19 22 27 27 36 28 30 36 32 32 30 28 25 21 18 16 13 14 12 9 4 8 11 14 16 19 17 16 15 14 17 15 12 11 16 15 14 15 12 11
72 72 71 73 71 68 61 41 38 45 43 38 37 32 33 33 32 28 25 23 19 17 16 15 15 13 11 14 17 17 15 16 16 15 15 15 13 11 13 14 22 23 22 18 14 10 10
77 71 69 68 66 66 66 63 56 51 50 47 42 37 31 31 28 26 22 22 20 21 19 16 15 15 16 19 17 14 11 10 7 9 9 5 7 11 12 17 21 21 20 14 18 16 14
79 79 72 64 63 62 58 55 53 51 51 47 40 33 27 26 25 22 21 18 18 20 21 16 14 15 16 17 16 6 7 7 8 7 6 5 8 7 11 12 15 11 14 17 15 16 13
72 74 75 73 67 61 55 53 46 44 39 37 34 30 32 35 33 30 28 23 19 18 17 15 15 15 15 18 13 4 4 8 10 7 7 9 10 7 12 14 9 11 15 13 10 7 6
63 66 68 70 68 68 64 58 52 45 43 40 41 39 38 36 33 30 27 24 25 23 20 18 16 15 15 15 6 4 4 12 9 8 8 7 8 9 11 9 6 6 7 5 8 8 10
56 55 59 61 63 62 60 58 54 52 46 42 39 38 36 34 31 29 26 22 25 28 26 22 18 18 17 15 13 10 9 12 14 11 10 11 12 13 17 10 10 16 8 10 12 14 16
51 50 51 54 55 56 56 55 54 52 49 43 38 32 28 26 24 26 25 26 23 23 24 24 22 19 17 13 11 7 13 18 23 24 18 18 16 17 20 21 20 24 20 25 15 16 13
42 45 44 46 48 49 50 50 50 50 50 46 44 38 32 29 25 25 24 25 25 22 23 23 21 19 15 14 13 13 24 30 26 19 15 14 13 15 16 16 18 20 26 23 18 24 19
35 35 38 37 40 42 43 45 46 45 45 47 46 43 41 35 32 27 26 28 27 25 26 25 22 22 18 19 20 23 27 23 16 12 9 11 11 13 14 15 19 15 18 19 17 16 21
26 30 29 31 32 35 37 38 40 41 41 41 42 44 42 41 40 37 34 31 28 28 26 23 23 27 25 24 24 23 17 15 9 6 9 13 15 17 18 18 15 18 18 21 21 22 18
20 20 23 23 25 27 29 32 33 36 36 36 36 37 40 39 39 39 39 40 37 29 26 25 28 30 29 27 22 21 15 10 5 10 10 12 15 16 19 19 21 24 27 29 28 28 27
20 16 17 17 18 20 21 25 27 28 30 31 31 30 32 34 36 36 35 35 36 35 35 32 26 23 15 19 23 16 11 6 6 12 17 21 23 24 25 23 25 26 25 24 25 24 23
20 20 14 15 13 12 17 18 20 21 22 24 24 25 27 28 29 31 31 31 31 30 28 28 28 26 24 22 19 15 17 19 20 21 22 21 20 20 19 19 19 20 19 19 19 19 18
16 18 17 13 13 10 9 11 12 14 15 17 19 20 21 22 23 24 25 26 26 25 24 22 21 20 18 17 16 15 14 14 14 15 15 15 15 15 15 15 14 13 12 15 16 15 15
16 15 17 16 14 13 9 6 6 9 9 9 9 11 14 15 16 18 18 19 20 20 20 19 18 16 14 13 12 12 11 11 10 9 9 9 10 9 10 10 10 9 9 9 12 13 14
21 17 17 16 14 15 15 11 8 6 6 7 8 6 7 8 10 11 12 12 13 13 13 14 14 13 13 13 12 11 11 11 11 10 10 10 10 9 9 8 9 9 9 7 7 8 8
26 24 18 17 16 15 16 17 14 11 8 9 8 7 5 4 3 5 6 7 8 8 7 7 7 8 8 8 9 10 10 10 10 11 12 12 12 12 11 12 11 11 10 9 8 7 5
23 27 25 20 17 17 17 14 15 18 13 12 13 12 10 9 8 6 4 3 2 3 4 5 5 4 3 4 5 5 6 7 8 9 10 11 12 13 13 14 14 14 13 12 12 12 12
23 26 28 25 23 21 21 19 17 15 20 19 18 18 17 15 15 14 13 10 9 7 6 5 5 6 7 7 5 6 7 7 8 9 10 11 12 13 14 15 15 15 16 17 17 15 15

GFSGBSN_500_spd_117.txt.gz
Wind_Speed
61 46 32 26 24 22 20 22 22 26 24 14 19 35 31 40 43 41 44 42 42 39 41 38 36 34 34 34 36 37 37 39 40 40 40 42 44 45 45 44 44 45 49 53 53 53 55
54 41 33 26 26 26 23 18 12 14 13 17 19 9 22 27 39 38 39 38 38 34 37 35 33 35 37 37 37 38 37 36 37 40 41 42 43 42 43 41 40 43 47 50 50 52 58
48 43 38 29 29 21 18 19 15 8 11 21 11 9 9 29 27 36 33 35 31 33 28 27 29 31 31 33 32 32 32 33 35 39 40 40 41 40 41 41 41 43 45 47 50 54 55
47 39 41 36 31 23 18 5 1 2 5 14 9 10 10 17 18 29 33 28 28 25 26 24 23 25 27 26 27 30 29 30 33 32 32 32 32 33 36 40 41 44 46 45 46 50 54
61 37 38 37 36 30 25 20 16 15 11 12 9 6 12 27 27 24 27 26 25 20 18 21 22 23 22 22 22 22 21 22 23 23 25 29 32 34 37 37 40 43 46 49 52 54 58
85 49 35 35 31 28 36 29 24 15 19 15 8 7 7 25 38 22 27 28 27 31 26 22 19 17 16 13 12 12 15 17 19 24 27 29 31 34 34 37 40 43 48 47 46 46 47
83 78 46 34 35 22 24 21 19 14 6 6 6 8 14 31 40 29 27 28 32 36 28 20 14 10 8 6 7 9 10 14 19 24 28 30 33 31 33 36 34 15 7 16 24 25 20
78 83 80 40 36 34 29 26 22 13 7 7 17 29 37 33 30 39 23 25 26 24 19 15 11 10 8 6 6 6 11 16 22 26 29 30 28 26 12 8 4 6 11 17 20 16 8
76 73 79 72 59 54 54 48 41 37 31 25 30 40 38 28 28 36 30 30 27 22 19 15 13 11 11 10 2 5 4 7 8 13 11 11 14 14 12 4 6 12 14 15 11 10 6
78 72 71 72 60 54 52 53 54 49 50 36 39 37 35 36 36 36 31 27 24 21 18 16 15 15 13 6 7 10 12 13 16 17 18 15 13 11 10 12 10 14 15 17 18 13 15
76 74 67 65 66 62 54 46 48 48 48 47 44 43 41 37 33 31 28 24 22 20 18 17 15 15 12 15 12 14 12 13 10 10 11 11 11 12 11 11 9 8 7 15 14 14 12
69 71 69 64 58 56 55 52 50 47 46 41 39 36 33 31 29 25 22 19 18 16 14 18 17 14 19 18 16 9 6 5 7 7 8 8 10 6 16 11 13 13 18 15 11 12 14
64 65 66 65 61 54 50 52 46 44 41 39 36 34 32 28 25 22 21 19 15 14 21 17 15 15 21 18 10 6 7 7 7 7 8 9 9 10 14 15 17 15 20 19 19 15 14
57 61 62 61 61 58 54 52 52 52 51 50 48 43 37 34 30 26 21 18 16 15 14 13 12 15 19 15 5 5 7 9 9 9 10 9 7 12 10 15 15 17 18 20 17 21 19
51 55 57 58 57 55 54 49 45 46 46 44 44 43 39 32 28 26 22 19 18 18 16 14 15 16 17 9 5 7 8 7 9 10 7 6 9 12 12 11 12 15 16 14 15 18 22
44 47 49 53 53 53 53 50 47 42 39 37 36 39 38 36 31 26 26 25 24 22 24 22 17 15 13 5 4 7 6 9 9 12 16 13 12 15 21 19 15 17 17 11 14 16 18
37 40 43 44 48 50 50 50 48 45 41 37 36 36 37 36 32 29 22 24 25 25 25 23 21 18 13 9 10 10 11 14 14 15 17 15 14 14 18 21 16 15 20 19 17 17 22
31 33 36 39 41 44 45 45 46 45 44 43 40 38 37 36 34 32 27 25 24 26 23 20 17 16 15 14 15 16 19 17 14 12 11 11 11 12 13 13 13 18 19 19 17 16 20
24 26 28 31 35 38 39 41 42 43 42 43 44 45 42 38 35 31 29 28 28 27 25 22 21 20 18 18 22 23 13 9 9 11 11 12 12 15 16 13 14 12 16 19 18 15 10
24 19 21 23 26 29 31 35 37 38 39 39 39 40 43 43 40 33 30 35 36 36 32 24 21 19 18 22 19 11 6 9 11 10 11 14 13 19 21 25 19 11 13 16 17 20 21
25 21 15 17 20 20 24 27 31 33 34 35 35 34 35 37 40 40 34 33 36 33 28 23 21 21 20 14 6 2 4 8 11 10 12 17 20 19 22 25 25 25 24 24 24 22 18
21 25 19 12 12 14 16 20 22 25 27 29 30 30 29 29 31 34 35 30 26 24 22 18 16 15 12 9 4 6 7 9 15 18 18 17 17 17 18 19 20 20 20 19 19 19 18
20 19 23 19 9 8 10 12 14 17 20 22 24 25 25 26 25 25 26 26 25 22 16 15 17 13 10 6 3 8 10 12 13 13 12 12 11 11 13 14 14 15 15 15 16 16 16
16 17 15 18 17 8 6 5 8 9 13 15 16 17 19 19 20 20 19 19 19 18 16 16 15 14 13 10 9 8 9 9 9 9 10 10 10 10 10 9 9 9 10 10 11 11 11
17 15 16 13 13 16 9 7 3 3 5 6 8 10 11 11 12 13 13 13 13 14 13 12 11 10 11 11 10 9 10 10 10 10 10 11 11 10 9 8 8 7 5 6 7 6 6
20 18 15 16 12 12 14 11 10 7 6 3 1 2 2 4 5 6 6 7 7 7 7 8 9 8 8 8 8 7 7 7 8 9 9 10 10 11 12 12 10 10 8 6 4 2 1
24 21 18 15 15 14 10 10 10 10 11 11 8 5 5 5 5 3 1 0 0 0 1 2 2 4 5 6 7 8 9 8 8 8 9 9 10 11 12 12 11 11 10 10 10 7 7
27 28 22 19 19 17 16 12 9 10 12 14 11 11 12 12 11 12 10 8 7 6 6 6 5 7 6 6 6 6 7 8 10 11 12 13 13 13 12 13 13 13 12 12 12 11 11
25 29 26 25 21 21 21 19 13 11 9 11 15 13 17 16 18 18 17 18 16 15 13 13 12 12 12 12 13 13 13 12 13 13 14 14 15 16 16 17 16 16 15 15 15 16 15